[[{"header":{"parameterUnit":"m.s-1","parameterCategory":1,"la1":30.6,"la2":28.766,"lo1":-90.7593,"lo2":-88.6598,"dy":0.0162,"dx":0.0183,"nx":116,"ny":114,"refTime":"2024-03-24T12:00:00:Z","depth":0,"parameterNumber":2,"parameterNumberName":"U-component_of_WINDS"},"data":[0.0,0.0,0.0,0.0,0.0,0.0,0.0,0.0,0.0,0.0,0.0,0.0,0.0,0.0,0.0,0.0,0.0,0.0,0.0,0.0,0.0,0.0,0.0,0.0,0.0,0.0,0.0,0.0,0.0,0.0,0.0,0.0,0.0,0.0,0.0,0.0,0.0,0.0,0.0,0.0,0.0,0.0,0.0,0.0,0.0,0.0,0.0,0.0,0.0,0.0,0.0,0.0,0.0,0.0,0.0,0.0,0.0,0.0,0.0,0.0,0.0,0.0,0.0,0.0,0.0,0.0,0.0,0.0,0.0,0.0,0.0,0.0,0.0,0.0,0.0,0.0,0.0,0.0,0.0,0.0,0.0,0.0,0.0,0.0,0.0,0.0,0.0,0.0,0.0,0.0,0.0,0.0,0.0,0.0,0.0,0.0,0.0,0.0,0.0,0.0,0.0,0.0,0.0,0.0,0.0,0.0,0.0,0.0,0.0,0.0,0.0,0.0,0.0,0.0,0.0,0.0,0.0,0.0,0.0,0.0,0.0,0.0,0.0,0.0,0.0,0.0,0.0,0.0,0.0,0.0,0.0,0.0,0.0,0.0,0.0,0.0,0.0,0.0,0.0,0.0,0.0,0.0,0.0,0.0,0.0,0.0,0.0,0.0,0.0,0.0,0.0,0.0,0.0,0.0,0.0,0.0,0.0,0.0,0.0,0.0,0.0,0.0,0.0,0.0,0.0,0.0,0.0,0.0,0.0,0.0,0.0,0.0,0.0,0.0,0.0,0.0,0.0,0.0,0.0,0.0,0.0,0.0,0.0,0.0,0.0,0.0,0.0,0.0,0.0,0.0,0.0,0.0,0.0,0.0,0.0,0.0,0.0,0.0,0.0,0.0,0.0,0.0,0.0,0.0,0.0,0.0,0.0,0.0,0.0,0.0,0.0,0.0,0.0,0.0,0.0,0.0,0.0,0.0,0.0,0.0,0.0,0.0,0.0,0.0,0.0,0.0,0.0,0.0,0.0,0.0,0.0,0.0,0.0,0.0,0.0,0.0,0.0,0.0,0.0,0.0,0.0,0.0,0.0,0.0,0.0,0.0,0.0,0.0,0.0,0.0,0.0,0.0,0.0,0.0,0.0,0.0,0.0,0.0,0.0,0.0,0.0,0.0,0.0,0.0,0.0,0.0,0.0,0.0,0.0,0.0,0.0,0.0,0.0,0.0,0.0,0.0,0.0,0.0,0.0,0.0,0.0,0.0,0.0,0.0,0.0,0.0,0.0,0.0,0.0,0.0,0.0,0.0,0.0,0.0,0.0,0.0,0.0,0.0,0.0,0.0,0.0,0.0,0.0,0.0,0.0,0.0,0.0,0.0,0.0,0.0,0.0,0.0,0.0,0.0,0.0,0.0,0.0,0.0,0.0,0.0,0.0,0.0,0.0,0.0,0.0,0.0,0.0,0.0,0.0,0.0,0.0,0.0,0.0,0.0,0.0,0.0,0.0,0.0,0.0,0.0,0.0,0.0,0.0,0.0,0.0,0.0,0.0,0.0,0.0,0.0,0.0,0.0,0.0,0.0,0.0,0.0,0.0,0.0,0.0,0.0,0.0,0.0,0.0,0.0,0.0,0.0,0.0,0.0,0.0,0.0,0.0,0.0,0.0,0.0,0.0,0.0,0.0,0.0,0.0,0.0,0.0,0.0,0.0,0.0,0.0,0.0,0.0,0.0,0.0,0.0,0.0,0.0,0.0,0.0,0.0,0.0,0.0,0.0,0.0,0.0,0.0,0.0,0.0,0.0,0.0,0.0,0.0,0.0,0.0,0.0,0.0,0.0,0.0,0.0,0.0,0.0,0.0,0.0,0.0,0.0,0.0,0.0,0.0,0.0,0.0,0.0,0.0,0.0,0.0,0.0,0.0,0.0,0.0,0.0,0.0,0.0,0.0,0.0,0.0,0.0,0.0,0.0,0.0,0.0,0.0,0.0,0.0,0.0,0.0,0.0,0.0,0.0,0.0,0.0,0.0,0.0,0.0,0.0,0.0,0.0,0.0,0.0,0.0,0.0,0.0,0.0,0.0,0.0,0.0,0.0,0.0,0.0,0.0,0.0,0.0,0.0,0.0,0.0,0.0,0.0,0.0,0.0,0.0,0.0,0.0,0.0,0.0,0.0,0.0,0.0,0.0,0.0,0.0,0.0,0.0,0.0,0.0,0.0,0.0,0.0,0.0,0.0,0.0,0.0,0.0,0.0,0.0,0.0,0.0,0.0,0.0,0.0,0.0,0.0,0.0,0.0,0.0,0.0,0.0,0.0,0.0,0.0,0.0,0.0,0.0,0.0,0.0,0.0,0.0,0.0,0.0,0.0,0.0,0.0,0.0,0.0,0.0,0.0,0.0,0.0,0.0,0.0,0.0,0.0,0.0,0.0,0.0,0.0,0.0,0.0,0.0,0.0,0.0,0.0,0.0,0.0,0.0,0.0,0.0,0.0,0.0,0.0,0.0,0.0,0.0,0.0,0.0,0.0,0.0,0.0,0.0,0.0,0.0,0.0,0.0,0.0,0.0,0.0,0.0,0.0,0.0,0.0,0.0,0.0,0.0,0.0,0.0,0.0,0.0,0.0,0.0,0.0,0.0,0.0,0.0,0.0,0.0,0.0,0.0,0.0,0.0,0.0,0.0,0.0,0.0,0.0,0.0,0.0,0.0,0.0,0.0,0.0,0.0,0.0,0.0,0.0,0.0,0.0,0.0,0.0,0.0,0.0,0.0,0.0,0.0,0.0,0.0,0.0,0.0,0.0,0.0,0.0,0.0,0.0,0.0,0.0,0.0,0.0,0.0,0.0,0.0,0.0,0.0,0.0,0.0,0.0,0.0,0.0,0.0,0.0,0.0,0.0,0.0,0.0,0.0,0.0,0.0,0.0,0.0,0.0,0.0,0.0,0.0,0.0,0.0,0.0,0.0,0.0,0.0,0.0,0.0,0.0,0.0,0.0,0.0,0.0,0.0,0.0,0.0,0.0,0.0,0.0,0.0,0.0,0.0,0.0,0.0,0.0,0.0,0.0,0.0,0.0,0.0,0.0,0.0,0.0,0.0,0.0,0.0,0.0,0.0,0.0,0.0,0.0,0.0,0.0,0.0,0.0,0.0,0.0,0.0,0.0,0.0,0.0,0.0,0.0,0.0,0.0,0.0,0.0,0.0,0.0,0.0,0.0,0.0,0.0,0.0,0.0,0.0,0.0,0.0,0.0,0.0,0.0,0.0,0.0,0.0,0.0,0.0,0.0,0.0,0.0,0.0,0.0,0.0,0.0,0.0,0.0,0.0,0.0,0.0,0.0,0.0,0.0,0.0,0.0,0.0,0.0,0.0,0.0,0.0,0.0,0.0,0.0,0.0,0.0,0.0,0.0,0.0,0.0,0.0,0.0,0.0,0.0,0.0,0.0,0.0,0.0,0.0,0.0,0.0,0.0,0.0,0.0,0.0,0.0,0.0,0.0,0.0,0.0,0.0,0.0,0.0,0.0,0.0,0.0,0.0,0.0,0.0,0.0,0.0,0.0,0.0,0.0,0.0,0.0,0.0,0.0,0.0,0.0,0.0,0.0,0.0,0.0,0.0,0.0,0.0,0.0,0.0,0.0,0.0,0.0,0.0,0.0,0.0,0.0,0.0,0.0,0.0,0.0,0.0,0.0,0.0,0.0,0.0,0.0,0.0,0.0,0.0,0.0,0.0,0.0,0.0,0.0,0.0,0.0,0.0,0.0,0.0,0.0,0.0,0.0,0.0,0.0,0.0,0.0,0.0,0.0,0.0,0.0,0.0,0.0,0.0,0.0,0.0,0.0,0.0,0.0,0.0,0.0,0.0,0.0,0.0,0.0,0.0,0.0,0.0,0.0,0.0,0.0,0.0,0.0,0.0,0.0,0.0,0.0,0.0,0.0,0.0,0.0,0.0,0.0,0.0,0.0,0.0,0.0,0.0,0.0,0.0,0.0,0.0,0.0,0.0,0.0,0.0,0.0,0.0,0.0,0.0,0.0,0.0,0.0,0.0,0.0,0.0,0.0,0.0,0.0,0.0,0.0,0.0,0.0,0.0,0.0,0.0,0.0,0.0,0.0,0.0,0.0,0.0,0.0,0.0,0.0,0.0,0.0,0.0,0.0,0.0,0.0,0.0,0.0,0.0,0.0,0.0,0.0,0.0,0.0,0.0,0.0,0.0,0.0,0.0,0.0,0.0,0.0,0.0,0.0,0.0,0.0,0.0,0.0,0.0,0.0,0.0,0.0,0.0,0.0,0.0,0.0,0.0,0.0,0.0,0.0,0.0,0.0,0.0,0.0,0.0,0.0,0.0,0.0,0.0,0.0,0.0,0.0,0.0,0.0,0.0,0.0,0.0,0.0,0.0,0.0,0.0,0.0,0.0,0.0,0.0,0.0,0.0,0.0,0.0,0.0,0.0,0.0,0.0,0.0,0.0,0.0,0.0,0.0,0.0,0.0,0.0,0.0,0.0,0.0,0.0,0.0,0.0,0.0,0.0,0.0,0.0,0.0,0.0,0.0,0.0,0.0,0.0,0.0,0.0,0.0,0.0,0.0,0.0,0.0,0.0,0.0,0.0,0.0,0.0,0.0,0.0,0.0,0.0,0.0,0.0,0.0,0.0,0.0,0.0,0.0,0.0,0.0,0.0,0.0,0.0,0.0,0.0,0.0,0.0,0.0,0.0,0.0,0.0,0.0,0.0,0.0,0.0,0.0,0.0,0.0,0.0,0.0,0.0,0.0,0.0,0.0,0.0,0.0,0.0,0.0,0.0,0.0,0.0,0.0,0.0,0.0,0.0,0.0,0.0,0.0,0.0,0.0,0.0,0.0,0.0,0.0,0.0,0.0,0.0,0.0,0.0,0.0,0.0,0.0,0.0,0.0,0.0,0.0,0.0,0.0,0.0,0.0,0.0,0.0,0.0,0.0,0.0,0.0,0.0,0.0,0.0,0.0,0.0,0.0,0.0,0.0,0.0,0.0,0.0,0.0,0.0,0.0,0.0,0.0,0.0,0.0,0.0,0.0,0.0,0.0,0.0,0.0,0.0,0.0,0.0,0.0,0.0,0.0,0.0,0.0,0.0,0.0,0.0,0.0,0.0,0.0,0.0,0.0,0.0,0.0,0.0,0.0,0.0,0.0,0.0,0.0,0.0,0.0,0.0,0.0,0.0,0.0,0.0,0.0,0.0,0.0,0.0,0.0,0.0,0.0,0.0,0.0,0.0,0.0,0.0,0.0,0.0,0.0,0.0,0.0,0.0,0.0,0.0,0.0,0.0,0.0,0.0,0.0,0.0,0.0,0.0,0.0,0.0,0.0,0.0,0.0,0.0,0.0,0.0,0.0,0.0,0.0,0.0,0.0,0.0,0.0,0.0,0.0,0.0,0.0,0.0,0.0,0.0,0.0,0.0,0.0,0.0,0.0,0.0,0.0,0.0,0.0,0.0,0.0,0.0,0.0,0.0,0.0,0.0,0.0,0.0,0.0,0.0,0.0,0.0,0.0,0.0,0.0,0.0,0.0,0.0,0.0,0.0,0.0,0.0,0.0,0.0,0.0,0.0,0.0,0.0,0.0,0.0,0.0,0.0,0.0,0.0,0.0,0.0,0.0,0.0,0.0,0.0,0.0,0.0,0.0,0.0,0.0,0.0,0.0,0.0,0.0,0.0,0.0,0.0,0.0,0.0,0.0,0.0,0.0,0.0,0.0,0.0,0.0,0.0,0.0,0.0,0.0,0.0,0.0,0.0,0.0,0.0,0.0,0.0,0.0,0.0,0.0,0.0,0.0,0.0,0.0,0.0,0.0,0.0,0.0,0.0,0.0,0.0,0.0,0.0,0.0,0.0,0.0,0.0,0.0,0.0,0.0,0.0,0.0,0.0,0.0,0.0,0.0,0.0,0.0,0.0,0.0,0.0,0.0,0.0,0.0,0.0,0.0,0.0,0.0,0.0,0.0,0.0,0.0,0.0,0.0,0.0,0.0,0.0,0.0,0.0,0.0,0.0,0.0,0.0,0.0,0.0,0.0,0.0,0.0,0.0,0.0,0.0,0.0,0.0,0.0,0.0,0.0,0.0,0.0,2.279,0.0,0.0,0.0,0.0,0.0,0.0,0.0,0.0,0.0,0.0,0.0,0.0,0.0,0.0,0.0,0.0,0.0,0.0,0.0,0.0,0.0,0.0,0.0,0.0,0.6649,0.6638,0.6457,0.7059,0.0,0.0,0.0,0.0,0.0,0.0,0.0,0.9195,0.9205,0.9655,1.0567,1.0678,1.1095,1.1766,1.1522,1.1169,1.0721,0.0,0.0,0.0,0.0,0.0,0.0,0.0,0.0,0.0,0.0,0.0,0.0,0.0,0.0,0.0,0.0,0.0,0.0,0.0,0.0,0.0,0.0,0.0,0.0,0.0,0.0,0.0,0.0,0.0,0.0,0.0,0.0,0.0,0.0,0.0,0.0,0.0,0.0,0.0,0.0,0.0,0.0,0.0,0.0,0.0,0.0,0.0,0.0,0.0,0.0,0.0,0.0,0.0,0.0,0.0,0.0,0.0,0.0,0.0,0.0,0.0,0.0,0.0,0.0,0.0,0.0,0.0,0.0,0.0,0.0,0.0,2.3429,0.0,0.0,0.0,0.0,0.0,0.0,0.0,0.0,0.0,0.0,0.0,0.0,0.0,0.0,0.0,0.0,0.0,0.0,0.0,0.0,0.0,0.6598,0.6383,0.6468,0.6523,0.6486,0.7062,0.7349,0.7179,0.7623,0.0,0.0,0.0,0.8492,0.9201,0.9212,0.9877,1.1206,1.1307,1.1891,1.2925,1.2776,1.2365,1.1757,1.168,0.0,0.0,0.0,0.0,0.0,0.0,0.0,0.0,0.0,0.0,0.0,0.0,0.0,0.0,0.0,0.0,0.0,0.0,0.0,0.0,0.0,0.0,0.0,0.0,0.0,0.0,0.0,0.0,0.0,0.0,0.0,0.0,0.0,0.0,0.0,0.0,0.0,0.0,0.0,0.0,0.0,0.0,0.0,0.0,0.0,0.0,0.0,0.0,0.0,0.0,0.0,0.0,0.0,0.0,0.0,0.0,0.0,0.0,0.0,0.0,0.0,0.0,0.0,2.5685,2.633,2.692,2.6912,2.693,2.6882,2.5696,2.5111,2.488,2.4081,0.0,0.0,0.0,0.0,0.0,0.0,0.0,0.0,0.0,0.0,0.0,0.0,0.0,0.0,0.0,0.0,0.0,0.0,0.0,0.6457,0.6243,0.6498,0.6596,0.6428,0.6857,0.7114,0.7036,0.7579,0.7932,0.7997,0.8506,0.8942,0.9278,0.9291,0.967,1.045,1.1486,1.2477,1.3399,1.3512,1.3423,1.3199,1.275,1.2515,1.2472,0.0,0.0,0.0,0.0,0.0,0.0,0.0,0.0,0.0,0.0,0.0,0.0,0.0,0.0,0.0,0.0,0.0,0.0,0.0,0.0,0.0,0.0,0.0,0.0,0.0,0.0,0.0,0.0,0.0,0.0,0.0,0.0,0.0,0.0,0.0,0.0,0.0,0.0,0.0,0.0,0.0,2.0761,2.0189,0.0,0.0,0.0,0.0,0.0,0.0,0.0,0.0,0.0,0.0,0.0,0.0,0.0,2.3165,2.4508,2.4989,2.5663,2.6445,2.7225,2.753,2.7423,2.7987,2.8241,2.8243,2.8064,0.0,2.6203,2.5456,0.0,0.0,0.0,0.0,0.0,0.0,0.0,0.0,0.0,0.0,0.0,0.0,0.0,0.0,0.0,0.0,0.0,0.0,0.0,0.0,0.0,0.6391,0.6634,0.6724,0.7339,0.764,0.7459,0.7802,0.7971,0.7889,0.7926,0.8322,0.9115,0.9172,1.0004,1.164,1.3456,1.429,1.4183,1.5018,1.5131,1.4691,1.4864,1.425,1.3019,1.2664,0.0,0.0,0.0,0.0,0.0,0.0,0.0,0.0,0.0,0.0,0.0,0.0,0.0,0.0,0.0,0.0,0.0,0.0,0.0,0.0,0.0,0.0,0.0,0.0,0.0,0.0,0.0,0.0,0.0,0.0,0.0,0.0,0.0,0.0,0.0,0.0,0.0,0.0,0.0,2.0344,2.0827,2.0515,2.0428,2.0251,0.0,0.0,0.0,0.0,0.0,0.0,0.0,0.0,0.0,2.3163,2.396,2.4668,2.5227,2.6511,2.7366,2.7781,2.8923,2.9367,2.9141,2.9421,2.9563,2.9579,2.9561,2.9223,2.8586,2.7173,2.6179,2.555,0.0,0.0,0.0,0.0,2.556,2.567,0.0,0.0,0.0,0.0,0.0,0.0,0.0,0.0,0.0,0.0,0.0,0.0,0.6145,0.6487,0.687,0.7221,0.792,0.8255,0.8087,0.8247,0.8226,0.7943,0.7771,0.8096,0.8956,0.9344,1.0522,1.2513,1.4351,1.5002,1.4546,1.5627,1.5787,1.5226,1.6048,1.5521,1.3984,1.3635,1.3335,0.0,0.0,0.0,0.0,0.0,0.0,0.0,0.0,0.0,0.0,0.0,0.0,0.0,0.0,0.0,0.0,0.0,0.0,0.0,0.0,0.0,0.0,0.0,0.0,0.0,0.0,0.0,0.0,0.0,0.0,0.0,0.0,0.0,0.0,0.0,0.0,0.0,0.0,2.0658,2.1134,2.1081,2.116,2.0964,0.0,0.0,0.0,0.0,0.0,0.0,2.3931,2.4272,2.4428,2.4481,2.5421,2.6077,2.6321,2.7852,2.8774,2.9127,3.0126,3.0556,3.0401,3.0401,3.0401,3.0401,3.0401,3.0401,3.0269,2.8622,2.7683,2.7212,2.7168,2.7106,2.7109,2.78,2.8017,2.8017,0.0,0.0,0.0,0.0,0.0,0.0,0.0,0.0,0.0,0.0,0.0,0.6407,0.6464,0.7,0.7513,0.7921,0.8392,0.8722,0.8833,0.8964,0.8813,0.8301,0.875,0.8966,0.8901,1.0079,1.1151,1.2043,1.2664,1.3332,1.4032,1.4445,1.4428,1.4131,1.5185,1.5773,1.5922,1.5327,1.4647,1.3858,0.0,0.0,0.0,0.0,0.0,0.0,0.0,0.0,0.0,0.0,0.0,0.0,0.0,0.0,0.0,0.0,0.0,0.0,0.0,0.0,0.0,0.0,0.0,0.0,0.0,0.0,0.0,0.0,0.0,0.0,0.0,0.0,0.0,0.0,0.0,0.0,0.0,0.0,0.0,2.2048,2.2405,0.0,0.0,0.0,0.0,2.2871,2.2935,2.3571,2.5036,2.4831,2.5261,2.65,2.662,2.7334,2.8805,2.9037,2.9612,3.0494,3.0433,3.0418,3.0401,3.0401,3.0401,3.0401,3.0401,3.0401,3.0344,2.9536,2.919,2.9128,2.8742,2.8522,2.8467,2.9074,2.9363,2.9435,0.0,0.0,0.0,0.0,0.0,0.0,0.6115,0.5997,0.5911,0.5814,0.6113,0.6463,0.6792,0.7593,0.8335,0.8916,0.9359,0.9615,0.9674,0.9352,0.9166,0.9197,0.893,0.9169,1.0038,1.1256,1.2181,1.2766,1.401,1.4504,1.4355,1.5419,1.5599,1.5065,1.5798,1.6119,1.6099,1.6043,1.5568,1.4781,1.4227,1.3554,0.0,0.0,0.0,0.0,0.0,0.0,0.0,0.0,0.0,0.0,0.0,0.0,0.0,0.0,0.0,0.0,0.0,0.0,0.0,0.0,0.0,0.0,0.0,0.0,0.0,0.0,0.0,0.0,0.0,0.0,0.0,0.0,0.0,0.0,0.0,0.0,0.0,2.2632,2.316,0.0,2.3138,2.3268,2.3575,2.4057,2.446,2.5019,2.5796,2.6554,2.725,2.7835,2.8405,2.9023,2.9697,3.0394,3.0848,3.1066,3.1623,3.1779,3.1549,3.1655,3.1638,3.1576,3.1576,3.1576,3.1522,3.128,3.0692,2.9986,2.9841,2.9755,2.9799,3.0411,3.0642,3.075,0.0,0.0,0.0,0.0,0.0,0.0,0.5987,0.5857,0.5826,0.5859,0.6304,0.6795,0.7282,0.8265,0.9117,0.9652,1.0054,1.0276,1.0322,0.988,0.9641,0.9729,0.9289,0.9562,1.0706,1.1814,1.2575,1.3009,1.4292,1.4728,1.439,1.5551,1.5738,1.5127,1.6143,1.6415,1.6179,1.694,1.656,1.5441,1.5072,1.4582,1.4011,0.0,0.0,0.0,0.0,0.0,0.0,0.0,0.0,0.0,0.0,0.0,0.0,0.0,0.0,0.0,0.0,0.0,0.0,0.0,0.0,0.0,0.0,0.0,0.0,0.0,0.0,0.0,0.0,0.0,0.0,0.0,0.0,0.0,0.0,0.0,2.2817,2.3499,2.4234,2.4621,2.4505,2.4842,2.5293,2.5832,2.6123,2.6604,2.7356,2.8161,2.8795,2.9345,2.983,3.0299,3.0707,3.1377,3.1656,3.1603,3.2235,3.2408,3.22,3.23,3.2282,3.22,3.22,3.2345,3.2609,3.2609,3.2291,3.1771,3.1274,3.1076,3.1128,3.1591,3.1745,3.1717,0.0,0.0,0.0,0.0,0.0,0.6093,0.5836,0.5793,0.5837,0.5975,0.6696,0.741,0.7945,0.9032,0.9825,1.0097,1.041,1.0649,1.0791,1.0535,1.0218,0.9856,0.9917,1.0239,1.0848,1.1693,1.2294,1.2645,1.3304,1.3801,1.4134,1.4649,1.4649,1.4241,1.6134,1.6674,1.6291,1.7932,1.7566,1.5799,1.5478,1.5731,1.6153,0.0,0.0,0.0,0.0,0.0,0.0,0.0,0.0,0.0,0.0,0.0,0.0,0.0,0.0,0.0,0.0,0.0,0.0,0.0,0.0,0.0,0.0,0.0,0.0,0.0,0.0,0.0,0.0,0.0,0.0,0.0,0.0,0.0,2.2959,2.3292,2.379,2.4653,2.563,2.6028,2.5464,2.6422,2.7379,2.8179,2.7873,2.8262,2.9706,2.9522,2.9856,3.0976,3.0824,3.1118,3.1935,3.1935,3.2027,3.2255,3.2273,3.2273,3.2255,3.2273,3.2273,3.2255,3.2255,3.2709,3.3412,3.3412,3.3881,3.4435,3.3028,3.2472,3.249,3.2687,3.2634,3.2426,0.0,0.0,0.0,0.0,0.0,0.5868,0.575,0.5642,0.564,0.5826,0.6757,0.7623,0.8157,0.9275,1.0117,1.0437,1.0546,1.0618,1.0649,1.0364,1.0287,1.053,1.1053,1.1658,1.2305,1.2569,1.294,1.3468,1.3892,1.4241,1.453,1.4937,1.5234,1.5483,1.5892,1.5938,1.5836,1.6927,1.7033,1.6468,1.6627,1.6505,1.6134,0.0,0.0,0.0,0.0,0.0,0.0,0.0,0.0,0.0,0.0,0.0,0.0,0.0,0.0,0.0,0.0,0.0,0.0,0.0,0.0,0.0,0.0,0.0,0.0,0.0,0.0,0.0,0.0,0.0,0.0,0.0,2.3102,2.3887,2.335,2.4274,2.528,2.6059,2.69,2.7584,2.7945,2.8089,2.8338,2.874,2.8903,2.9156,2.9567,3.0202,3.0729,3.1201,3.1466,3.1954,3.2751,3.2778,3.2986,3.342,3.3571,3.3571,3.3439,3.3571,3.3571,3.342,3.342,3.3566,3.3759,3.3759,3.3906,3.4091,3.4018,3.402,3.3992,3.4076,3.3661,3.3138,0.0,0.0,0.0,0.0,0.0,0.575,0.5707,0.5631,0.5716,0.6091,0.6935,0.7785,0.8508,0.9434,1.0172,1.0559,1.0602,1.0602,1.0602,1.0514,1.0687,1.1163,1.1751,1.2261,1.2641,1.302,1.3371,1.3714,1.4276,1.4622,1.4802,1.518,1.5497,1.5723,1.5976,1.6008,1.5951,1.6821,1.7266,1.738,1.7624,1.7706,1.7564,1.6931,1.6908,1.7114,1.6442,1.6247,1.6293,1.6433,0.0,0.0,0.0,0.0,0.0,0.0,0.0,0.0,0.0,0.0,0.0,0.0,0.0,0.0,0.0,0.0,0.0,0.0,0.0,0.0,0.0,0.0,0.0,0.0,2.4615,2.5407,2.5403,2.5788,2.6431,2.7436,2.8066,2.8677,2.9264,2.9351,2.9479,2.9816,2.9869,2.9994,3.0236,3.0875,3.1434,3.1905,3.2369,3.289,3.343,3.3543,3.3745,3.408,3.4194,3.4213,3.4194,3.4232,3.4175,3.4061,3.3946,3.4128,3.4442,3.4442,3.4644,0.0,0.0,0.0,0.0,0.0,3.4013,3.3619,0.0,0.0,0.0,0.0,0.0,0.5696,0.5696,0.5696,0.5891,0.6452,0.7089,0.7858,0.8829,0.9507,1.0094,1.0557,1.0602,1.06,1.064,1.0891,1.1249,1.1758,1.2141,1.2385,1.2452,1.3187,1.364,1.3706,1.4482,1.4889,1.4971,1.5395,1.5511,1.5453,1.621,1.6448,1.6293,1.7242,1.7844,1.8223,1.862,1.9139,1.9535,1.8911,1.891,1.9106,1.8066,1.7415,1.7007,1.6646,0.0,0.0,0.0,0.0,0.0,0.0,0.0,0.0,0.0,0.0,0.0,0.0,0.0,0.0,0.0,0.0,0.0,0.0,0.0,0.0,0.0,0.0,0.0,0.0,2.6278,2.7117,2.8196,2.7618,2.7478,2.8659,2.9119,2.9507,2.9884,3.0193,3.0584,3.1059,3.0719,3.0763,3.1382,0.0,0.0,0.0,0.0,3.3773,3.4035,3.4323,3.4465,3.4519,3.45,3.4596,3.4748,3.4538,3.4443,3.4443,3.4194,3.4539,3.5253,3.5253,3.5672,3.6195,3.4745,3.4182,3.4182,3.4182,3.4128,3.4054,0.0,0.0,0.0,0.0,0.0,0.5696,0.5696,0.5696,0.578,0.6007,0.689,0.7753,0.8451,0.9342,1.0094,1.0557,1.0602,1.0693,1.0918,1.1166,1.1583,1.2159,1.2534,1.2912,1.3333,1.3507,1.384,1.4327,1.4491,1.4829,1.5299,1.5398,1.5652,1.6023,1.621,1.6142,1.5974,1.7229,1.7648,1.7672,1.9761,2.0254,1.9736,1.9665,1.9844,2.0047,1.9167,1.8805,1.865,1.8105,1.7687,1.7463,1.7968,0.0,0.0,0.0,0.0,0.0,0.0,0.0,0.0,0.0,0.0,0.0,0.0,0.0,0.0,0.0,0.0,0.0,0.0,0.0,0.0,2.6194,2.765,2.8854,2.9204,2.9214,2.924,2.9325,2.9975,3.0423,3.0517,3.045,3.0739,3.1569,3.1248,3.1377,3.2162,3.2365,3.2614,3.2946,3.353,3.4202,3.4932,3.5165,3.5529,3.5987,0.0,0.0,3.5809,3.5544,3.5444,3.5444,3.5384,3.5438,3.5587,3.5587,3.5709,3.5851,3.5891,3.5928,3.5928,3.5928,3.5507,3.496,0.0,0.0,0.0,0.0,0.0,0.5696,0.5696,0.5642,0.5725,0.6093,0.6617,0.7267,0.8109,0.8553,0.9058,0.9738,1.0194,1.0608,1.0969,1.141,1.1922,1.251,1.2832,1.3186,1.3586,1.3893,1.4207,1.4501,1.4794,1.511,1.5404,1.5551,1.5745,1.5998,1.5998,1.6058,1.6248,1.6907,1.7401,1.7874,1.9904,2.0432,2.0111,2.0653,2.0804,2.0648,1.9841,1.9397,1.9103,1.8624,1.8146,1.7836,1.8088,1.7798,1.7359,0.0,0.0,0.0,0.0,0.0,0.0,0.0,0.0,0.0,0.0,0.0,0.0,0.0,0.0,2.4446,2.4656,0.0,2.7648,2.8144,2.8976,2.9585,2.9718,3.0026,3.0221,3.0108,3.0366,3.0615,3.083,3.0912,3.1196,3.1752,3.1883,3.207,3.238,3.2665,3.2901,3.3097,3.388,3.4553,3.5143,3.5581,3.5935,3.6246,3.6146,3.631,3.6706,3.6557,3.66,3.675,3.677,3.6736,3.6612,3.6612,3.6612,3.6632,3.6859,3.6586,3.6058,3.6058,3.5787,3.5462,0.0,0.0,0.0,0.0,0.0,0.5696,0.5696,0.5609,0.5725,0.6221,0.6311,0.6729,0.7743,0.7728,0.8011,0.8922,0.9698,1.0354,1.0903,1.1474,1.2085,1.2793,1.304,1.3313,1.368,1.4234,1.4527,1.4603,1.5137,1.5431,1.5484,1.5701,1.5808,1.5808,1.5808,1.6045,1.6471,1.6659,1.7185,1.8087,1.9763,2.0383,2.0414,2.1529,2.1633,2.1121,2.0279,1.9692,1.9244,1.8714,1.8298,1.7966,1.7764,1.7678,1.7555,1.6937,1.6974,0.0,0.0,0.0,0.0,0.0,0.0,0.0,0.0,0.0,2.2434,2.4098,2.5262,2.6097,2.6552,2.7541,2.866,2.9691,2.9629,2.9523,2.9603,2.9916,3.0184,3.033,3.0522,3.0656,3.0656,3.1306,3.1668,3.1535,3.2151,3.2481,3.2388,3.2643,3.2997,3.3472,3.4327,3.4989,3.5451,3.6048,3.6385,3.6523,3.6455,3.6762,3.7393,3.7359,3.7504,3.7754,3.7802,3.7697,3.7485,3.7485,3.7485,3.7485,3.7485,3.691,3.6042,3.6042,3.6042,3.6042,0.0,0.0,0.0,0.0,0.0,0.0,0.5696,0.5685,0.5727,0.5856,0.6016,0.6426,0.72,0.7385,0.7854,0.891,0.93,0.9855,1.0672,1.1127,1.1828,1.2844,1.2909,1.3285,1.4028,1.4327,1.4656,1.4932,1.5267,1.5524,1.5755,1.5795,1.5808,1.5808,1.5808,1.5832,1.595,1.6833,1.7279,1.7599,1.9962,2.0662,2.0471,2.189,2.2128,2.1592,2.0544,2.0017,1.9674,1.8665,1.8183,1.7991,1.7949,1.7947,1.7866,1.7435,0.0,1.7323,1.7088,1.7713,1.8537,1.8984,1.9824,2.1033,0.0,0.0,2.4078,2.5995,2.688,2.7473,2.8038,2.8469,2.8774,2.8919,2.8581,2.8314,2.8303,2.8203,2.8331,2.8954,3.057,3.1053,2.9557,3.132,3.2015,3.0652,3.1385,3.2037,3.2299,3.233,3.3046,3.45,3.4868,3.5593,3.6702,3.6995,3.7414,3.7965,3.773,3.7646,3.7749,3.7567,3.7495,3.7528,3.7528,3.7528,3.7485,3.7485,3.7485,3.7485,3.7485,3.7425,3.7296,3.7296,3.7296,3.7296,0.0,0.0,0.0,0.0,0.0,0.0,0.0,0.5631,0.5596,0.563,0.5708,0.5862,0.6177,0.6781,0.7395,0.7956,0.9071,1.0002,1.0599,1.1209,1.1857,1.2628,1.2811,1.3119,1.3607,1.4196,1.4576,1.471,1.5026,1.5297,1.5578,1.5578,1.5648,1.5808,1.5808,1.5974,1.6305,1.6998,1.7362,1.7675,2.0052,2.0598,2.0163,2.1549,2.1797,2.1284,2.0444,2.0037,0.0,0.0,1.8228,1.8025,1.8144,1.7933,1.7656,1.7734,1.7578,0.0,1.7838,1.8237,1.8775,0.0,2.0123,2.0986,2.3292,2.4197,2.4954,2.6402,2.7533,2.8185,2.7957,2.8272,2.8538,0.0,2.8218,2.7904,2.74,2.7941,2.816,2.7582,2.9669,3.0704,2.9496,3.0577,3.103,3.0219,3.083,3.1225,3.1243,3.1799,3.258,3.3554,3.4656,3.569,3.6657,3.7169,3.7535,3.7781,3.7697,3.7797,3.8145,3.8236,3.8449,3.876,3.863,3.8537,3.8537,3.8537,3.8537,3.8537,3.8537,3.8537,3.8456,3.7778,3.7485,3.7485,0.0,0.0,0.0,0.0,0.0,0.0,0.0,0.0,0.5499,0.5505,0.5413,0.5441,0.5639,0.6338,0.6969,0.7427,0.8851,0.991,1.0349,1.1019,1.1675,1.2312,1.2447,1.2719,1.3196,1.3926,1.4337,1.4381,1.4798,1.5093,1.5307,1.5307,1.5391,1.5591,1.5591,1.5871,1.6346,1.6832,1.7204,1.7632,1.9808,2.0236,1.976,2.1087,2.1259,2.0661,2.0047,1.9707,0.0,0.0,1.8002,1.7846,1.7862,1.7635,1.7458,1.7754,1.7695,1.7695,1.8283,1.8615,0.0,2.025,2.0604,2.1325,2.3828,2.4785,2.5481,2.6702,2.7767,2.8352,2.7903,2.7945,2.8008,2.7887,2.7606,2.7226,2.6726,2.7438,2.7738,2.6998,2.8649,2.9693,2.9243,3.0134,3.0412,2.9619,3.0141,3.0509,3.0422,3.1124,3.2035,3.3265,3.4268,3.5474,3.6927,3.7187,3.7574,3.7995,3.7995,3.8239,3.8667,3.8864,3.9196,3.959,3.9385,3.9292,3.9292,3.9292,3.9292,3.9292,3.9292,3.9292,3.921,3.8255,3.793,3.7995,0.0,0.0,0.0,0.0,0.0,0.0,0.0,0.0,0.0,0.5501,0.0,0.5285,0.6007,0.6175,0.6673,0.7787,0.8594,0.9262,0.9779,1.0325,1.1012,1.1889,1.1683,1.1967,1.2896,1.3511,1.3926,1.4095,1.4705,1.4986,1.4999,1.4999,1.5022,1.5013,1.5013,1.5246,1.5656,1.619,1.6669,1.7173,1.9089,1.9558,1.9277,2.0607,2.0594,1.9782,1.9288,0.0,0.0,1.7564,1.7324,1.7341,1.6898,1.7051,0.0,1.7419,1.7692,1.7991,1.801,0.0,1.9538,2.0618,2.1527,2.2679,2.4712,2.5192,2.5658,2.7238,2.7613,2.7801,2.8286,2.7747,2.7246,2.7226,2.6342,2.5827,2.626,2.613,2.6407,2.7532,2.7753,2.797,0.0,3.0327,3.0686,2.863,2.9325,2.9942,3.0205,3.0228,3.1576,3.444,3.3854,3.4944,3.8026,3.7316,3.7691,3.9264,3.9264,3.9264,3.9264,3.9264,3.9292,3.9292,3.9292,3.9292,3.9292,3.9292,3.9292,3.9292,3.9292,3.9292,3.9269,3.897,3.901,3.9264,0.0,0.0,0.0,0.0,0.0,0.0,0.0,0.0,0.0,0.0,0.0,0.0,0.0,0.0,0.0,0.0,0.8809,0.9477,0.997,1.0158,1.064,1.1469,1.1508,1.1734,1.2227,1.2747,1.3041,1.3101,1.3304,1.3498,1.3659,1.3659,1.3784,1.3987,1.3987,1.4073,1.4268,1.5006,1.5578,1.6108,1.8022,1.8795,1.8864,1.9707,1.9605,1.8886,0.0,0.0,1.7995,1.7092,1.6863,1.6934,1.692,0.0,0.0,1.6855,1.7852,1.8926,1.9181,0.0,2.0447,2.1668,2.241,2.318,2.4449,2.5378,2.6092,2.6413,2.693,2.7198,2.6812,2.6507,2.6302,2.6156,2.5843,2.5764,2.6239,2.6497,2.695,2.7801,2.8195,0.0,0.0,0.0,0.0,2.8209,2.8724,2.9104,2.9206,3.0135,3.1352,3.2888,3.4162,3.5292,3.6356,3.6959,3.7243,3.7309,3.7978,3.8639,3.9292,3.9292,3.9292,3.9292,3.9292,3.9292,3.9292,3.9292,3.9203,3.902,3.902,3.902,3.902,3.893,3.9064,3.9247,0.0,0.0,0.0,0.0,0.0,0.0,0.0,0.0,0.0,0.0,0.0,0.0,0.0,0.0,0.0,0.0,0.0,0.9342,0.9387,0.9494,0.9958,1.0871,1.0592,1.0728,1.1383,1.1664,1.1859,1.2024,1.2126,1.235,1.2719,1.2719,1.2873,1.3195,1.3195,1.3265,1.3472,1.4173,1.4718,1.5221,1.6862,1.7639,1.7875,1.8547,1.8431,0.0,0.0,0.0,1.7034,1.6472,1.6376,1.648,1.6447,1.6377,1.6402,1.6836,1.8066,1.9414,2.0,2.0488,2.1154,2.2533,2.3084,2.3597,2.4636,2.5526,2.6063,2.5923,2.621,2.6367,2.5967,2.5622,2.5472,2.5673,2.5566,2.5739,2.6541,2.6932,2.741,2.8199,2.8594,2.8792,0.0,0.0,0.0,2.8561,2.8817,2.9139,2.9461,3.0375,3.1388,3.245,3.3742,3.4774,3.5474,3.6141,3.6588,3.6845,3.7864,3.8795,3.9617,3.9617,3.9726,3.9943,3.9943,3.9943,3.9943,3.9943,3.983,3.964,3.9447,3.9366,3.9316,3.9011,3.8997,3.9136,0.0,0.0,0.0,0.0,0.0,0.0,0.0,0.0,0.0,0.0,0.0,0.0,0.0,0.0,0.0,0.0,0.0,0.0,0.819,0.8437,0.9065,1.0077,0.9103,0.9127,1.0391,1.0288,1.0447,1.0917,1.1163,1.1571,1.2082,1.2094,1.2241,1.2489,1.2489,1.2732,1.3204,1.3616,1.405,1.4581,1.5618,1.6208,1.652,1.7196,0.0,0.0,0.0,0.0,0.0,1.5682,0.0,0.0,0.0,0.0,1.6882,1.7344,1.8377,1.9569,2.0429,2.0957,2.1626,2.3142,2.3533,2.3908,2.5252,2.5612,2.5654,2.5821,2.5512,2.5315,0.0,0.0,2.4834,2.571,2.5534,2.5752,2.7108,2.7304,2.7697,0.0,0.0,0.0,0.0,0.0,0.0,2.9578,0.0,2.9972,3.0843,3.093,3.1603,3.3053,3.2748,3.3472,3.533,3.4969,3.5739,3.7687,3.8674,3.9492,4.0146,4.01,4.0448,4.1086,4.104,4.104,4.1086,4.1086,4.1086,4.1009,4.0458,4.0241,4.0137,3.9294,3.8989,3.9034,0.0,0.0,0.0,0.0,0.0,0.0,0.0,0.0,0.0,0.0,0.0,0.0,0.0,0.0,0.0,0.0,0.0,0.0,0.8764,0.8749,0.8805,0.8931,0.8935,0.9017,0.9163,0.9114,0.936,0.9884,0.9755,0.996,1.0484,1.0679,1.0814,1.0887,1.1049,1.1193,1.1324,1.1984,1.2994,1.4197,0.0,1.5865,1.6867,0.0,0.0,0.0,0.0,0.0,0.0,0.0,0.0,0.0,0.0,1.7345,1.8225,0.0,0.0,2.0468,2.1329,2.1855,2.241,2.3455,2.4002,2.4449,2.5147,2.557,2.5734,2.5426,2.5271,2.5118,0.0,0.0,0.0,2.5337,2.5863,0.0,2.7195,2.761,0.0,2.8727,0.0,2.8946,2.9294,2.9425,0.0,0.0,3.0537,3.0646,3.0887,3.1236,3.16,3.199,3.2873,3.3298,3.3273,3.3891,3.4831,3.6113,3.6751,3.7953,3.9594,3.8781,3.9387,4.104,4.0186,4.0331,4.1086,4.1086,4.0993,4.0803,4.0641,4.0561,4.0561,4.0329,4.0368,4.0556,0.0,0.0,0.0,0.0,0.0,0.0,0.0,0.0,0.0,0.0,0.0,0.0,0.0,0.0,0.0,0.0,0.0,0.0,0.0,0.8297,0.8395,0.8543,0.8332,0.8357,0.8657,0.8516,0.8577,0.8893,0.8861,0.905,0.9467,0.961,0.9775,0.9949,1.0066,1.0117,1.0179,1.1031,0.0,0.0,0.0,0.0,0.0,0.0,0.0,0.0,0.0,0.0,0.0,0.0,0.0,1.6844,1.7334,1.8003,1.8715,1.9375,0.0,2.1055,2.1934,2.2461,2.2961,2.3868,2.4316,2.4617,2.5081,2.5413,2.5403,2.4683,2.453,0.0,2.3919,2.4224,0.0,0.0,0.0,0.0,2.7217,2.7697,2.8199,0.0,2.8966,0.0,2.9469,2.986,3.027,0.0,3.0733,3.087,3.1189,3.1221,3.1296,3.1424,3.2142,3.2634,3.2804,3.4127,3.5147,3.5854,3.6597,3.7717,3.9057,3.8465,3.9013,4.0425,0.0,4.0544,4.1176,4.168,4.1802,4.1629,4.1386,4.1278,4.1251,4.0958,4.097,4.1063,0.0,0.0,0.0,0.0,0.0,0.0,0.0,0.0,0.0,0.0,0.5967,0.0,0.0,0.0,0.0,0.0,0.0,0.0,0.0,0.0,0.0,0.8378,0.7629,0.7577,0.8378,0.8098,0.7984,0.8053,0.8213,0.8471,0.8771,0.8806,0.9009,0.936,0.0,0.0,0.0,0.0,0.0,0.0,0.0,0.0,0.0,0.0,0.0,0.0,0.0,0.0,0.0,0.0,1.7232,1.735,1.802,1.852,1.9044,1.9903,2.0703,2.1484,2.2342,2.283,2.3341,2.4273,2.4404,2.4471,2.5067,2.5056,2.4667,2.379,0.0,2.3397,2.2961,2.3288,2.3812,2.4399,0.0,2.6278,2.7151,2.7717,2.824,2.8766,2.9203,2.9508,2.9687,3.0381,3.078,3.0594,3.0539,3.0788,3.1454,3.106,3.0952,3.1352,3.1352,3.1983,3.3324,3.4917,3.587,3.6202,3.714,3.7965,3.8589,3.8437,3.8813,3.9648,4.044,4.0843,4.1069,4.2065,4.2557,4.2625,4.2088,4.1994,4.2059,4.152,4.133,4.1307,0.0,0.0,0.0,0.0,0.0,0.0,0.0,0.0,0.0,0.0,0.6426,0.6337,0.0,0.0,0.0,0.0,0.0,0.0,0.0,0.0,0.0,0.7383,0.7618,0.7632,0.7367,0.7193,0.7328,0.7773,0.7432,0.7544,0.8086,0.8308,0.8497,0.0,0.0,0.0,0.0,0.0,0.0,0.0,0.0,0.0,0.0,0.0,0.0,0.0,0.0,0.0,0.0,0.0,1.7885,1.8097,1.9081,1.9808,2.0429,2.1309,2.166,2.1953,2.2771,2.3042,2.3341,2.4273,2.3964,2.374,2.492,2.4293,0.0,0.0,2.2808,2.2524,2.2437,2.2786,2.3416,2.4334,2.5622,2.6606,0.0,0.0,2.8508,0.0,0.0,0.0,0.0,0.0,0.0,0.0,3.0674,3.0566,3.0931,3.0853,3.1227,3.2163,3.2211,3.2822,3.4099,3.4839,3.5355,3.5647,3.6277,3.7098,3.8016,3.7139,3.7774,3.9545,3.8793,0.0,3.9879,4.0084,4.0692,4.1468,4.1363,4.1906,4.2711,4.2629,4.2575,4.2575,0.0,0.0,0.0,0.0,0.0,0.0,0.0,0.6099,0.6522,0.6943,0.6955,0.7,0.7186,0.7116,0.7241,0.0,0.0,0.0,0.0,0.0,0.0,0.0,0.7689,0.7702,0.7515,0.7518,0.0,0.0,0.0,0.0,0.0,0.0,0.0,0.0,0.0,0.0,0.0,0.0,0.0,0.0,0.0,0.0,0.0,0.0,0.0,0.0,0.0,0.0,0.0,0.0,1.7743,1.849,1.9752,2.0372,2.0781,2.1641,2.1915,2.207,2.2888,2.3276,2.3626,2.4337,2.403,2.3701,2.4292,0.0,0.0,0.0,2.1909,2.1778,2.1241,2.2175,0.0,2.3635,2.534,2.6693,0.0,0.0,0.0,0.0,0.0,0.0,0.0,0.0,3.0854,3.0785,3.0547,3.0521,3.0776,3.1035,3.1534,3.2318,3.285,3.3519,3.4298,3.5066,3.5613,3.591,3.619,3.6553,3.7066,3.6526,3.6877,3.7873,3.7897,3.819,3.8793,3.9956,4.0743,4.1244,4.1842,4.2409,4.2925,4.2925,4.2925,4.29,0.0,0.0,0.0,0.0,0.0,0.0,0.5866,0.6337,0.6824,0.7314,0.7545,0.7682,0.7734,0.7511,0.7461,0.0,0.0,0.0,0.0,0.0,0.0,0.0,0.0,0.7796,0.7901,0.0,0.0,0.0,0.0,0.0,0.0,0.0,0.0,0.0,0.0,0.0,0.0,0.0,0.0,0.0,0.0,0.0,0.0,0.0,0.0,0.0,0.0,0.0,0.0,0.0,1.7365,1.8437,1.9748,2.0293,2.0625,2.1484,2.1738,2.1953,2.2847,2.345,2.3885,2.415,2.3907,2.3576,2.3459,2.266,0.0,0.0,2.1096,2.1062,2.0407,0.0,2.2805,0.0,2.4925,2.6454,2.6863,0.0,0.0,0.0,0.0,0.0,0.0,0.0,0.0,3.0443,3.0496,3.0642,3.0846,3.1296,3.1816,3.2413,3.3241,3.3967,3.4432,3.5358,3.595,3.6305,3.6305,3.6305,3.6305,3.6305,3.6305,3.6359,3.7177,3.7551,3.7684,3.9417,4.0287,4.0591,4.1495,4.2115,4.2557,4.2557,4.2704,4.2876,0.0,0.0,0.0,0.0,0.0,0.0,0.6289,0.6631,0.7227,0.8464,0.8188,0.803,0.8442,0.8108,0.7855,0.0,0.0,0.0,0.0,0.0,0.0,0.0,0.0,0.0,0.0,0.0,0.0,0.0,0.0,0.0,0.0,0.0,0.0,0.0,0.0,0.0,0.0,0.0,0.0,0.0,0.0,0.0,0.0,0.0,0.0,0.0,0.0,0.0,0.0,0.0,0.0,1.764,1.8518,1.9337,2.0156,2.1015,0.0,0.0,2.2769,2.345,2.3718,2.34,2.2978,2.2615,2.2546,0.0,0.0,2.0851,2.0555,2.0347,2.0746,2.1315,2.2149,0.0,0.0,2.5629,2.6512,0.0,0.0,0.0,0.0,0.0,0.0,3.0961,3.0724,3.0417,3.079,3.1047,3.1074,3.1515,3.2108,3.2821,3.3243,3.3922,3.4914,3.5511,3.595,3.6305,3.6305,3.6305,3.6305,3.6305,3.6305,3.6305,3.6413,3.6445,0.0,3.6661,3.7311,3.8216,3.8321,3.9597,4.1344,4.1344,4.199,4.2925,0.0,0.0,0.0,0.0,0.0,0.0,0.6538,0.6918,0.7425,0.8323,0.8404,0.8387,0.8423,0.8389,0.8251,0.7925,0.0,0.0,0.0,0.0,0.0,0.0,0.0,0.0,0.0,0.0,0.0,0.7809,0.0,0.0,0.0,0.0,0.0,0.0,0.0,0.0,0.0,0.0,0.0,0.0,0.0,0.0,0.0,0.0,0.0,0.0,0.0,0.0,0.0,0.0,0.0,0.0,1.707,1.7871,0.0,0.0,2.0996,2.1424,2.2459,2.3448,2.4063,2.3361,2.3062,2.2752,2.2123,0.0,2.04,2.041,2.0238,2.026,2.0807,2.1271,2.1917,2.2942,2.3937,0.0,2.5486,2.6223,0.0,0.0,0.0,0.0,0.0,0.0,3.0825,3.0816,3.1853,3.2468,3.2468,3.266,3.3035,3.3589,3.3917,3.4199,3.4451,3.5179,3.5626,3.5763,3.6141,3.6305,3.6305,3.6305,3.6305,3.6305,3.6305,3.6305,0.0,3.7012,3.7524,3.8029,3.939,4.0414,4.1269,4.1965,4.2533,4.2925,0.0,0.0,0.0,0.0,0.0,0.5869,0.6669,0.7074,0.7524,0.8232,0.8413,0.8455,0.8419,0.8357,0.8235,0.8033,0.7949,0.0,0.0,0.0,0.0,0.0,0.0,0.0,0.0,0.0,0.7995,0.8169,0.8169,0.8182,0.0,0.0,0.0,0.0,0.0,0.0,0.0,0.0,0.0,0.0,0.0,0.0,0.0,0.0,0.0,0.0,0.0,0.0,0.0,0.0,0.0,0.0,0.0,0.0,0.0,0.0,2.0586,2.121,2.209,2.3398,2.4195,2.2934,2.292,2.2868,0.0,0.0,2.0337,2.0138,2.0091,2.026,2.0807,2.1219,2.1803,2.2645,2.3578,2.4433,2.5083,2.5885,2.6964,0.0,0.0,2.9519,0.0,3.074,3.1048,3.1433,3.2656,3.3495,3.3707,3.3646,3.3714,3.3924,3.4142,3.4233,3.4205,3.4991,3.5488,3.568,3.6114,3.6305,3.6305,3.6305,3.6305,3.6305,3.6305,3.6305,0.0,3.712,3.7418,3.7578,3.9133,3.993,4.0338,4.1145,4.1817,4.2384,0.0,0.0,0.0,0.0,0.0,0.0,0.6693,0.7026,0.7535,0.8467,0.8192,0.8105,0.8635,0.7931,0.7656,0.8237,0.8045,0.0,0.0,0.0,0.0,0.0,0.0,0.0,0.0,0.0,0.8196,0.8791,0.8791,0.8856,0.9002,0.9393,0.0,0.0,0.0,0.0,0.0,0.0,0.0,0.0,0.0,0.0,1.4211,0.0,0.0,0.0,0.0,0.0,0.0,0.0,0.0,0.0,0.0,1.6367,1.7074,0.0,1.9921,2.0801,2.1681,2.3178,2.3966,2.1766,2.2231,2.2706,0.0,2.0413,2.0337,2.0138,2.0091,2.026,2.0807,2.1116,2.1678,2.2811,2.3674,2.4601,2.5722,2.6295,0.0,0.0,0.0,2.8765,2.964,3.0538,3.1433,3.2216,3.2985,0.0,3.4463,3.4255,3.3946,3.3636,3.3607,3.3896,3.4469,3.5102,3.5708,3.6305,3.6305,3.6305,3.6305,3.6305,3.6305,3.6305,3.6305,3.6305,0.0,3.6332,3.6332,3.6332,3.6359,3.7012,3.795,3.795,3.9339,4.1219,0.0,0.0,0.0,0.0,0.0,0.0,0.6706,0.6869,0.7096,0.7572,0.7668,0.7763,0.7933,0.7624,0.7572,0.7997,0.7742,0.0,0.0,0.0,0.0,0.0,0.0,0.0,0.0,0.0,0.8805,0.9153,0.9654,1.0066,1.0356,1.012,1.0284,1.0759,0.0,0.0,0.0,0.0,0.0,0.0,0.0,1.3841,1.4172,0.0,0.0,0.0,0.0,0.0,0.0,0.0,0.0,0.0,0.0,0.0,0.0,1.7673,1.8807,1.9823,2.0391,2.1769,2.2613,2.078,2.1063,2.1503,2.0206,1.992,1.9962,2.0074,2.0091,2.0227,2.0622,2.089,2.1324,2.2248,2.2992,2.3808,0.0,0.0,0.0,2.8455,2.9473,3.0274,0.0,0.0,3.2237,3.298,3.3756,3.4165,3.4227,3.3918,3.372,3.3607,3.3409,3.3523,3.3896,3.4491,3.5102,3.568,3.6091,3.6305,3.6305,3.6305,3.6305,3.6305,3.6305,3.6305,3.6305,3.6305,3.6305,3.6386,3.7096,3.7604,3.8058,3.9597,4.0617,4.1294,0.0,0.0,0.0,0.0,0.0,0.0,0.6756,0.6816,0.6902,0.7205,0.7364,0.7486,0.7583,0.7264,0.7261,0.7852,0.745,0.0,0.0,0.0,0.0,0.0,0.0,0.0,0.7823,0.854,0.9125,0.9522,1.0205,1.0782,1.1191,1.1125,1.1291,1.1627,1.1533,1.1793,0.0,0.0,0.0,0.0,1.334,1.3737,1.4153,0.0,0.0,0.0,0.0,0.0,0.0,0.0,0.0,0.0,0.0,0.0,0.0,0.0,1.7812,1.873,0.0,2.0904,2.1812,2.0239,2.053,2.0959,2.0094,1.9779,1.9757,1.9965,2.0058,2.0194,2.0537,2.0708,2.1069,2.1916,2.2641,2.3456,0.0,0.0,0.0,2.8263,0.0,0.0,0.0,3.1822,3.2613,3.3332,3.3973,3.4283,3.4114,3.3692,3.3466,3.3466,3.3381,3.3551,3.3952,3.4547,3.5157,3.5735,3.6118,3.6305,3.6305,3.6305,3.6305,3.6305,3.6305,3.6305,0.0,3.6305,3.6305,3.6386,3.7039,3.7402,3.7732,3.9337,4.0364,4.1002,0.0,0.0,0.0,0.0,0.0,0.0,0.0,0.6802,0.6866,0.7192,0.7181,0.7243,0.7486,0.6836,0.6765,0.7719,0.7186,0.0,0.0,0.0,0.0,0.0,0.0,0.0,0.7729,0.8474,0.9232,0.9962,1.0603,1.1158,1.1666,1.2334,1.2458,1.2114,1.2672,1.2833,0.0,0.0,0.0,0.0,1.3301,1.3717,0.0,0.0,0.0,0.0,0.0,0.0,0.0,0.0,0.0,0.0,0.0,0.0,0.0,0.0,0.0,0.0,0.0,2.04,2.1333,1.9996,2.039,2.0907,2.0273,1.9891,0.0,1.9882,1.9993,2.0178,2.0504,2.0573,2.0896,2.1829,2.2627,2.3518,0.0,2.5728,0.0,0.0,2.9044,0.0,3.0459,3.1614,3.2635,3.3402,3.3855,3.4086,3.4058,3.3494,3.3203,3.3175,3.3494,3.3924,3.4497,3.5102,3.5708,3.6305,3.6305,3.6305,3.6305,3.6305,3.6305,0.0,3.6305,3.6305,3.6305,3.6305,3.6305,3.6305,3.635,3.6622,3.7077,3.7756,3.8975,4.0403,0.0,0.0,0.0,0.0,0.0,0.0,0.0,0.0,0.0,0.0,0.6599,0.6612,0.6672,0.6333,0.6314,0.0,0.0,0.0,0.0,0.0,0.0,0.0,0.0,0.0,0.7861,0.8975,0.9879,1.0519,1.1638,1.2459,1.3029,1.3148,1.3112,1.2923,1.301,1.2973,0.0,0.0,0.0,0.0,1.3001,1.3477,0.0,0.0,0.0,0.0,1.5396,1.5342,0.0,0.0,0.0,0.0,0.0,0.0,0.0,0.0,1.6765,1.7074,1.803,0.0,1.9903,1.8715,1.9206,1.9872,0.0,1.9498,1.9693,1.9867,0.0,1.9996,2.0113,2.0266,2.0691,2.1688,2.267,2.3739,2.4946,0.0,0.0,2.9203,2.9841,3.0663,3.1747,3.2131,3.2845,3.4155,3.4162,3.3974,3.3749,3.3381,3.3069,3.2812,3.3784,3.4379,3.4497,3.5102,3.5708,3.6305,3.6305,3.6305,3.6305,3.6305,3.6305,3.6305,3.6305,3.6305,3.6305,3.6305,3.6305,3.635,3.6714,3.6892,3.7169,3.854,3.9585,4.0454,0.0,0.0,0.0,0.0,0.0,0.0,0.0,0.0,0.0,0.0,0.6415,0.6406,0.6406,0.6212,0.6296,0.0,0.0,0.0,0.0,0.0,0.0,0.0,0.0,0.8672,0.8222,0.938,1.0282,1.0879,1.1908,1.2831,1.3647,1.3735,1.3661,1.3422,1.3138,1.2962,0.0,0.0,0.0,1.2915,1.2915,0.0,0.0,0.0,0.0,0.0,1.5342,1.5298,0.0,1.5452,1.5504,1.5527,0.0,0.0,0.0,0.0,1.6707,1.6882,1.7757,1.8693,1.9281,1.8717,1.9079,1.9592,1.9603,0.0,0.0,0.0,0.0,1.9793,1.996,2.0354,2.0896,2.178,2.2947,0.0,0.0,0.0,2.8884,2.9342,2.9971,3.09,0.0,3.2286,3.2861,3.4196,3.4058,3.3749,3.3438,3.3126,3.3012,3.3097,3.4015,3.4497,3.4497,3.5378,3.5982,3.6305,3.6305,3.6305,3.6305,3.6305,3.6305,3.6305,3.6305,3.6305,3.6305,3.6305,3.6442,3.6645,3.6892,3.7305,3.7888,3.8991,3.9924,4.0805,0.0,0.0,0.0,0.0,0.0,0.0,0.0,0.0,0.0,0.0,0.0,0.0,0.0,0.0,0.0,0.0,0.0,0.0,0.0,0.0,0.0,0.0,0.8975,0.9055,0.8818,0.9732,1.0521,1.1178,1.1952,1.2786,1.3682,1.4079,1.408,1.3706,1.3214,1.2961,0.0,0.0,1.2915,1.2915,1.2915,0.0,0.0,0.0,0.0,0.0,0.0,0.0,0.0,1.5509,1.5475,1.5401,1.5657,0.0,0.0,0.0,0.0,0.0,1.7835,1.8599,1.9099,1.9032,1.9324,1.9672,1.9936,0.0,0.0,0.0,0.0,0.0,0.0,2.0642,0.0,0.0,0.0,0.0,2.693,2.7917,2.8628,2.9149,2.9992,0.0,3.2173,3.2404,3.2919,3.4022,3.3805,3.3494,3.3211,3.2869,3.2983,3.3579,3.4183,3.4525,3.4636,3.5735,3.6305,3.6305,3.6305,3.6305,3.6305,3.6305,3.6305,3.6305,0.0,0.0,3.6305,3.6305,3.6576,3.7007,3.7099,3.7747,3.8672,3.9299,4.0193,4.118,0.0,0.0,0.0,0.0,0.0,0.0,0.0,0.0,0.0,0.0,0.0,0.0,0.0,0.0,0.0,0.0,0.0,0.0,0.0,0.0,0.0,0.9588,0.9236,0.9256,0.9779,1.0058,1.0627,1.1517,1.237,1.2919,1.3138,1.4146,1.4349,1.3867,1.3555,1.3216,1.2915,1.2915,1.2915,1.2915,1.2915,0.0,0.0,0.0,0.0,0.0,0.0,0.0,0.0,1.5342,1.5715,1.5983,1.5589,0.0,0.0,0.0,0.0,0.0,1.8169,1.8852,1.9015,1.8355,1.8892,1.9483,1.9101,0.0,0.0,0.0,0.0,0.0,0.0,2.1086,2.1977,0.0,0.0,2.622,0.0,0.0,2.8965,3.005,0.0,3.1343,3.2216,3.2866,3.3477,3.4043,3.3805,3.3494,3.3211,3.2869,3.2983,3.3579,3.4183,3.4769,3.5268,3.5954,3.6305,3.6305,3.6305,3.6305,3.6305,3.6305,3.6305,3.6305,0.0,3.6305,3.6305,3.6305,3.6576,3.7053,3.7494,3.8045,3.8718,3.9699,4.0508,4.1263,0.0,0.0,0.0,0.0,0.0,0.0,0.0,0.0,0.0,0.0,0.0,0.0,0.0,0.0,0.0,0.0,0.0,0.0,0.0,0.0,0.9602,1.0259,1.0025,1.0002,1.0328,1.0738,1.1372,1.2251,1.3128,1.3654,1.3814,1.4466,1.4495,1.3981,1.3653,1.3281,1.2915,1.2915,1.2915,1.2915,0.0,0.0,0.0,0.0,0.0,0.0,0.0,0.0,0.0,0.0,1.5342,1.5533,1.5341,0.0,0.0,0.0,0.0,0.0,1.7991,1.8404,1.8584,1.8809,1.9699,2.0589,2.0876,0.0,0.0,0.0,0.0,0.0,0.0,0.0,2.3101,2.4779,0.0,2.694,2.8166,2.8613,2.9107,0.0,0.0,3.1406,3.2216,3.2794,3.332,3.379,3.3551,3.3239,3.2955,3.2784,3.3126,3.4043,3.4379,3.4963,3.5872,3.6145,3.6305,3.6305,3.6305,3.6305,3.6305,3.6305,3.6305,3.6305,0.0,3.6305,3.6327,3.6576,3.6989,3.7494,3.8022,3.8527,3.9041,3.9556,4.0312,4.1183,0.0,0.0,0.0,0.0,0.0,0.0,0.0,0.0,0.0,0.0,0.0,0.0,0.0,0.0,0.0,0.0,0.0,0.0,0.0,0.9185,0.9592,1.0659,1.0759,1.0846,1.0968,1.1512,1.2222,1.31,1.385,1.4405,1.4762,1.4749,1.4482,1.3987,1.364,1.3281,1.2915,1.2915,1.2942,1.3079,0.0,0.0,0.0,0.0,0.0,0.0,0.0,0.0,0.0,0.0,0.0,0.0,0.0,0.0,0.0,1.6613,1.6863,1.7054,1.7913,1.8147,1.8429,1.9617,2.031,2.104,2.222,0.0,0.0,0.0,0.0,0.0,0.0,2.306,0.0,2.6291,2.6931,2.7463,2.8254,2.8781,2.9241,2.9696,3.0653,3.1506,3.2108,3.2715,3.3176,3.348,3.3324,3.304,3.2727,3.2841,3.3388,3.4469,3.4636,3.524,3.6305,3.6305,3.6305,3.6305,3.6305,3.6305,3.6305,3.6305,3.6305,3.6305,3.6305,3.6373,3.6484,3.6847,3.7374,3.8051,3.8436,3.8908,3.9349,3.9383,4.0112,4.1122,0.0,0.0,0.0,0.0,0.0,0.0,0.0,0.0,0.0,0.0,0.0,0.0,0.0,0.0,0.0,0.0,0.0,0.0,0.0,0.9608,1.0015,1.0672,1.1107,1.1586,1.2069,1.225,1.2893,1.4016,1.438,1.49,1.5495,1.4903,1.4308,1.3711,1.3581,1.3281,1.2915,1.2915,1.3118,1.3464,1.3496,0.0,0.0,0.0,0.0,0.0,0.0,0.0,0.0,0.0,0.0,0.0,0.0,0.0,1.6691,1.7207,1.736,1.7536,1.8342,1.8559,1.8913,2.0423,1.9894,0.0,2.1182,2.1324,0.0,0.0,0.0,0.0,0.0,2.453,2.5897,2.6498,2.7306,2.8007,2.8504,0.0,2.944,2.9917,3.1028,3.1755,3.1852,3.2873,3.3452,3.3239,3.3211,3.304,3.2727,3.3239,3.384,3.4491,3.5046,3.5653,3.6305,3.6305,3.6305,3.6305,3.6305,3.6305,3.6305,3.6305,3.6305,3.6305,3.6305,3.6553,3.6961,3.6984,3.7604,3.8527,3.8573,3.8909,3.9391,3.9402,4.0154,4.1174,0.0,0.0,0.0,0.0,0.0,0.0,0.0,0.0,0.0,0.0,0.0,0.6806,0.7551,0.0,0.0,0.0,0.0,0.0,0.0,0.9451,0.9842,1.0655,1.1587,1.1991,1.1825,1.2447,1.3322,1.4472,1.4976,1.5465,1.5903,1.509,1.4441,1.3934,1.3627,1.3418,1.3262,1.3262,1.3516,1.3913,1.4199,1.4451,0.0,0.0,0.0,0.0,0.0,0.0,0.0,0.0,1.5514,1.5792,1.5683,1.6137,1.6726,1.6918,1.7168,1.7516,1.8069,1.8721,1.9469,2.0452,0.0,0.0,0.0,0.0,0.0,0.0,0.0,0.0,0.0,0.0,2.6651,2.7589,2.8192,2.8752,2.9212,2.9692,2.9995,3.0,3.107,3.1797,3.1797,3.2748,3.3296,3.3211,3.3033,3.2812,3.2698,3.3268,3.3896,3.4469,3.5102,3.568,3.6305,3.6305,3.6305,3.6305,3.6305,3.6305,3.6305,3.6305,3.6305,3.6327,3.6599,3.6824,3.7053,3.7724,3.8229,3.8619,3.8918,3.9157,3.9301,3.9026,3.984,4.1101,0.0,0.0,0.0,0.0,0.0,0.0,0.0,0.0,0.6668,0.0,0.0,0.0,0.0,0.7749,0.0,0.0,0.0,0.0,0.9188,0.9308,0.9711,1.0477,1.1581,1.1971,1.1611,1.2572,1.3652,1.486,1.5595,1.5965,1.5994,1.5181,1.4615,1.4235,1.3847,1.3698,1.3698,1.3698,1.3932,1.4342,1.4668,1.4793,0.0,0.0,0.0,0.0,0.0,0.0,0.0,0.0,1.5422,1.5694,1.578,1.6219,1.6746,1.7019,1.7344,1.767,1.8048,1.8663,1.9397,0.0,0.0,0.0,0.0,0.0,0.0,0.0,0.0,0.0,0.0,0.0,0.0,0.0,2.8792,2.9295,2.9555,2.9968,3.0229,3.002,3.0989,3.1661,3.1661,3.2497,3.304,3.304,3.2812,3.2698,3.2698,3.3445,3.4071,3.4469,3.5268,3.5872,3.6305,3.6305,3.6305,3.6305,3.6305,3.6305,3.6305,3.6305,3.6305,3.6327,3.6778,3.7099,3.7305,3.8229,3.8694,3.8849,3.917,3.9101,3.878,3.8459,3.9324,4.057,0.0,0.0,0.0,0.0,0.0,0.0,0.0,0.0,0.6861,0.6732,0.7004,0.0,0.0,0.0,0.0,0.0,0.0,0.0,0.8871,0.9272,0.9682,1.0068,1.0937,1.1447,1.1581,1.265,1.3853,1.5198,1.6207,1.6395,1.5781,1.5123,1.4729,1.4598,1.4255,1.41,1.4114,1.4114,1.4381,1.4799,1.4799,1.4959,1.52,0.0,0.0,0.0,0.0,0.0,0.0,0.0,1.5284,1.5552,1.6414,1.6707,1.6882,1.7737,1.8008,1.8076,1.8414,1.8414,1.8651,0.0,0.0,0.0,0.0,0.0,0.0,0.0,0.0,2.6602,2.6602,0.0,0.0,2.7949,2.8915,2.9622,2.9362,2.9704,2.9994,2.9994,3.0801,3.1408,3.1408,3.2188,3.2698,3.2698,3.2698,3.2698,3.2698,3.3847,3.4497,3.4497,3.568,3.6305,3.6305,3.6305,3.6305,3.6305,3.6305,3.6305,3.6305,3.6305,3.6305,3.6327,3.6801,3.7305,3.7839,3.8367,3.8872,3.9308,3.9308,3.8688,3.7821,3.7821,3.8592,3.9622,0.0,0.0,0.0,0.0,0.0,0.0,0.0,0.0,0.7224,0.7568,0.7666,0.0,0.0,0.0,0.0,0.0,0.0,0.0,0.8871,0.9321,0.9717,1.0068,1.1165,1.1595,1.1263,1.2622,1.3902,1.5061,1.6166,1.6286,1.5497,1.5025,1.4785,1.4724,1.4295,1.427,1.459,1.459,1.4844,1.5215,1.5215,1.5211,1.52,0.0,0.0,0.0,0.0,0.0,0.0,0.0,0.0,0.0,1.6187,1.6695,1.7246,1.75,1.7773,1.8076,1.8414,1.9437,0.0,2.0818,0.0,0.0,0.0,0.0,0.0,0.0,0.0,2.6685,2.7016,0.0,0.0,2.861,2.9099,2.9568,3.001,3.0021,2.9994,2.9994,3.0559,3.1056,3.1367,3.1899,3.2346,3.2677,3.2698,3.2898,3.3324,3.4071,3.4692,3.5129,3.59,3.6305,3.6305,3.6305,3.6305,3.6305,3.6305,3.6305,3.6305,3.6305,3.6488,3.6801,3.7333,3.7862,3.839,3.8895,3.917,3.9262,3.8941,3.8619,3.8413,3.8789,3.9437,4.0201,0.0,0.0,0.0,0.0,0.0,0.0,0.737,0.7516,0.7713,0.8034,0.8121,0.8214,0.0,0.0,0.0,0.8301,0.8239,0.0,0.8675,0.9308,0.9773,0.9969,1.1011,1.1615,1.1657,1.3107,1.4128,1.4639,1.5522,1.5684,1.5156,1.4902,1.4975,1.5302,1.5019,1.5039,1.5322,1.5322,1.5346,1.5396,1.5396,1.5328,1.5215,0.0,0.0,0.0,0.0,0.0,0.0,0.0,0.0,0.0,1.5925,1.6484,1.71,1.7422,1.7742,1.8205,1.9127,2.0035,0.0,2.1799,2.3017,2.4199,2.5097,0.0,0.0,0.0,0.0,2.7063,2.7639,2.8053,0.0,2.917,2.955,2.9844,3.0193,3.0099,2.9994,2.9994,3.0408,3.0864,3.1367,3.1747,3.2173,3.2657,3.2698,3.2955,3.3579,3.4183,3.4797,3.5378,3.5982,3.6305,3.6305,3.6305,3.6305,3.6305,3.6305,3.6305,3.6305,3.6484,3.6736,3.7053,3.7793,3.839,3.8895,3.917,3.9308,3.9262,3.878,3.8459,3.8292,3.8419,3.911,4.0126,0.0,0.0,0.7478,0.7478,0.0,0.0,0.7703,0.8013,0.8229,0.8239,0.8408,0.851,0.0,0.0,0.0,0.8209,0.8209,0.8286,0.8452,0.9322,0.9829,0.9862,1.0741,1.167,1.263,1.3844,1.4336,1.4069,1.4564,1.4799,1.4799,1.4838,1.5302,1.6085,1.6085,1.6085,1.6085,1.6046,1.5796,1.5396,1.5396,1.5342,1.523,1.5342,0.0,0.0,0.0,0.0,0.0,0.0,0.0,0.0,1.5666,1.6084,1.6583,1.7438,1.7879,1.8466,2.0218,2.0445,0.0,2.2847,2.343,0.0,2.5525,2.6518,2.7161,2.751,0.0,2.7592,2.825,2.8736,2.9195,2.961,3.0071,3.0261,3.0047,2.9994,2.9994,2.9994,3.0367,3.0849,3.1346,3.1726,3.216,3.2657,3.2698,3.2983,3.3643,3.4211,3.4803,3.5461,3.6009,3.6305,3.6305,3.6305,3.6305,3.6305,3.6305,3.6305,3.6327,3.6805,3.7053,3.7214,3.8229,3.8895,3.9308,3.9308,3.9308,3.9262,3.8711,3.8206,3.7752,3.7256,3.8144,3.9597,0.0,0.0,0.7262,0.7262,0.0,0.0,0.7889,0.8224,0.848,0.8582,0.8633,0.8602,0.8445,0.8291,0.0,0.8342,0.8353,0.8531,0.892,0.9575,1.0067,1.034,1.1541,1.2696,1.3806,1.3677,1.364,1.3794,1.4468,1.4799,1.4799,1.5117,1.5581,1.6085,1.6085,1.6085,1.6081,1.5718,1.5493,1.5396,1.5396,1.5381,1.5357,1.5269,1.5215,0.0,0.0,0.0,0.0,0.0,0.0,0.0,1.5666,1.5796,1.6041,1.7326,1.8146,1.8929,2.0318,2.1466,0.0,0.0,2.4535,2.5685,2.586,2.6702,2.7445,2.7384,2.7795,2.8136,2.8025,2.8861,2.9496,2.9397,2.9787,3.0073,3.002,2.9994,2.9994,2.9994,3.0077,3.047,3.1326,3.1491,3.1857,3.2636,3.2698,3.3161,3.4239,3.4413,3.4969,3.6064,3.625,3.6305,3.6305,3.6305,3.6305,3.6305,3.6305,3.6305,3.6327,3.6805,3.7443,3.8275,3.8895,3.9216,3.9308,3.9308,3.9308,3.9216,3.8298,3.7885,3.7791,3.7722,3.8498,3.9725,0.0,0.0,0.0,0.0,0.0,0.0,0.0,0.0,0.87,0.8704,0.8643,0.8572,0.8449,0.8363,0.0,0.0,0.8435,0.8662,0.9174,0.9703,1.0313,1.104,1.2241,1.3035,1.3375,1.3464,1.3424,1.3315,1.3887,1.4331,1.4615,1.4721,1.5283,1.6176,1.6135,1.6085,1.6065,1.5835,1.562,1.5396,1.5396,1.5396,1.5381,1.5328,1.5298,1.5298,1.5298,0.0,0.0,0.0,0.0,0.0,0.0,0.0,1.6507,1.7519,1.8148,1.8956,2.0873,0.0,0.0,2.3639,0.0,2.6076,2.592,2.6715,2.7428,2.7309,2.7758,2.8206,2.8411,2.9015,2.9578,2.9786,2.9907,2.9994,2.9994,2.9994,2.9994,2.9994,2.9994,3.0263,3.0994,3.1263,3.1671,3.2326,3.283,3.353,3.4463,3.4747,3.535,3.6277,3.6305,3.6305,3.6305,3.6305,3.6305,3.6305,3.6305,3.6557,3.704,3.7265,3.7953,3.8941,3.9193,3.9308,3.9308,3.9308,3.9308,3.9239,3.8459,3.816,3.8154,3.7933,3.8742,4.0025,0.0,0.0,0.0,0.0,0.0,0.0,0.0,0.0,0.0,0.8714,0.8582,0.85,0.85,0.8439,0.8424,0.0,0.0,0.0,0.9276,0.9866,1.0713,1.1915,1.282,1.3163,1.2863,1.3397,1.3478,1.3037,1.3352,1.3808,1.4407,1.4351,1.5017,1.6271,1.615,1.6085,1.6085,1.6007,1.5757,1.5396,1.5396,1.5396,1.5396,1.5396,1.5396,1.5396,1.5396,1.5396,1.5469,1.5948,0.0,0.0,0.0,0.0,1.7165,1.778,1.8227,1.9044,2.1337,0.0,2.2243,2.4052,2.5213,0.0,2.5897,2.6623,2.7309,2.7309,2.7724,2.825,2.8823,2.9245,2.9668,3.0224,3.0151,2.9994,2.9994,2.9994,2.9994,2.9994,2.9994,3.018,3.0636,3.1139,3.1567,3.1974,3.2994,3.3868,3.4491,3.5074,3.568,3.6277,3.6305,3.6305,3.6305,3.6305,3.6305,3.6305,3.6305,3.6833,3.7793,3.7793,3.8344,3.9308,3.9308,3.9308,3.9308,3.9308,3.9308,3.9262,3.878,3.8596,3.8556,3.8005,3.8847,4.0296,0.0,0.0,0.0,0.0,0.0,0.0,0.0,0.0,0.0,0.0,0.8582,0.85,0.85,0.849,0.8531,0.8653,0.8771,0.901,0.9373,0.0,0.0,1.3023,1.3234,1.3627,1.4306,1.3917,1.3674,1.3602,1.3527,0.0,0.0,0.0,0.0,1.6135,1.612,1.6085,1.6065,1.5679,1.5469,1.5396,1.5396,1.5396,1.5396,1.5396,1.5396,1.5396,1.5396,1.5396,1.5469,1.5948,1.5968,0.0,0.0,0.0,1.7018,1.7905,1.8832,1.9862,2.0998,0.0,2.3367,0.0,2.5213,2.5897,0.0,0.0,2.7309,0.0,2.8119,2.8798,2.8661,2.9541,3.0224,3.0078,3.002,2.9994,2.9994,2.9994,2.9994,2.9994,2.9994,3.018,3.0636,3.1139,3.1567,3.1974,3.2994,3.3868,3.4491,3.5074,3.568,3.6277,3.6305,3.6305,3.6305,3.6305,3.6305,3.6305,3.6305,3.6833,3.7793,3.7793,3.8344,3.9308,3.9308,3.9308,3.9308,3.9308,3.9308,3.9262,3.878,3.8596,3.8556,3.8005,3.8847,4.0296,0.0,0.0,0.0,0.0,0.0,0.0,0.0,0.0,0.0,0.0,0.0,0.8747,0.8516,0.8572,0.8663,0.8802,0.9244,0.985,1.064,1.1433,1.2208,1.2926,1.3052,1.3267,1.3633,1.3305,1.3294,1.3592,1.3445,0.0,0.0,1.5165,1.5571,0.0,0.0,1.5718,1.5684,1.5488,1.5396,1.5396,1.5396,1.5688,1.6079,1.5591,1.5708,0.0,0.0,0.0,1.5508,1.6211,1.6383,1.6437,1.7112,0.0,0.0,0.0,1.8865,1.9747,2.1283,2.2478,2.3473,0.0,2.5213,2.5897,2.5897,2.6623,2.7309,2.7309,2.8108,2.8732,2.8607,2.9476,3.0151,3.002,2.9994,2.9994,2.9994,2.9994,2.9994,2.9994,2.9994,3.0077,3.0284,3.0973,3.1491,3.165,3.3161,3.4211,3.4469,3.5405,3.6009,3.6305,3.6305,3.6305,3.6305,3.6305,3.6305,3.6305,3.6553,3.7081,3.7821,3.8091,3.8619,3.9308,3.9308,3.9308,3.9308,3.9308,3.9308,3.9285,3.9078,3.8987,3.8964,3.8734,3.9535,4.0744,0.0,0.0,0.0,0.0,0.0,0.0,0.0,0.0,0.0,0.0,0.0,0.8902,0.8625,0.0,0.0,0.0,0.9586,1.0505,1.1714,1.2187,1.2524,1.2786,1.2915,1.2927,1.2847,1.2774,1.2929,1.3289,1.3439,0.0,1.4643,1.5273,1.5659,0.0,1.5645,0.0,0.0,0.0,0.0,1.5586,1.5688,1.6118,1.6629,0.0,0.0,1.6761,1.5898,0.0,0.0,0.0,0.0,1.7015,1.7824,1.8245,0.0,0.0,0.0,0.0,0.0,0.0,2.3035,2.3929,2.4964,2.5751,0.0,0.0,2.7309,0.0,2.7907,2.8458,2.8562,2.9373,2.9994,2.9994,2.9994,2.9994,2.9994,2.9994,2.9994,2.9994,2.9994,2.9994,2.9994,3.0745,3.1339,3.1579,3.3286,3.4443,3.4719,3.5735,3.6305,3.6305,3.6305,3.6305,3.6305,3.6305,3.6305,3.6305,3.6782,3.726,3.7816,3.8372,3.8849,3.9308,3.9308,3.9308,3.9308,3.9308,3.9239,3.9124,3.9124,3.9033,3.8947,3.9215,4.0002,4.0921,0.0,0.0,0.0,0.0,0.0,0.0,0.0,0.0,0.0,0.0,0.0,0.8751,0.8869,0.8889,0.8913,0.8994,0.961,1.06,1.1987,1.2111,1.2418,1.3053,1.3085,0.0,1.2713,1.2842,1.2842,1.2739,1.3633,1.4081,1.4172,1.5464,1.6081,1.6081,1.6081,1.6065,1.6026,0.0,0.0,1.6105,1.6469,1.6668,1.6746,0.0,0.0,0.0,0.0,0.0,0.0,0.0,0.0,0.0,0.0,0.0,0.0,0.0,0.0,0.0,0.0,2.1412,0.0,2.3015,2.426,0.0,0.0,0.0,2.7309,2.7309,2.7634,2.8065,2.85,2.9373,2.9994,2.9994,2.9994,2.9994,2.9994,2.9994,2.9994,2.9994,2.9994,2.9994,2.9994,3.0455,3.1127,3.2108,3.3204,3.4257,3.53,3.5954,3.6305,3.6305,3.6305,3.6305,3.6305,3.6305,3.6305,3.6305,3.6782,3.726,3.7816,3.8372,3.8849,3.9308,3.9308,3.9308,3.9308,3.9308,3.9033,3.8648,3.8648,3.835,3.8004,3.903,3.9799,4.0504,0.0,0.0,0.0,0.0,0.0,0.0,0.0,0.0,0.0,0.0,0.0,0.0,0.0,0.89,0.9096,0.96,1.0615,1.1666,1.2744,1.2677,1.2767,1.3154,1.2956,1.2835,1.2842,1.27,1.2835,1.3206,1.3459,1.3911,1.457,1.5307,1.5816,1.6085,1.6085,1.6085,1.6065,1.5586,0.0,0.0,1.6738,1.7288,0.0,0.0,0.0,0.0,0.0,0.0,0.0,0.0,0.0,0.0,0.0,0.0,0.0,0.0,0.0,0.0,0.0,0.0,0.0,2.2436,2.3557,2.455,2.5273,2.6188,2.6957,2.7247,2.7614,2.8045,2.85,2.9125,2.9642,2.9953,2.9994,2.9994,2.9994,2.9994,2.9994,2.9994,2.9994,2.9994,2.9994,3.0732,3.1486,3.2141,3.3508,3.4645,3.5383,3.5954,3.6305,3.6305,3.6305,3.6305,3.6305,3.6305,3.6305,3.6305,3.7104,3.7609,3.7816,3.8665,3.9147,3.9308,3.9308,3.9308,3.9285,3.8964,3.8734,3.8579,3.8206,3.7982,3.7911,3.9014,3.978,4.0454,0.0,0.0,0.0,0.9377,0.0,0.9114,0.9514,0.948,0.9468,0.9613,0.0,0.0,0.0,0.0,0.9779,1.0629,1.148,1.2324,1.3142,1.3053,1.3029,1.3166,1.2956,1.2822,1.2822,1.27,1.2823,1.3238,1.3323,1.3775,0.0,1.5213,1.5718,1.6085,1.615,1.6229,0.0,0.0,0.0,1.6047,0.0,0.0,1.8648,0.0,0.0,0.0,0.0,0.0,0.0,0.0,0.0,0.0,0.0,0.0,0.0,0.0,0.0,0.0,2.0279,0.0,0.0,0.0,2.2729,2.3577,2.5087,2.5792,2.6353,2.7143,2.7513,2.7841,2.8272,2.8752,2.927,2.9891,2.9994,2.9994,2.9994,2.9994,2.9994,2.9994,2.9994,2.9994,2.9994,3.0769,3.1609,3.2443,3.3678,3.4764,3.5658,3.6064,3.6305,3.6305,3.6305,3.6305,3.6305,3.6305,3.6305,3.6305,3.7339,3.7793,3.7816,3.8849,3.9308,3.9308,3.9308,3.9308,3.9262,3.878,3.8481,3.8304,3.793,3.7816,3.7988,3.9234,4.0073,4.0772,0.9403,0.9475,0.961,1.0011,1.0081,1.0075,1.0092,0.9824,0.9722,1.0052,0.0,0.0,0.0,0.0,0.0,1.2026,1.2122,1.2437,1.3142,1.315,1.3109,1.3109,1.3097,1.2988,1.272,1.2842,1.2842,1.272,1.3257,1.3717,0.0,0.0,1.5841,1.612,1.6241,1.6447,1.6722,0.0,1.7002,1.7106,0.0,1.9333,1.9859,0.0,0.0,0.0,1.9565,1.9354,0.0,1.9824,0.0,0.0,0.0,0.0,0.0,0.0,0.0,0.0,0.0,0.0,0.0,0.0,0.0,0.0,2.5193,2.5461,2.5542,2.6954,2.7268,2.7389,2.7817,2.8272,2.8893,2.9829,2.9994,2.9994,2.9994,2.9994,2.9994,2.9994,2.9994,2.9994,3.002,3.0521,3.1477,3.301,3.3683,3.4694,3.6208,3.6305,3.6305,3.6305,3.6305,3.6305,3.6305,3.6305,3.6305,3.6305,3.7339,3.7793,3.7816,3.8849,3.9308,3.9308,3.9308,3.9285,3.9239,3.8757,3.8252,3.7793,3.777,3.7844,3.8128,3.9701,4.0696,4.1344,0.9336,0.9087,0.9059,0.9696,0.966,0.9631,0.9967,0.9945,0.9945,0.0,0.0,0.0,1.0526,1.1393,1.2067,1.2349,1.2932,1.3251,1.3194,1.3182,1.3178,1.3178,1.3029,1.3064,1.327,1.2929,1.2929,1.3289,1.3711,1.3997,1.4133,1.5048,1.5689,0.0,1.6241,1.6524,1.6888,1.6618,0.0,0.0,1.9269,1.9658,0.0,0.0,0.0,0.0,0.0,2.043,2.0703,0.0,2.0409,1.9788,0.0,0.0,0.0,0.0,0.0,0.0,1.9351,0.0,0.0,0.0,0.0,0.0,2.3039,2.3598,2.424,2.5939,2.6291,2.6623,2.7693,2.8272,2.8814,2.9394,2.9766,2.9994,2.9994,2.9994,2.9994,2.9994,2.9994,3.0151,3.0547,3.1064,3.2048,0.0,3.4261,3.5089,3.6236,3.6305,3.6305,3.6305,3.6305,3.6305,3.6305,3.6305,3.6305,3.6305,3.7339,3.7793,3.7816,3.8849,3.9308,3.9308,3.9308,3.9101,3.8734,3.8229,3.7907,3.7747,3.7351,3.775,3.8634,3.9849,4.0696,4.1344,0.965,0.9491,0.9429,0.9802,0.9872,0.9978,1.0256,1.0289,1.041,0.0,0.0,0.0,1.1595,1.2735,1.3442,1.3392,1.3635,1.3688,1.3421,1.3205,1.3069,1.3069,1.3113,1.3262,1.3483,1.3361,1.3439,1.3756,1.3997,1.4192,1.44,1.4978,1.5449,1.5831,1.598,1.6457,0.0,0.0,0.0,0.0,1.9535,0.0,0.0,2.1016,2.1509,0.0,0.0,0.0,2.1542,2.1873,2.1154,0.0,0.0,0.0,0.0,0.0,0.0,0.0,0.0,0.0,0.0,0.0,0.0,0.0,2.2791,2.3267,2.3826,2.6022,2.6478,2.6726,2.7489,2.8007,2.8458,2.8938,2.9415,2.9766,2.9973,2.9994,2.9994,2.9994,2.9994,3.0209,3.0733,3.1296,3.2167,3.3563,3.4383,3.5244,3.6236,3.6305,3.6305,3.6305,3.6305,3.6305,3.6305,3.6305,3.6305,3.6305,3.7339,3.7793,3.7816,3.8849,3.9308,3.9308,3.9308,3.9033,3.8602,3.8252,3.7999,3.777,3.7701,3.8382,3.9469,4.0332,4.1158,4.199,0.0,1.0225,1.0247,1.0209,1.0535,1.0822,1.0927,1.0957,1.1188,0.0,1.1571,1.1889,1.3311,1.4248,1.4719,1.464,1.4277,1.3952,1.3745,1.3276,1.2998,1.2986,1.3326,1.3567,1.3652,1.3938,1.4133,1.4172,1.4172,1.44,1.4799,1.4984,1.5172,1.541,1.5604,1.6277,1.7233,0.0,0.0,1.8475,1.9472,2.0457,0.0,0.0,2.1743,2.2262,2.2446,2.2305,2.2129,2.2773,2.2076,0.0,0.0,0.0,0.0,0.0,1.9539,0.0,0.0,0.0,0.0,0.0,0.0,0.0,2.3309,2.3515,2.3764,2.6312,2.683,2.6871,2.6954,2.7365,2.7796,2.8148,2.8768,2.9415,2.9932,2.9994,2.9994,2.9994,3.0047,3.0287,3.0836,3.1377,3.2134,3.3211,3.4295,3.529,3.6236,3.6305,3.6305,3.6305,3.6305,3.6305,3.6305,3.6305,3.6305,3.6305,3.7339,3.7793,3.7816,3.8849,3.9308,3.9308,3.9308,3.9033,3.8596,3.8671,3.8372,3.7907,3.8372,3.9185,4.0235,4.0682,4.1621,4.2704,0.9449,0.9722,1.0159,1.0721,1.1112,1.1599,1.2361,1.2556,1.2739,1.3039,1.2957,1.3287,1.4377,1.4535,1.4662,1.4903,1.4933,1.464,1.3917,1.3766,1.3663,1.3563,1.3629,1.3932,1.4525,1.425,1.4303,1.4668,1.4668,1.4721,1.4799,1.5165,1.5346,1.541,1.5604,1.6203,1.7065,0.0,0.0,1.9535,2.0141,0.0,2.0367,2.1965,2.2514,2.2445,2.248,2.2654,2.2812,2.2432,2.2102,2.1689,0.0,0.0,0.0,0.0,0.0,0.0,0.0,0.0,0.0,0.0,0.0,0.0,2.1137,2.1654,2.2439,2.3743,2.4012,2.4198,2.4922,2.573,2.6185,2.5914,2.7466,2.9042,2.987,2.9994,2.9994,2.9994,3.0391,3.0836,3.1399,3.1913,3.2673,3.3754,3.4775,3.5634,3.6259,3.6305,3.6305,3.6305,3.6305,3.6305,3.6305,3.6305,3.6305,3.6305,3.7339,3.7793,3.7816,3.8849,3.9308,3.9308,3.9308,3.9033,3.8619,3.901,3.8872,3.839,3.8068,3.8615,3.9519,3.9255,4.0175,4.1544,0.9572,1.0017,1.0472,1.0749,1.1486,1.2206,1.2677,1.3027,1.3305,1.3477,1.377,0.0,0.0,0.0,0.0,1.543,1.5329,1.4994,1.4387,1.4142,1.3972,1.3906,1.4116,1.4423,1.478,1.4771,1.4869,1.5098,1.5098,1.5098,1.5098,1.5312,1.5513,1.5757,1.5846,1.6414,0.0,0.0,1.7999,1.9736,2.0175,0.0,2.1115,2.2276,2.2722,2.281,2.281,2.2947,2.3045,2.2701,2.2174,0.0,0.0,2.1311,2.1015,0.0,2.0579,2.0943,0.0,0.0,0.0,2.0652,0.0,0.0,0.0,2.1983,2.248,2.3598,2.3846,2.397,2.4404,2.488,2.5295,2.5523,2.6703,2.7866,2.8549,2.9415,2.9994,2.9994,3.0469,3.0991,3.1553,3.2091,3.2963,3.4297,3.4877,3.5497,3.6259,3.6305,3.6305,3.6305,3.6305,3.6305,3.6305,3.6305,3.6419,3.6668,3.7425,3.793,3.8206,3.8964,3.9308,3.9308,3.9308,3.917,3.8941,3.8941,3.8803,3.855,3.8298,3.8545,3.9107,3.9384,4.0205,4.1269,1.0005,1.0656,1.102,1.0853,1.1809,1.2615,1.2642,1.3061,1.352,1.3903,1.4406,0.0,0.0,0.0,0.0,0.0,1.5764,1.5424,1.4925,1.4679,1.4461,1.4271,1.4604,1.4852,1.4959,1.5249,1.5396,1.5396,1.5488,1.5527,1.5527,1.5527,1.5777,0.0,0.0,0.0,0.0,0.0,0.0,1.994,0.0,2.1055,2.21,2.2484,2.283,2.3101,2.3101,2.3101,2.3081,2.3003,2.2324,2.1605,2.211,2.1846,0.0,0.0,0.0,0.0,0.0,0.0,0.0,0.0,0.0,2.1317,0.0,0.0,0.0,2.3784,2.397,2.397,0.0,0.0,0.0,2.4881,0.0,0.0,0.0,2.8122,0.0,2.9456,3.0341,3.1056,3.1316,3.1901,3.2904,3.4451,3.4529,3.4965,3.6016,3.6208,3.6305,3.6305,3.6305,3.6305,3.6305,3.6305,3.653,3.7007,3.754,3.8068,3.8625,3.9078,3.9308,3.9308,3.9308,3.9262,3.9147,3.8757,3.8459,3.8298,3.8298,3.8311,3.8476,3.9484,4.0285,4.1044,1.0544,1.1283,1.1671,1.1589,1.2179,1.2706,1.2768,1.3077,1.3759,0.0,0.0,0.0,0.0,0.0,0.0,0.0,0.0,0.0,1.532,1.5804,1.5776,1.4927,1.4835,1.5046,1.5583,1.5463,1.5396,1.5396,1.5816,1.6026,1.6026,1.6026,1.6246,0.0,1.7244,0.0,0.0,0.0,1.9777,0.0,2.1066,2.1412,0.0,2.2752,2.3062,2.3101,2.3101,2.3101,2.3042,0.0,2.2587,2.2502,0.0,2.229,2.2982,2.1905,0.0,0.0,0.0,0.0,0.0,0.0,2.2585,0.0,0.0,0.0,2.2418,2.217,0.0,2.2108,0.0,0.0,0.0,0.0,0.0,0.0,2.4238,2.5454,2.6664,2.7517,2.991,3.1229,3.0524,3.1242,3.2316,3.3623,3.3579,3.3994,3.5172,3.5916,3.6305,3.6305,3.6305,3.6305,3.6305,3.6305,3.653,3.7007,3.754,3.8068,3.8625,3.9078,3.9308,3.9308,3.9308,3.9055,3.8665,3.8596,3.8045,3.7191,3.7191,3.7206,3.7271,3.7947,3.8842,3.993,0.951,1.0183,1.0672,1.0618,1.1446,1.2295,1.278,1.3499,1.4431,0.0,0.0,0.0,0.0,0.0,0.0,0.0,0.0,1.6619,0.0,0.0,0.0,1.5544,1.5405,1.5441,1.5677,1.5767,1.5816,1.5816,1.623,1.6344,1.612,1.6344,1.6547,0.0,1.7929,0.0,1.881,0.0,2.0181,0.0,0.0,0.0,0.0,2.3135,2.3515,2.3493,2.3363,2.3319,2.3382,0.0,2.3406,0.0,0.0,0.0,0.0,0.0,0.0,0.0,0.0,0.0,0.0,0.0,0.0,0.0,2.2281,0.0,2.2045,0.0,0.0,0.0,0.0,0.0,0.0,0.0,2.2956,0.0,0.0,0.0,2.6193,2.7117,0.0,0.0,3.0611,3.1333,3.2252,3.3507,3.3394,3.3833,3.505,3.5866,3.6305,3.6305,3.6305,3.6305,3.6305,3.6305,3.6695,3.7471,3.7678,3.8206,3.901,3.9216,3.9308,3.9285,3.901,3.878,3.855,3.793,3.7397,3.6984,3.6714,3.6959,3.7618,3.855,3.9597,4.0692,0.9018,0.9617,1.0172,1.0057,1.0957,1.1871,1.245,1.3425,1.4475,0.0,0.0,0.0,1.7108,1.6693,0.0,0.0,1.7217,1.7037,0.0,0.0,1.6544,1.6034,1.6038,0.0,1.5957,1.6168,1.6222,1.6085,1.6641,1.668,1.6265,1.6683,1.6957,1.7113,0.0,1.936,1.9696,0.0,2.052,2.1076,2.0542,2.1163,2.2516,2.3085,2.3422,2.3477,2.3014,2.2958,2.3204,2.3935,2.369,0.0,2.5035,0.0,0.0,0.0,0.0,0.0,2.3554,0.0,0.0,0.0,0.0,0.0,0.0,0.0,0.0,0.0,0.0,0.0,0.0,0.0,0.0,0.0,0.0,2.3213,0.0,2.4334,0.0,0.0,0.0,0.0,0.0,3.0882,3.1498,3.2768,3.2864,3.3417,3.4717,3.5771,3.6305,3.6305,3.6305,3.6305,3.6305,3.6305,3.681,3.7793,3.7793,3.8321,3.9308,3.9308,3.9239,3.9078,3.8734,3.8413,3.8114,3.7328,3.6915,3.6755,3.6442,3.715,3.8453,3.9287,4.0287,4.1344,0.9779,1.0465,1.0899,1.0703,1.1181,1.1608,1.1639,1.2444,1.3414,0.0,0.0,0.0,0.0,0.0,0.0,0.0,0.0,1.8009,1.6943,0.0,1.8003,0.0,0.0,1.684,0.0,1.6638,1.6488,1.6085,1.6966,1.7148,1.6687,1.7168,1.7578,1.8008,1.9098,1.9693,1.9938,2.0508,2.1124,2.1675,2.1655,2.2222,2.3001,0.0,2.2426,2.2783,2.1598,0.0,0.0,2.2818,2.2987,2.3095,2.4285,0.0,0.0,0.0,0.0,0.0,0.0,0.0,0.0,2.3597,0.0,0.0,0.0,0.0,2.3259,0.0,0.0,0.0,0.0,0.0,0.0,0.0,0.0,0.0,0.0,0.0,0.0,0.0,0.0,0.0,0.0,2.9366,2.9419,0.0,3.1465,3.2427,3.396,3.5484,3.6305,3.6305,3.6305,3.6305,3.6305,3.6305,3.681,3.7793,3.7793,3.8321,3.9308,3.9308,3.9055,3.8596,3.8625,3.8022,3.7053,3.703,3.6736,3.6327,3.6305,3.7631,3.9545,3.9571,4.0287,4.1344,0.9732,1.0112,1.0371,1.0318,0.0,1.1399,1.2443,1.33,0.0,0.0,0.0,0.0,0.0,1.7461,1.742,0.0,0.0,1.8148,1.746,1.7622,0.0,0.0,0.0,1.7267,0.0,0.0,1.7641,1.6966,1.7751,1.7794,1.7168,1.773,1.7648,1.7065,0.0,1.9032,0.0,0.0,0.0,0.0,0.0,2.0767,2.1024,0.0,2.1989,2.2405,2.2082,2.2096,2.2363,2.3033,2.3163,2.3224,2.4224,2.4257,2.4104,2.4947,2.5042,2.4971,2.5509,2.5943,2.5929,2.4596,0.0,0.0,0.0,0.0,0.0,0.0,0.0,0.0,0.0,0.0,0.0,0.0,0.0,0.0,0.0,0.0,0.0,0.0,0.0,0.0,0.0,0.0,0.0,0.0,3.1997,0.0,3.4223,3.5565,3.6305,3.6305,3.6305,3.6305,3.6305,3.6305,3.681,3.7793,3.7793,3.8321,3.9308,3.9308,3.9033,3.8602,3.8206,3.7678,3.6984,3.6668,3.6438,3.6305,3.6305,3.7658,3.9597,3.9597,4.0743,4.2409,1.0083,1.0468,1.0698,1.0454,0.0,0.0,1.2789,0.0,0.0,0.0,1.5955,0.0,1.7854,0.0,1.7937,0.0,1.8467,1.8313,1.7775,1.7778,0.0,1.7501,1.7803,0.0,0.0,0.0,0.0,0.0,1.8293,1.8237,1.7419,1.7742,1.7477,1.6779,0.0,1.8337,1.8995,1.8798,1.9217,0.0,0.0,1.967,0.0,0.0,2.1246,2.1854,2.1511,2.154,2.184,2.2554,2.2777,2.3015,2.4549,2.4746,2.4667,2.5859,2.5856,2.5594,2.6142,2.6443,2.6335,2.522,2.4886,0.0,2.3449,0.0,2.3452,0.0,0.0,0.0,0.0,0.0,0.0,0.0,0.0,0.0,0.0,2.3916,0.0,0.0,0.0,0.0,0.0,0.0,0.0,0.0,0.0,0.0,0.0,3.5237,3.6012,3.6282,3.6305,3.6305,3.6305,3.6305,3.681,3.7793,3.7793,3.8321,3.9308,3.9308,3.8941,3.8304,3.793,3.7402,3.6736,3.6415,3.6305,3.6359,3.6715,3.8003,3.9597,3.9597,4.102,4.2922,1.0832,1.1495,1.1852,1.1239,1.2169,0.0,0.0,0.0,1.4771,0.0,1.5856,1.6555,1.7276,1.7641,1.7976,1.8303,1.8614,1.8519,1.7896,1.8506,0.0,0.0,1.8227,1.8522,1.8138,0.0,0.0,0.0,0.0,1.8375,1.7444,1.7237,1.7149,1.7116,1.6991,0.0,1.8854,1.8343,1.8756,1.9712,1.8573,1.9011,2.0241,1.9701,2.0232,2.1088,2.0015,2.002,2.0642,2.1404,2.1861,2.2543,2.5012,2.5834,2.6211,2.7762,2.7878,2.7395,2.7161,2.6852,2.6436,2.5607,2.5491,2.5308,2.4283,0.0,2.5287,0.0,0.0,0.0,0.0,0.0,0.0,0.0,0.0,0.0,0.0,0.0,0.0,0.0,0.0,0.0,0.0,0.0,0.0,0.0,0.0,0.0,0.0,3.4551,3.5435,3.6282,3.6305,3.6305,3.6305,3.6305,3.681,3.7793,3.7793,3.8321,3.9308,3.9285,3.8734,3.7793,3.7747,3.7224,3.6305,3.6305,3.6305,3.639,3.7471,3.861,3.9674,3.9725,4.1095,4.2925,1.1628,1.2294,1.2852,0.0,1.3001,1.3272,0.0,0.0,0.0,0.0,1.6937,1.7562,1.7985,1.8351,1.8566,1.8662,1.8757,0.0,0.0,0.0,0.0,1.843,1.8593,1.8634,1.8479,1.8463,0.0,1.8807,0.0,0.0,1.79,1.712,1.6473,1.5929,0.0,0.0,1.7069,1.7028,1.7595,1.8566,1.8652,1.8831,1.9106,1.9444,1.9775,2.0056,2.0214,2.0487,2.0822,2.1037,2.1547,2.2165,2.2652,2.2953,2.3495,2.5275,2.5567,2.5727,2.7726,2.7702,2.7259,2.7741,2.7233,2.6596,2.6523,2.656,2.655,0.0,0.0,0.0,0.0,0.0,0.0,0.0,0.0,0.0,0.0,0.0,0.0,2.5769,0.0,0.0,0.0,0.0,0.0,0.0,0.0,0.0,3.436,3.436,3.489,3.6259,3.6305,3.6305,3.6305,3.6305,3.681,3.7793,3.7793,3.8321,3.9285,3.8941,3.8413,3.777,3.7379,3.6874,3.6305,3.6305,3.6305,3.639,3.7471,3.908,4.0894,4.1718,4.2409,4.2925,1.196,1.2831,0.0,1.439,0.0,0.0,1.4933,1.5481,0.0,1.6873,1.7572,0.0,1.8271,1.853,1.8682,1.8682,1.855,0.0,1.84,0.0,0.0,1.84,1.8441,1.8408,1.838,1.8418,0.0,1.8339,0.0,0.0,1.7289,1.6404,1.5806,1.5504,0.0,1.557,1.6221,1.6822,1.7614,1.8495,1.8834,1.8944,0.0,1.9794,1.9992,1.9918,2.059,2.0796,2.0745,2.0873,2.1343,2.1996,2.2477,2.2885,2.3654,2.585,2.628,2.6517,2.8621,2.8731,2.8386,2.8976,2.8588,2.8071,2.8023,2.7817,2.7542,2.7352,2.7309,2.7182,2.6827,0.0,0.0,0.0,0.0,0.0,0.0,0.0,0.0,0.0,2.5364,0.0,0.0,0.0,0.0,0.0,0.0,0.0,0.0,3.3442,3.438,3.5615,3.5841,3.6075,3.6305,3.6075,3.6553,3.7793,3.7793,3.8321,3.9285,3.8803,3.8298,3.7747,3.7214,3.6736,3.6305,3.6305,3.6305,3.6445,3.8029,4.0007,4.2014,4.2655,4.2925,4.2925,1.2224,1.3362,0.0,0.0,0.0,0.0,0.0,1.6355,0.0,1.7323,0.0,1.8247,1.8385,1.8502,1.859,1.8637,0.0,1.8264,1.8071,1.8195,1.8226,1.8048,1.8095,1.8124,1.8148,1.8401,1.8121,0.0,0.0,0.0,1.6298,1.5505,1.5237,0.0,0.0,0.0,0.0,1.7259,1.8135,1.8882,1.9042,1.9189,1.9421,2.0357,2.0487,2.0318,2.1088,2.1037,2.0709,2.0972,2.145,2.2113,2.3374,2.4156,2.502,2.7386,2.789,2.7985,2.9296,2.9444,2.9292,2.9593,2.9597,2.9423,2.9132,2.8851,2.8554,2.8151,2.7851,2.7721,2.7941,2.6949,0.0,0.0,0.0,0.0,0.0,0.0,0.0,0.0,0.0,0.0,0.0,0.0,0.0,0.0,0.0,0.0,0.0,3.2244,3.3771,3.4969,3.5405,3.5795,3.619,3.5795,3.6323,3.7701,3.7747,3.8321,3.9285,3.8734,3.8229,3.7747,3.7145,3.6691,3.6305,3.6305,3.6472,3.6931,3.8845,4.097,4.2925,4.2925,4.2925,4.2925,1.345,0.0,0.0,0.0,0.0,1.619,1.6695,1.6863,1.7134,1.7726,1.7812,1.8079,1.8801,1.8894,1.9011,1.9307,1.9468,0.0,0.0,0.0,0.0,1.8907,1.8444,1.83,1.8499,1.7561,1.7382,0.0,0.0,0.0,1.6362,1.5229,1.4898,0.0,0.0,0.0,1.7233,1.7559,0.0,1.8754,1.907,1.9461,1.9905,2.0117,2.0451,2.0848,2.142,2.1573,2.1545,2.1933,2.2421,2.2954,2.3547,2.379,2.4123,2.5411,2.5637,2.597,2.8334,2.8325,2.8142,3.0074,3.0096,2.9783,3.0351,3.024,3.0039,2.9929,2.9724,2.9311,2.8628,2.766,0.0,0.0,0.0,0.0,0.0,0.0,0.0,0.0,0.0,2.632,0.0,0.0,0.0,0.0,0.0,0.0,3.1869,3.1683,3.2853,3.5937,3.6121,3.5979,3.5657,3.5979,3.6484,3.7145,3.7586,3.8321,3.9285,3.8344,3.7913,3.7747,3.6805,3.6373,3.6305,3.6305,3.7364,3.9054,3.9442,4.097,4.2925,4.2925,4.2925,4.2925,0.0,0.0,0.0,0.0,0.0,0.0,0.0,1.722,1.7605,1.7957,1.8064,1.8318,1.8901,1.9007,1.9072,1.9094,1.9094,1.902,1.8913,1.8873,1.8873,1.8888,1.8478,1.8315,1.8437,1.7678,1.7364,1.7589,0.0,0.0,1.5768,1.4792,0.0,1.4807,0.0,1.6394,0.0,0.0,1.8384,1.901,1.9618,1.9959,2.0127,2.0855,2.1329,2.1687,2.2228,2.2551,2.2745,2.2729,2.3029,2.346,2.3836,2.3973,2.4195,2.5495,2.6215,2.702,2.8865,2.9435,2.9803,3.0931,3.0944,3.0734,3.0944,3.0801,3.0568,3.0417,3.0203,2.9803,2.9095,2.8202,2.757,2.7612,0.0,0.0,0.0,0.0,0.0,0.0,0.0,0.0,0.0,0.0,0.0,0.0,0.0,0.0,3.0767,3.1226,3.2697,3.5428,3.5749,3.5887,3.591,3.6167,3.6695,3.7425,3.7953,3.8596,3.9262,3.8252,3.7793,3.7724,3.6741,3.6305,3.6305,3.6305,3.7604,3.9597,3.9597,4.097,4.2925,4.2925,4.2925,4.2925,0.0,1.476,0.0,0.0,1.6191,1.6495,1.6696,1.7407,1.7953,1.8098,1.8317,1.8603,1.9023,1.9082,1.9058,1.891,1.881,1.8785,1.8825,1.8735,1.8735,1.8825,1.8552,1.8408,1.8408,1.8086,1.7652,0.0,0.0,0.0,1.5245,1.4661,0.0,0.0,0.0,0.0,1.7834,1.8178,1.8725,1.9466,2.0148,2.0421,2.055,2.1706,2.228,2.2537,2.3047,2.3477,2.3768,2.3433,2.3545,2.388,2.4203,2.434,2.4592,2.6073,2.7141,2.8116,2.944,3.0453,3.1197,3.1373,3.1424,3.1373,3.1163,3.0905,3.0672,3.0443,3.0203,2.9808,2.9245,2.8624,2.8264,2.8416,0.0,0.0,0.0,0.0,0.0,0.0,0.0,0.0,2.8216,0.0,0.0,0.0,0.0,0.0,2.955,3.102,3.272,3.4739,3.5175,3.5497,3.5822,3.6236,3.6856,3.7632,3.8275,3.8849,3.9262,3.8252,3.7793,3.7724,3.6741,3.6305,3.6305,3.6305,3.7604,3.9597,3.9597,4.097,4.2925,4.2925,4.2925,4.2898,0.0,0.0,0.0,0.0,0.0,1.649,1.6518,1.7317,1.7983,1.8168,1.8271,1.8632,1.945,1.932,1.9304,1.9593,2.0035,2.001,1.9287,1.9686,1.9737,1.9262,1.8931,1.8745,1.8745,1.8423,1.8022,0.0,0.0,1.6214,1.5461,1.5335,1.5739,1.6577,1.6595,1.731,1.8493,1.8361,1.8959,2.0014,2.0096,2.0704,2.1605,2.2079,2.2591,2.3074,2.3494,2.3853,2.4152,2.4118,2.4118,2.422,2.4614,2.4733,2.4982,2.6136,2.6572,2.7087,2.9012,2.9612,2.9874,3.0698,3.0879,3.0879,3.0827,3.0646,3.0417,3.0417,3.0203,2.973,2.8844,2.8948,2.8911,2.8092,0.0,0.0,0.0,0.0,3.2466,3.1042,0.0,0.0,2.8677,2.6473,0.0,0.0,2.7529,0.0,3.0032,3.1204,3.272,3.4739,3.4854,3.4647,3.4211,3.6021,3.6984,3.7099,3.8114,3.8849,3.9262,3.8252,3.7793,3.7724,3.6741,3.6305,3.6305,3.6305,3.7604,3.9597,3.9597,4.097,4.2925,4.2925,4.2925,4.2946,0.0,0.0,0.0,1.5962,0.0,1.637,1.6375,1.7424,1.8175,1.8085,1.881,1.9521,2.0076,2.0056,1.9974,1.9942,2.0138,2.006,1.9583,1.9724,1.9672,1.9324,1.918,1.9107,1.9107,1.876,1.8478,0.0,0.0,0.0,0.0,1.6092,1.6521,1.7466,1.7553,1.7966,1.8607,1.8817,1.9356,2.0138,2.0447,2.1165,2.2114,2.26,2.3182,2.3776,2.3956,2.4237,2.4562,2.4562,2.4562,2.4579,2.475,2.4785,2.5034,2.6182,2.6979,2.7849,2.9355,3.0219,3.0836,3.1193,3.127,3.1193,3.0879,3.0724,3.0542,3.0229,3.0073,2.9891,2.9518,2.9399,2.9404,2.9604,3.0422,0.0,0.0,0.0,0.0,3.2007,0.0,0.0,0.0,2.7506,2.6473,0.0,0.0,2.6772,2.9183,3.0285,3.1616,3.3361,3.4877,3.5316,3.4486,3.6484,3.7494,3.7494,3.8527,3.8964,3.8849,3.8114,3.7476,3.6879,3.6465,3.6305,3.6359,3.6985,3.8163,3.9648,4.0313,4.152,4.2925,4.2925,4.2925,4.297,1.5227,1.5481,1.5728,1.5925,1.629,1.6582,1.6656,1.7726,1.8497,1.8511,1.9379,2.0081,2.0251,2.0179,2.0075,1.9879,1.9931,1.9879,1.9609,1.9661,1.9583,1.9298,1.9376,0.0,1.9428,1.9243,1.9148,1.9035,1.7934,0.0,1.7354,1.6863,1.7239,1.8265,1.8228,1.8434,1.8829,1.9159,1.9609,2.0163,2.0814,2.1564,2.2398,2.3122,2.3741,2.422,2.434,2.4562,2.4785,2.4785,2.4785,2.4785,2.4785,2.4785,2.5034,2.6182,2.7303,2.8462,2.9597,3.0712,3.1604,3.1604,3.1604,3.1501,3.1137,3.0983,3.0776,3.0229,3.0047,2.9994,2.9994,2.9892,2.9984,3.052,3.1089,0.0,0.0,3.2814,0.0,0.0,3.0881,3.0308,3.1341,2.8634,0.0,0.0,2.7415,2.7024,2.9481,3.0285,3.1433,3.3109,3.4926,3.5566,3.5014,3.6851,3.7862,3.8074,3.8895,3.9055,3.8602,3.7885,3.7104,3.6305,3.6305,3.6305,3.6363,3.7444,3.8558,3.9699,4.0768,4.1891,4.2925,4.2925,4.297,4.3187,1.5741,1.6059,1.6279,1.6285,1.6801,1.7295,1.7538,1.8276,1.9008,1.9595,1.9931,2.0009,1.9724,1.948,1.9298,1.9298,1.9558,1.9609,1.9324,1.9558,1.9583,0.0,0.0,1.9698,1.9698,1.9957,2.0071,2.0071,0.0,0.0,1.867,1.7719,1.7931,1.9054,1.8538,1.8682,1.9283,1.9298,1.9609,2.0194,2.1118,2.1826,2.2447,2.3725,2.4203,2.4254,2.4648,2.4785,2.4785,2.4785,2.4785,2.4785,2.4785,2.4785,2.5034,2.6182,2.7303,2.8462,2.9597,3.0712,3.1604,3.1604,3.1604,3.1604,3.1604,3.1399,3.1039,3.0521,3.0183,2.9994,2.9994,3.0443,3.0619,3.0169,3.1398,3.2237,0.0,3.265,0.0,3.1916,3.0262,3.008,3.2282,2.951,0.0,0.0,3.1019,3.0606,3.1686,3.1755,3.2697,3.4716,3.4808,3.5037,3.547,3.7035,3.8045,3.8602,3.9078,3.9055,3.855,3.7489,3.6759,3.6305,3.6305,3.6305,3.6363,3.7444,3.8558,3.9699,4.0768,4.1891,4.2925,4.2925,4.3184,4.3685,1.4077,1.4953,1.568,1.569,1.6665,1.7501,1.7592,1.8117,1.8605,1.8788,1.9605,2.0148,2.0042,1.9911,1.9996,2.0433,2.0527,2.0474,2.02,2.0279,2.0016,1.9338,1.9376,1.9428,1.9428,1.9506,1.9558,1.9558,1.9029,1.8828,1.8966,1.8679,1.8886,1.9501,1.9348,1.9262,1.9312,1.9547,2.0174,2.1107,2.1629,2.2558,2.3637,2.4037,2.4374,2.4631,2.475,2.4785,2.4785,2.4785,2.4785,2.4785,2.4785,2.4785,2.5034,2.6182,2.7303,2.8462,2.9597,3.0712,3.1604,3.1604,3.1604,3.1553,3.1373,3.0987,3.0599,3.0443,3.0203,2.9994,2.9994,3.0443,3.088,3.1088,3.1841,3.2484,3.2759,0.0,3.2513,3.187,3.0675,3.0583,3.2328,3.0308,2.9758,3.187,2.9963,2.9435,3.1157,3.226,3.295,3.3224,3.4926,3.5703,3.5493,3.7035,3.8045,3.8625,3.9078,3.8872,3.8028,3.6989,3.6442,3.6305,3.6305,3.6305,3.6445,3.8295,3.9261,3.9777,4.1644,4.2582,4.2925,4.2925,4.3211,4.3685,1.4005,1.4908,1.5698,1.6013,1.7082,1.7924,1.8055,1.8626,1.9144,1.9354,2.0044,2.0547,2.0547,2.051,2.0623,2.0997,2.1039,2.0959,2.0815,2.0773,2.0522,2.0008,2.0114,2.0167,2.0167,2.0005,1.9945,1.9945,1.943,1.9275,1.946,1.9375,1.9537,1.9893,1.9788,1.9705,1.9652,1.9857,2.0494,2.139,2.1967,2.289,2.3949,2.4292,2.4579,2.4785,2.4785,2.4785,2.4785,2.4785,2.4785,2.4785,2.4785,2.4785,2.4923,2.5651,2.6979,2.8356,2.9071,3.0401,3.1604,3.1604,3.1604,3.1527,3.1245,3.0858,3.0521,3.0417,3.0203,2.9994,2.9994,3.0443,3.1056,3.1792,3.2354,3.289,3.3469,3.3109,3.2628,0.0,3.1224,3.1292,3.2902,3.1866,3.1751,3.3363,3.2008,3.1686,3.2925,3.2627,3.2879,3.3892,3.5634,3.6507,3.6369,3.7517,3.8344,3.8849,3.878,3.8298,3.7471,3.6672,3.6305,3.6305,3.6305,3.6305,3.6472,3.8689,3.9597,3.9828,4.2041,4.2925,4.2925,4.2925,4.3331,4.3974,1.4862,1.5443,1.6021,1.6842,1.7766,1.8501,1.8803,1.9603,2.0393,2.0938,2.1071,2.1124,2.1124,2.1182,2.1197,2.1197,2.1166,2.1166,2.1166,2.1166,2.1151,2.1093,2.1391,2.1569,2.1569,2.1215,2.1017,2.0991,2.0404,2.0121,2.0095,1.9851,1.9885,2.0184,1.9959,1.9959,2.021,2.0267,2.0649,2.1263,2.2222,2.297,2.3579,2.4454,2.4785,2.4785,2.4785,2.4785,2.4785,2.4785,2.4785,2.4785,2.4785,2.4785,2.4785,2.4785,2.6409,2.8196,2.8196,2.9859,3.1604,3.1604,3.1604,3.1527,3.127,3.1008,3.0745,3.0511,3.0245,3.0056,3.0077,3.0548,3.1248,3.228,3.2845,3.3344,3.3882,3.3522,3.3065,3.2559,3.193,3.2201,3.3887,3.3868,3.4413,3.6002,3.6144,3.6144,3.6144,3.2994,3.2764,3.619,3.6782,3.726,3.777,3.8304,3.8757,3.9193,3.8206,3.7494,3.6984,3.6507,3.6305,3.6305,3.6305,3.6359,3.658,3.8715,3.9648,3.993,4.2065,4.2925,4.2925,4.2949,4.3574,4.4537,1.1756,1.3271,1.4594,1.4808,1.6817,1.8585,1.9155,1.9802,2.0404,2.0994,2.1304,2.149,2.149,2.1942,2.2237,2.2237,2.2004,2.1876,2.1876,2.1876,2.1642,2.1109,2.1175,2.1229,2.1229,2.1125,2.0971,2.0771,2.0641,2.0435,2.0165,2.0111,2.0128,2.0202,2.012,2.0137,2.0252,2.097,2.1628,2.2249,2.3197,2.3928,2.4499,2.4723,2.4785,2.4785,2.4785,2.4785,2.4785,2.4785,2.4785,2.4785,2.4785,2.4785,2.4785,2.4785,2.6409,2.8196,2.8196,2.9859,3.1604,3.1604,3.1604,3.1578,3.1527,3.1137,3.0882,3.1195,3.0857,3.0636,3.1015,3.1515,3.21,3.2821,3.2731,3.2777,3.3378,3.3042,3.2627,3.2536,3.2717,3.3311,3.4509,3.4572,3.4549,3.4532,3.4532,3.4532,3.4532,3.3752,3.4211,3.6236,3.6782,3.726,3.777,3.7936,3.8074,3.8137,3.7517,3.7122,3.6984,3.6507,3.6305,3.6305,3.6305,3.6769,3.7631,3.9028,4.0084,4.0944,4.236,4.2925,4.2922,4.3304,4.4157,4.517,1.1364,1.2472,1.3491,1.4003,1.6427,1.8395,1.8748,2.019,2.1368,2.169,2.2044,2.2233,2.2233,2.2558,2.2768,2.2768,2.2623,2.2513,2.2513,2.2513,2.2335,2.1981,2.1966,2.1966,2.1966,2.1716,2.1289,2.0701,2.0701,2.0538,2.021,2.021,2.0283,2.0429,2.0429,2.0517,2.0719,2.1513,2.2178,2.2808,2.3587,2.4256,2.4785,2.4785,2.4785,2.4785,2.4785,2.4785,2.4785,2.4785,2.4785,2.4785,2.4785,2.4785,2.4785,2.4785,2.6409,2.8196,2.8196,2.9859,3.1604,3.1604,3.1778,3.1953,3.1754,3.1584,3.1476,3.1624,3.1312,3.1179,3.1674,3.1993,3.2545,3.3651,3.3246,3.3141,3.4157,3.3453,3.3109,3.3798,3.3935,3.4372,3.5408,3.55,3.5359,3.506,3.5037,3.5037,3.5037,3.5267,3.5772,3.6599,3.687,3.726,3.777,3.7793,3.7678,3.7448,3.7145,3.6892,3.6668,3.6419,3.6305,3.6305,3.6305,3.6904,3.8003,3.9131,4.0236,4.1294,4.2433,4.2925,4.2922,4.3211,4.4144,4.5395,1.1955,1.2282,1.2726,1.3694,1.6213,1.8131,1.8185,2.0639,2.2525,2.2561,2.2803,2.2937,2.2937,2.2937,2.2937,2.2937,2.2994,2.2994,2.2994,2.2994,2.2994,2.2994,2.2994,2.2994,2.2994,2.2441,2.1773,2.0906,2.0878,2.0686,2.0356,2.0356,2.0502,2.0765,2.0765,2.0983,2.1375,2.1974,2.2582,2.3191,2.3781,2.434,2.4785,2.4785,2.4785,2.4785,2.4785,2.4785,2.4785,2.4785,2.4785,2.4785,2.4785,2.4785,2.4785,2.4785,2.6464,2.8274,2.8215,2.9921,3.1713,3.1713,3.211,3.2429,3.2148,3.2153,3.215,3.199,3.1765,3.1786,3.2293,3.2559,3.3106,3.437,3.3821,3.3669,3.4981,3.4096,3.3821,3.5244,3.5175,3.5359,3.6213,3.6305,3.6305,3.6305,3.6305,3.6305,3.6305,3.6691,3.6915,3.7007,3.7076,3.7282,3.7678,3.7678,3.7425,3.6892,3.6892,3.6691,3.6305,3.6305,3.6305,3.6305,3.6305,3.7012,3.824,3.9183,4.0338,4.1569,4.2533,4.2925,4.2925,4.297,4.4032,4.554,1.0935,1.1746,1.2501,1.2847,1.5791,1.8238,1.8637,2.0853,2.2593,2.2895,2.2765,2.2655,2.2655,2.2655,2.2655,2.2655,2.2881,2.2994,2.2994,2.2994,2.2994,2.2994,2.2994,2.2994,2.2994,2.2692,2.232,2.1879,2.1652,2.1369,2.1029,2.1029,2.1086,2.113,2.113,2.1416,2.2002,2.2598,2.3219,2.3809,2.4423,2.4718,2.4785,2.4785,2.4785,2.4785,2.4785,2.4785,2.4785,2.4785,2.4785,2.4785,2.4785,2.4785,2.4785,2.4785,2.6692,2.8691,2.8293,3.0196,3.2263,3.2263,3.2639,3.2988,3.2935,3.255,3.2289,3.2666,3.2696,3.2823,3.3282,3.4217,3.4717,3.4115,3.3614,3.3378,3.3614,3.343,3.3683,3.4785,3.5588,3.6121,3.6282,3.6305,3.6305,3.6305,3.6305,3.6305,3.6305,3.6373,3.6599,3.6984,3.7448,3.7494,3.7122,3.7122,3.6897,3.6419,3.6419,3.6373,3.6305,3.6305,3.6305,3.6305,3.6305,3.7444,3.9339,3.9519,4.0819,4.2655,4.2825,4.2925,4.2973,4.3352,4.4621,4.6232,1.0688,1.1211,1.1693,1.178,1.4993,1.7626,1.7852,2.0653,2.2831,2.299,2.2909,2.2824,2.2824,2.2824,2.2824,2.2824,2.2937,2.2994,2.2994,2.2994,2.2937,2.2796,2.2768,2.2711,2.2513,2.24,2.2173,2.1888,2.1746,2.1533,2.1203,2.1203,2.1203,2.1203,2.1203,2.1546,2.2144,2.2724,2.336,2.3949,2.4562,2.4785,2.4785,2.4785,2.4785,2.4785,2.4785,2.4785,2.4785,2.4785,2.4785,2.4785,2.4785,2.4949,2.5121,2.5121,2.6921,2.9186,3.0475,3.1779,3.277,3.277,3.3141,3.3437,3.3253,3.3333,3.3455,3.3531,3.3658,3.3924,3.4469,3.5019,3.5263,3.4838,3.4396,3.4188,3.444,3.4257,3.4463,3.55,3.6029,3.6305,3.6305,3.6305,3.6305,3.6305,3.6305,3.6305,3.6305,3.653,3.6668,3.6622,3.7127,3.7127,3.6622,3.6622,3.6507,3.6305,3.6305,3.6305,3.6305,3.6305,3.6305,3.6332,3.6931,3.8108,3.9648,4.0236,4.142,4.2925,4.2925,4.2925,4.2949,4.3139,4.4508,4.6349,1.078,1.0927,1.1065,1.1114,1.4204,1.6791,1.7109,2.026,2.2667,2.295,2.2994,2.2994,2.2994,2.2994,2.2994,2.2994,2.2994,2.2965,2.2909,2.2909,2.2824,2.2598,2.2541,2.2371,2.2116,2.2031,2.1917,2.1704,2.1603,2.1432,2.1203,2.1203,2.1203,2.1203,2.1203,2.1603,2.2343,2.2796,2.3444,2.4144,2.4618,2.4785,2.4785,2.4785,2.4785,2.4785,2.4785,2.4785,2.4785,2.4785,2.4853,2.4949,2.4949,2.5206,2.5554,2.585,2.7716,3.0152,3.2475,3.3185,3.3273,3.3273,3.3622,3.3884,3.3581,3.389,3.4227,3.3946,3.4233,3.4636,3.5102,3.5433,3.5532,3.5371,3.5037,3.4923,3.5313,3.5037,3.5175,3.619,3.6305,3.6305,3.6305,3.6305,3.6305,3.6305,3.6305,3.6305,3.6305,3.6645,3.6668,3.6305,3.6645,3.6668,3.6305,3.6305,3.6305,3.6305,3.6305,3.6305,3.6305,3.6305,3.6305,3.6359,3.7418,3.8532,3.9674,4.0768,4.1866,4.2925,4.2925,4.2925,4.2925,4.2925,4.4342,4.63,1.0976,1.1086,1.1228,1.1427,1.3664,1.5883,1.7176,1.9611,2.1716,2.2837,2.2994,2.2994,2.2994,2.2994,2.2994,2.2994,2.2994,2.2909,2.2655,2.2626,2.2626,2.2598,2.2315,2.2144,2.2116,2.186,2.1732,2.1704,2.1375,2.1203,2.1203,2.1203,2.1203,2.1203,2.1203,2.186,2.2937,2.2994,2.3669,2.4729,2.4785,2.4785,2.4785,2.4785,2.4785,2.4785,2.4785,2.4785,2.4785,2.4785,2.5052,2.5354,2.5354,2.5583,2.6094,2.7293,2.9634,3.2044,3.2863,3.3426,3.3748,3.3748,3.4098,3.4385,3.4078,3.3868,3.3607,3.3324,3.3924,3.4497,3.4552,3.5488,3.5929,3.5014,3.4831,3.4808,3.4854,3.4831,3.5175,3.619,3.6305,3.6305,3.6305,3.6305,3.6305,3.6305,3.6305,3.6305,3.6305,3.6327,3.635,3.6305,3.6327,3.6327,3.6305,3.6305,3.6305,3.6305,3.6305,3.6305,3.6305,3.6305,3.6305,3.6359,3.7418,3.8532,3.9674,4.0768,4.1866,4.2925,4.2925,4.2925,4.2925,4.2925,4.4342,4.63,1.1387,1.1417,1.1419,1.1484,1.3683,1.5605,1.6134,1.838,2.0199,2.0659,2.1388,2.1887,2.1887,2.2554,2.2994,2.2994,2.2994,2.2881,2.2626,2.24,2.223,2.2059,2.1717,2.1546,2.1546,2.1432,2.1375,2.1375,2.1275,2.1203,2.1203,2.1203,2.1203,2.1203,2.1575,2.223,2.3022,2.3416,2.4033,2.4785,2.4785,2.4785,2.4785,2.4785,2.4785,2.4819,2.5086,2.5155,2.5189,2.54,2.5571,2.572,2.572,2.5977,2.6649,2.8641,3.0548,3.2128,3.2884,3.3666,3.4223,3.4223,3.4354,3.4395,3.3918,3.4002,3.4121,3.4037,3.4574,3.5185,3.5543,3.5982,3.6075,3.5359,3.5497,3.5611,3.529,3.552,3.5868,3.6259,3.6305,3.6305,3.6305,3.6305,3.6305,3.6305,3.6305,3.6305,3.6305,3.6305,3.6305,3.6305,3.6305,3.6305,3.6305,3.6305,3.6305,3.6305,3.6305,3.6305,3.6305,3.6305,3.6661,3.7337,3.8453,3.9571,4.0667,4.1792,4.2533,4.2925,4.2925,4.2925,4.2976,4.3697,4.4966,4.6405,1.1578,1.1606,1.1641,1.1849,1.357,1.5144,1.5725,1.7489,1.8858,1.9263,2.0056,2.0759,2.1174,2.1943,2.2582,2.2965,2.2994,2.2853,2.2456,2.2059,2.1746,2.1561,2.1318,2.1203,2.1203,2.1203,2.1203,2.1203,2.1203,2.1203,2.1203,2.1203,2.1203,2.1232,2.1831,2.2456,2.305,2.3641,2.4256,2.4785,2.4785,2.4785,2.4802,2.4949,2.5001,2.5035,2.5412,2.5549,2.5583,2.5811,2.5982,2.6085,2.6085,2.6795,2.7955,2.9604,3.1131,3.238,3.2949,3.3579,3.4076,3.4076,3.4185,3.4128,3.3514,3.3789,3.4205,3.4211,3.4714,3.5295,3.59,3.6168,3.619,3.5818,3.6075,3.6167,3.5795,3.6075,3.6305,3.6305,3.6305,3.6305,3.6305,3.6305,3.6305,3.6305,3.6305,3.6305,3.6305,3.6305,3.6305,3.6305,3.6305,3.6305,3.6305,3.6305,3.6305,3.6305,3.6305,3.6305,3.6305,3.6305,3.6688,3.7471,3.895,4.0032,4.0818,4.2286,4.2925,4.2925,4.2925,4.2925,4.3027,4.4187,4.533,4.6457,1.1559,1.1676,1.1988,1.2603,1.3264,1.4341,1.619,1.7044,1.791,1.9118,1.9292,1.9796,2.106,2.1203,2.1687,2.2893,2.2994,2.2724,2.2144,2.1546,2.1203,2.1203,2.1203,2.1203,2.1203,2.1203,2.1203,2.1203,2.1203,2.1203,2.1203,2.1203,2.1203,2.1232,2.1831,2.2456,2.305,2.3669,2.4256,2.4785,2.4802,2.4802,2.4836,2.5269,2.5406,2.5457,2.5777,2.5914,2.5914,2.5914,2.6153,2.652,2.652,2.8159,3.009,3.0099,3.1512,3.3076,3.3076,3.3076,3.3076,3.3098,3.3447,3.3628,3.3023,3.3274,3.3607,3.3607,3.4071,3.4692,3.5295,3.59,3.6305,3.6305,3.6305,3.6305,3.6305,3.6305,3.6305,3.6305,3.6305,3.6305,3.6305,3.6305,3.6305,3.6305,3.6305,3.6305,3.6305,3.6305,3.6305,3.6305,3.6305,3.6305,3.6305,3.6305,3.6305,3.6305,3.6305,3.6305,3.6305,3.6305,3.6332,3.6445,3.8636,3.9597,3.9802,4.1991,4.2925,4.2925,4.2925,4.2925,4.3027,4.4187,4.533,4.6457,1.2311,1.22,1.2303,1.2934,1.3414,1.4043,1.5006,1.5728,1.629,1.6673,1.8231,1.9437,1.9825,2.1416,2.2611,2.2965,2.2994,2.2724,2.2144,2.1546,2.1203,2.1203,2.1203,2.1203,2.1203,2.1203,2.1203,2.1203,2.1203,2.1203,2.1203,2.1203,2.1432,2.186,2.2456,2.3078,2.3669,2.4284,2.4646,2.4819,2.5104,2.5234,2.5241,2.5617,2.5743,2.5794,2.6182,2.6319,2.6371,2.6645,2.6816,2.7,2.7546,2.8807,3.0144,3.0339,3.1431,3.2529,3.2154,3.2066,3.2219,3.2923,3.3207,3.3242,3.2959,3.3489,3.4125,3.4431,3.4997,3.5598,3.62,3.6332,3.6305,3.6305,3.6305,3.6305,3.6305,3.6305,3.6305,3.6305,3.6305,3.6305,3.6305,3.6305,3.6305,3.6305,3.6305,3.6305,3.6305,3.6305,3.6305,3.6305,3.6305,3.6305,3.6305,3.6305,3.6305,3.6305,3.6305,3.6305,3.6305,3.6305,3.715,3.8636,3.9313,4.0465,4.1993,4.3062,4.3278,4.2952,4.3386,4.3278,4.313,4.507,4.601,4.6587,1.2637,1.2625,1.2814,1.3474,1.3863,1.4282,1.4907,1.5324,1.5601,1.5601,1.7337,1.8771,1.9263,2.1102,2.2469,2.2965,2.2909,2.2626,2.2144,2.166,2.1346,2.1218,2.1203,2.1203,2.1203,2.1203,2.1203,2.1203,2.1203,2.1203,2.1203,2.1203,2.1518,2.2144,2.274,2.3424,2.4192,2.4783,2.5093,2.5247,2.5515,2.56,2.5634,2.6011,2.6136,2.617,2.6576,2.6743,2.6747,2.7034,2.7284,2.7599,2.8067,2.9155,3.0294,3.0431,3.1254,3.2022,3.1691,3.1604,3.1735,3.235,3.2682,3.2785,3.2639,3.3361,3.4169,3.4659,3.5218,3.5845,3.6417,3.6413,3.6305,3.6305,3.6305,3.6305,3.6305,3.6305,3.6305,3.6305,3.6305,3.6305,3.6305,3.6305,3.6305,3.6305,3.6305,3.6305,3.6305,3.6305,3.6305,3.6305,3.6305,3.6305,3.6305,3.6305,3.6305,3.6305,3.6305,3.6305,3.6305,3.6305,3.7257,3.8974,3.9641,4.0951,4.2661,4.3458,4.3603,4.3278,4.3386,4.3223,4.3182,4.5459,4.63,4.6639,1.2754,1.3024,1.3444,1.4112,1.4431,1.4838,1.5512,1.5601,1.5601,1.5601,1.6791,1.8085,1.9176,2.0515,2.1801,2.2893,2.274,2.2456,2.2116,2.1831,2.1561,2.1203,2.1203,2.1203,2.1203,2.1203,2.1203,2.1203,2.1203,2.1203,2.1203,2.1203,2.1561,2.2276,2.2815,2.3642,2.467,2.5213,2.5617,2.5914,2.5948,2.5965,2.5999,2.6405,2.6542,2.6623,2.6983,2.7103,2.7103,2.7103,2.7587,2.8209,2.8289,2.9308,3.0508,3.0574,3.1073,3.1604,3.1604,3.1604,3.1604,3.1604,3.2026,3.245,3.2346,3.3128,3.4043,3.4604,3.5135,3.5735,3.6254,3.6332,3.6305,3.6305,3.6305,3.6305,3.6305,3.6305,3.6305,3.6305,3.6305,3.6305,3.6305,3.6305,3.6305,3.6305,3.6305,3.6305,3.6305,3.6305,3.6305,3.6305,3.6305,3.6305,3.6305,3.6305,3.6305,3.6305,3.6305,3.6305,3.6305,3.6305,3.6982,3.8232,3.9806,4.1208,4.2415,4.345,4.3848,4.3739,4.3196,4.2952,4.3182,4.5459,4.63,4.6639,1.3084,1.3354,1.3783,1.4411,1.455,1.4838,1.5512,1.5601,1.5601,1.5601,1.753,1.9003,1.9263,2.1274,2.2724,2.2994,2.274,2.2456,2.2116,2.1831,2.1561,2.1203,2.1203,2.1203,2.1203,2.1203,2.1203,2.1203,2.1203,2.1203,2.1203,2.1203,2.1938,2.3276,2.3419,2.4273,2.5603,2.5719,2.5828,2.5931,2.6251,2.6371,2.6405,2.6829,2.6983,2.6983,2.7069,2.7103,2.7103,2.7103,2.7587,2.8318,2.8927,2.9766,3.0606,3.117,3.1464,3.1604,3.1604,3.1604,3.1604,3.1604,3.2314,3.306,3.3179,3.3936,3.4911,3.5989,3.6499,3.6769,3.6901,3.6576,3.6305,3.6305,3.6305,3.6305,3.6305,3.6305,3.6305,3.6305,3.6305,3.6305,3.6305,3.6305,3.6305,3.6305,3.6305,3.6305,3.6305,3.6305,3.6305,3.6305,3.6305,3.6305,3.6305,3.6305,3.6305,3.6305,3.6305,3.6305,3.6305,3.6305,3.7631,3.9961,4.0349,4.188,4.4147,4.4401,4.4228,4.3794,4.3658,4.3332,4.3182,4.5459,4.63,4.6639,1.3414,1.3803,1.4232,1.453,1.4848,1.5205,1.5542,1.5601,1.5601,1.5601,1.7764,1.9292,1.9292,2.1502,2.2994,2.2994,2.2881,2.2655,2.2371,2.2201,2.205,2.19,2.1726,2.1714,2.192,2.1759,2.1525,2.1203,2.1364,2.1437,2.1452,2.1904,2.2695,2.3798,2.4118,2.497,2.6199,2.6199,2.6302,2.6491,2.6696,2.6794,2.6829,2.7034,2.7103,2.7103,2.7103,2.7103,2.7159,2.7521,2.8137,2.8918,2.9688,3.0415,3.1104,3.1489,3.1604,3.1604,3.1604,3.1604,3.1724,3.2226,3.2778,3.3246,3.3444,3.4449,3.5601,3.636,3.6715,3.6904,3.6904,3.6576,3.6305,3.6305,3.6484,3.6553,3.6327,3.6484,3.6553,3.6327,3.6305,3.6305,3.6305,3.6305,3.6305,3.6305,3.6305,3.6305,3.6305,3.6305,3.6305,3.6305,3.6305,3.6305,3.6305,3.6305,3.6419,3.6622,3.6419,3.6719,3.7499,3.7499,3.9031,4.1722,4.2004,4.3258,4.5098,4.4827,4.4501,4.4149,4.3603,4.3506,4.3928,4.5644,4.6983,4.8093,1.3654,1.4202,1.459,1.459,1.5156,1.5601,1.5601,1.5601,1.5601,1.5601,1.7764,1.9292,1.9292,2.1502,2.2994,2.2994,2.3041,2.296,2.2692,2.2738,2.2751,2.2696,2.2375,2.2363,2.2677,2.2378,2.192,2.1379,2.1642,2.1789,2.1818,2.2675,2.345,2.4134,2.4812,2.5675,2.6593,2.6593,2.6812,2.7103,2.7103,2.7103,2.7103,2.7103,2.7103,2.7103,2.7103,2.7103,2.7215,2.7935,2.8728,2.9536,3.0275,3.1011,3.1604,3.1604,3.1604,3.1604,3.1604,3.1604,3.1867,3.2922,3.3334,3.3562,3.3922,3.5066,3.6191,3.6514,3.6712,3.6816,3.6909,3.6638,3.6465,3.6534,3.6874,3.6961,3.6511,3.6759,3.6824,3.635,3.6305,3.6305,3.6305,3.6305,3.6305,3.6305,3.6305,3.6305,3.6305,3.6305,3.6305,3.6305,3.6305,3.635,3.6419,3.6419,3.6645,3.7122,3.6934,3.759,3.8945,3.9137,4.0668,4.318,4.3677,4.4546,4.5533,4.4963,4.4637,4.4447,4.3308,4.3618,4.4758,4.6114,4.7934,4.9693,1.3684,1.4202,1.459,1.459,1.5156,1.5601,1.5601,1.5601,1.5601,1.5601,1.7764,1.9292,1.9292,2.1502,2.2994,2.2994,2.3263,2.3323,2.305,2.3315,2.3369,2.3136,2.281,2.2647,2.2692,2.2378,2.217,2.2052,2.2126,2.2125,2.214,2.2796,2.3619,2.4529,2.5218,2.609,2.7034,2.7034,2.7052,2.7103,2.7103,2.7103,2.7103,2.7103,2.7103,2.7103,2.7103,2.7103,2.7215,2.7935,2.8728,2.9536,3.0275,3.1011,3.1604,3.1604,3.1604,3.1604,3.1604,3.1604,3.1867,3.2922,3.3889,3.4837,3.5791,3.6192,3.664,3.7586,3.7361,3.718,3.7653,3.728,3.7053,3.7517,3.7632,3.7517,3.6984,3.6961,3.6824,3.635,3.6305,3.6305,3.6305,3.6305,3.6305,3.6305,3.6305,3.6305,3.6305,3.6305,3.6305,3.6305,3.6305,3.6484,3.6892,3.6915,3.7145,3.7706,3.8682,3.929,3.9554,4.0591,4.2046,4.3782,4.386,4.4546,4.5533,4.4963,4.4393,4.3848,4.3169,4.3618,4.4862,4.6983,4.8599,4.9693,1.3933,1.4321,1.465,1.4858,1.5275,1.5601,1.5601,1.5601,1.5857,1.6555,1.8202,1.9581,2.0286,2.1943,2.3073,2.3263,2.3393,2.3539,2.3641,2.3799,2.3897,2.3982,2.3653,2.3474,2.3475,2.3155,2.288,2.2696,2.252,2.2432,2.2463,2.3642,2.4449,2.4911,2.5957,2.6661,2.7103,2.7103,2.7103,2.7103,2.7103,2.7103,2.7103,2.7103,2.7103,2.7103,2.7103,2.7103,2.7271,2.8465,2.9106,2.9589,3.0762,3.1344,3.1604,3.1604,3.1604,3.1604,3.1604,3.2035,3.2752,3.3841,3.4889,3.5949,3.707,3.7295,3.7445,3.7899,3.7759,3.7637,3.7872,3.7655,3.7517,3.7747,3.7793,3.7609,3.7076,3.7007,3.6824,3.635,3.6305,3.6305,3.6305,3.6305,3.6305,3.6305,3.6305,3.6305,3.6305,3.6305,3.6419,3.6691,3.6691,3.6943,3.7448,3.8124,3.8717,3.9212,4.1106,4.1652,4.1052,4.2245,4.3728,4.5341,4.5341,4.5442,4.5533,4.4963,4.4339,4.3739,4.3142,4.398,4.5853,4.8093,4.9266,4.9693]},{"header":{"parameterUnit":"m.s-1","parameterCategory":1,"la1":30.6,"la2":28.766,"lo1":-90.7593,"lo2":-88.6598,"dy":0.0162,"dx":0.0183,"nx":116,"ny":114,"refTime":"2024-03-24T12:00:00:Z","depth":0,"parameterNumber":3,"parameterNumberName":"V-component_of_WINDS"},"data":[0.0,0.0,0.0,0.0,0.0,0.0,0.0,0.0,0.0,0.0,0.0,0.0,0.0,0.0,0.0,0.0,0.0,0.0,0.0,0.0,0.0,0.0,0.0,0.0,0.0,0.0,0.0,0.0,0.0,0.0,0.0,0.0,0.0,0.0,0.0,0.0,0.0,0.0,0.0,0.0,0.0,0.0,0.0,0.0,0.0,0.0,0.0,0.0,0.0,0.0,0.0,0.0,0.0,0.0,0.0,0.0,0.0,0.0,0.0,0.0,0.0,0.0,0.0,0.0,0.0,0.0,0.0,0.0,0.0,0.0,0.0,0.0,0.0,0.0,0.0,0.0,0.0,0.0,0.0,0.0,0.0,0.0,0.0,0.0,0.0,0.0,0.0,0.0,0.0,0.0,0.0,0.0,0.0,0.0,0.0,0.0,0.0,0.0,0.0,0.0,0.0,0.0,0.0,0.0,0.0,0.0,0.0,0.0,0.0,0.0,0.0,0.0,0.0,0.0,0.0,0.0,0.0,0.0,0.0,0.0,0.0,0.0,0.0,0.0,0.0,0.0,0.0,0.0,0.0,0.0,0.0,0.0,0.0,0.0,0.0,0.0,0.0,0.0,0.0,0.0,0.0,0.0,0.0,0.0,0.0,0.0,0.0,0.0,0.0,0.0,0.0,0.0,0.0,0.0,0.0,0.0,0.0,0.0,0.0,0.0,0.0,0.0,0.0,0.0,0.0,0.0,0.0,0.0,0.0,0.0,0.0,0.0,0.0,0.0,0.0,0.0,0.0,0.0,0.0,0.0,0.0,0.0,0.0,0.0,0.0,0.0,0.0,0.0,0.0,0.0,0.0,0.0,0.0,0.0,0.0,0.0,0.0,0.0,0.0,0.0,0.0,0.0,0.0,0.0,0.0,0.0,0.0,0.0,0.0,0.0,0.0,0.0,0.0,0.0,0.0,0.0,0.0,0.0,0.0,0.0,0.0,0.0,0.0,0.0,0.0,0.0,0.0,0.0,0.0,0.0,0.0,0.0,0.0,0.0,0.0,0.0,0.0,0.0,0.0,0.0,0.0,0.0,0.0,0.0,0.0,0.0,0.0,0.0,0.0,0.0,0.0,0.0,0.0,0.0,0.0,0.0,0.0,0.0,0.0,0.0,0.0,0.0,0.0,0.0,0.0,0.0,0.0,0.0,0.0,0.0,0.0,0.0,0.0,0.0,0.0,0.0,0.0,0.0,0.0,0.0,0.0,0.0,0.0,0.0,0.0,0.0,0.0,0.0,0.0,0.0,0.0,0.0,0.0,0.0,0.0,0.0,0.0,0.0,0.0,0.0,0.0,0.0,0.0,0.0,0.0,0.0,0.0,0.0,0.0,0.0,0.0,0.0,0.0,0.0,0.0,0.0,0.0,0.0,0.0,0.0,0.0,0.0,0.0,0.0,0.0,0.0,0.0,0.0,0.0,0.0,0.0,0.0,0.0,0.0,0.0,0.0,0.0,0.0,0.0,0.0,0.0,0.0,0.0,0.0,0.0,0.0,0.0,0.0,0.0,0.0,0.0,0.0,0.0,0.0,0.0,0.0,0.0,0.0,0.0,0.0,0.0,0.0,0.0,0.0,0.0,0.0,0.0,0.0,0.0,0.0,0.0,0.0,0.0,0.0,0.0,0.0,0.0,0.0,0.0,0.0,0.0,0.0,0.0,0.0,0.0,0.0,0.0,0.0,0.0,0.0,0.0,0.0,0.0,0.0,0.0,0.0,0.0,0.0,0.0,0.0,0.0,0.0,0.0,0.0,0.0,0.0,0.0,0.0,0.0,0.0,0.0,0.0,0.0,0.0,0.0,0.0,0.0,0.0,0.0,0.0,0.0,0.0,0.0,0.0,0.0,0.0,0.0,0.0,0.0,0.0,0.0,0.0,0.0,0.0,0.0,0.0,0.0,0.0,0.0,0.0,0.0,0.0,0.0,0.0,0.0,0.0,0.0,0.0,0.0,0.0,0.0,0.0,0.0,0.0,0.0,0.0,0.0,0.0,0.0,0.0,0.0,0.0,0.0,0.0,0.0,0.0,0.0,0.0,0.0,0.0,0.0,0.0,0.0,0.0,0.0,0.0,0.0,0.0,0.0,0.0,0.0,0.0,0.0,0.0,0.0,0.0,0.0,0.0,0.0,0.0,0.0,0.0,0.0,0.0,0.0,0.0,0.0,0.0,0.0,0.0,0.0,0.0,0.0,0.0,0.0,0.0,0.0,0.0,0.0,0.0,0.0,0.0,0.0,0.0,0.0,0.0,0.0,0.0,0.0,0.0,0.0,0.0,0.0,0.0,0.0,0.0,0.0,0.0,0.0,0.0,0.0,0.0,0.0,0.0,0.0,0.0,0.0,0.0,0.0,0.0,0.0,0.0,0.0,0.0,0.0,0.0,0.0,0.0,0.0,0.0,0.0,0.0,0.0,0.0,0.0,0.0,0.0,0.0,0.0,0.0,0.0,0.0,0.0,0.0,0.0,0.0,0.0,0.0,0.0,0.0,0.0,0.0,0.0,0.0,0.0,0.0,0.0,0.0,0.0,0.0,0.0,0.0,0.0,0.0,0.0,0.0,0.0,0.0,0.0,0.0,0.0,0.0,0.0,0.0,0.0,0.0,0.0,0.0,0.0,0.0,0.0,0.0,0.0,0.0,0.0,0.0,0.0,0.0,0.0,0.0,0.0,0.0,0.0,0.0,0.0,0.0,0.0,0.0,0.0,0.0,0.0,0.0,0.0,0.0,0.0,0.0,0.0,0.0,0.0,0.0,0.0,0.0,0.0,0.0,0.0,0.0,0.0,0.0,0.0,0.0,0.0,0.0,0.0,0.0,0.0,0.0,0.0,0.0,0.0,0.0,0.0,0.0,0.0,0.0,0.0,0.0,0.0,0.0,0.0,0.0,0.0,0.0,0.0,0.0,0.0,0.0,0.0,0.0,0.0,0.0,0.0,0.0,0.0,0.0,0.0,0.0,0.0,0.0,0.0,0.0,0.0,0.0,0.0,0.0,0.0,0.0,0.0,0.0,0.0,0.0,0.0,0.0,0.0,0.0,0.0,0.0,0.0,0.0,0.0,0.0,0.0,0.0,0.0,0.0,0.0,0.0,0.0,0.0,0.0,0.0,0.0,0.0,0.0,0.0,0.0,0.0,0.0,0.0,0.0,0.0,0.0,0.0,0.0,0.0,0.0,0.0,0.0,0.0,0.0,0.0,0.0,0.0,0.0,0.0,0.0,0.0,0.0,0.0,0.0,0.0,0.0,0.0,0.0,0.0,0.0,0.0,0.0,0.0,0.0,0.0,0.0,0.0,0.0,0.0,0.0,0.0,0.0,0.0,0.0,0.0,0.0,0.0,0.0,0.0,0.0,0.0,0.0,0.0,0.0,0.0,0.0,0.0,0.0,0.0,0.0,0.0,0.0,0.0,0.0,0.0,0.0,0.0,0.0,0.0,0.0,0.0,0.0,0.0,0.0,0.0,0.0,0.0,0.0,0.0,0.0,0.0,0.0,0.0,0.0,0.0,0.0,0.0,0.0,0.0,0.0,0.0,0.0,0.0,0.0,0.0,0.0,0.0,0.0,0.0,0.0,0.0,0.0,0.0,0.0,0.0,0.0,0.0,0.0,0.0,0.0,0.0,0.0,0.0,0.0,0.0,0.0,0.0,0.0,0.0,0.0,0.0,0.0,0.0,0.0,0.0,0.0,0.0,0.0,0.0,0.0,0.0,0.0,0.0,0.0,0.0,0.0,0.0,0.0,0.0,0.0,0.0,0.0,0.0,0.0,0.0,0.0,0.0,0.0,0.0,0.0,0.0,0.0,0.0,0.0,0.0,0.0,0.0,0.0,0.0,0.0,0.0,0.0,0.0,0.0,0.0,0.0,0.0,0.0,0.0,0.0,0.0,0.0,0.0,0.0,0.0,0.0,0.0,0.0,0.0,0.0,0.0,0.0,0.0,0.0,0.0,0.0,0.0,0.0,0.0,0.0,0.0,0.0,0.0,0.0,0.0,0.0,0.0,0.0,0.0,0.0,0.0,0.0,0.0,0.0,0.0,0.0,0.0,0.0,0.0,0.0,0.0,0.0,0.0,0.0,0.0,0.0,0.0,0.0,0.0,0.0,0.0,0.0,0.0,0.0,0.0,0.0,0.0,0.0,0.0,0.0,0.0,0.0,0.0,0.0,0.0,0.0,0.0,0.0,0.0,0.0,0.0,0.0,0.0,0.0,0.0,0.0,0.0,0.0,0.0,0.0,0.0,0.0,0.0,0.0,0.0,0.0,0.0,0.0,0.0,0.0,0.0,0.0,0.0,0.0,0.0,0.0,0.0,0.0,0.0,0.0,0.0,0.0,0.0,0.0,0.0,0.0,0.0,0.0,0.0,0.0,0.0,0.0,0.0,0.0,0.0,0.0,0.0,0.0,0.0,0.0,0.0,0.0,0.0,0.0,0.0,0.0,0.0,0.0,0.0,0.0,0.0,0.0,0.0,0.0,0.0,0.0,0.0,0.0,0.0,0.0,0.0,0.0,0.0,0.0,0.0,0.0,0.0,0.0,0.0,0.0,0.0,0.0,0.0,0.0,0.0,0.0,0.0,0.0,0.0,0.0,0.0,0.0,0.0,0.0,0.0,0.0,0.0,0.0,0.0,0.0,0.0,0.0,0.0,0.0,0.0,0.0,0.0,0.0,0.0,0.0,0.0,0.0,0.0,0.0,0.0,0.0,0.0,0.0,0.0,0.0,0.0,0.0,0.0,0.0,0.0,0.0,0.0,0.0,0.0,0.0,0.0,0.0,0.0,0.0,0.0,0.0,0.0,0.0,0.0,0.0,0.0,0.0,0.0,0.0,0.0,0.0,0.0,0.0,0.0,0.0,0.0,0.0,0.0,0.0,0.0,0.0,0.0,0.0,0.0,0.0,0.0,0.0,0.0,0.0,0.0,0.0,0.0,0.0,0.0,0.0,0.0,0.0,0.0,0.0,0.0,0.0,0.0,0.0,0.0,0.0,0.0,0.0,0.0,0.0,0.0,0.0,0.0,0.0,0.0,0.0,0.0,0.0,0.0,0.0,0.0,0.0,0.0,0.0,0.0,0.0,0.0,0.0,0.0,0.0,0.0,0.0,0.0,0.0,0.0,0.0,0.0,0.0,0.0,0.0,0.0,0.0,0.0,0.0,0.0,0.0,0.0,0.0,0.0,0.0,0.0,0.0,0.0,0.0,0.0,0.0,0.0,0.0,0.0,0.0,0.0,0.0,0.0,0.0,0.0,0.0,0.0,0.0,0.0,0.0,0.0,0.0,0.0,0.0,0.0,0.0,0.0,0.0,0.0,0.0,0.0,0.0,0.0,0.0,0.0,0.0,0.0,0.0,0.0,0.0,0.0,0.0,0.0,0.0,0.0,0.0,0.0,0.0,0.0,0.0,0.0,0.0,0.0,0.0,0.0,0.0,0.0,0.0,0.0,0.0,0.0,0.0,0.0,0.0,0.0,0.0,0.0,0.0,0.0,0.0,0.0,0.0,0.0,0.0,0.0,0.0,0.0,0.0,0.0,0.0,0.0,0.0,0.0,0.0,0.0,0.0,0.0,0.0,0.0,0.0,0.0,0.0,0.0,0.0,0.0,0.0,0.0,0.0,0.0,0.0,0.0,0.0,0.0,0.0,0.0,0.0,0.0,0.0,0.0,0.0,0.0,0.0,0.0,0.0,0.0,0.0,0.0,0.0,0.0,0.0,0.0,0.0,0.0,0.0,0.0,0.0,0.0,0.0,0.0,0.0,0.0,0.0,0.0,0.0,0.0,0.0,0.0,0.0,0.0,0.0,0.0,0.0,0.0,0.0,0.0,0.0,0.0,0.0,0.0,0.0,0.0,0.0,0.0,0.0,0.0,0.0,0.0,0.0,0.0,0.0,0.0,0.0,0.0,0.0,0.0,0.0,0.0,0.0,0.0,0.0,0.0,0.0,0.0,0.0,0.0,0.0,0.0,0.0,0.0,0.0,0.0,0.0,0.0,0.0,0.0,0.0,0.0,0.0,0.0,0.0,0.0,0.0,0.0,0.0,0.0,0.0,0.0,0.0,0.0,0.0,0.0,1.7845,0.0,0.0,0.0,0.0,0.0,0.0,0.0,0.0,0.0,0.0,0.0,0.0,0.0,0.0,0.0,0.0,0.0,0.0,0.0,0.0,0.0,0.0,0.0,0.0,1.9483,1.9486,1.9547,1.9296,0.0,0.0,0.0,0.0,0.0,0.0,0.0,1.8418,1.8413,1.8622,1.9064,1.9538,2.0067,2.0586,2.0185,1.9667,1.9023,0.0,0.0,0.0,0.0,0.0,0.0,0.0,0.0,0.0,0.0,0.0,0.0,0.0,0.0,0.0,0.0,0.0,0.0,0.0,0.0,0.0,0.0,0.0,0.0,0.0,0.0,0.0,0.0,0.0,0.0,0.0,0.0,0.0,0.0,0.0,0.0,0.0,0.0,0.0,0.0,0.0,0.0,0.0,0.0,0.0,0.0,0.0,0.0,0.0,0.0,0.0,0.0,0.0,0.0,0.0,0.0,0.0,0.0,0.0,0.0,0.0,0.0,0.0,0.0,0.0,0.0,0.0,0.0,0.0,0.0,0.0,1.7977,0.0,0.0,0.0,0.0,0.0,0.0,0.0,0.0,0.0,0.0,0.0,0.0,0.0,0.0,0.0,0.0,0.0,0.0,0.0,0.0,0.0,1.9541,1.9571,1.9543,1.9566,1.9743,1.9503,1.9397,1.946,1.9291,0.0,0.0,0.0,1.8796,1.8633,1.8628,1.9255,2.0452,2.0797,2.159,2.2758,2.2842,2.2221,2.0994,2.0724,0.0,0.0,0.0,0.0,0.0,0.0,0.0,0.0,0.0,0.0,0.0,0.0,0.0,0.0,0.0,0.0,0.0,0.0,0.0,0.0,0.0,0.0,0.0,0.0,0.0,0.0,0.0,0.0,0.0,0.0,0.0,0.0,0.0,0.0,0.0,0.0,0.0,0.0,0.0,0.0,0.0,0.0,0.0,0.0,0.0,0.0,0.0,0.0,0.0,0.0,0.0,0.0,0.0,0.0,0.0,0.0,0.0,0.0,0.0,0.0,0.0,0.0,0.0,2.3717,2.4286,2.4452,2.4634,2.4731,2.4552,2.1395,1.9885,1.9548,1.892,0.0,0.0,0.0,0.0,0.0,0.0,0.0,0.0,0.0,0.0,0.0,0.0,0.0,0.0,0.0,0.0,0.0,0.0,0.0,1.9547,1.9576,1.9492,1.9748,2.0623,2.0567,2.0479,2.0506,2.027,1.9756,1.8927,1.8746,1.8932,1.9507,1.9588,2.0359,2.1848,2.3038,2.3936,2.455,2.4533,2.4404,2.4215,2.2767,2.2092,2.2072,0.0,0.0,0.0,0.0,0.0,0.0,0.0,0.0,0.0,0.0,0.0,0.0,0.0,0.0,0.0,0.0,0.0,0.0,0.0,0.0,0.0,0.0,0.0,0.0,0.0,0.0,0.0,0.0,0.0,0.0,0.0,0.0,0.0,0.0,0.0,0.0,0.0,0.0,0.0,0.0,0.0,2.171,2.1391,0.0,0.0,0.0,0.0,0.0,0.0,0.0,0.0,0.0,0.0,0.0,0.0,0.0,2.2739,2.3487,2.445,2.454,2.3812,2.6521,2.7381,2.6598,2.7026,2.7213,2.7155,2.5632,0.0,2.3438,2.1861,0.0,0.0,0.0,0.0,0.0,0.0,0.0,0.0,0.0,0.0,0.0,0.0,0.0,0.0,0.0,0.0,0.0,0.0,0.0,0.0,0.0,2.0307,2.0804,2.2167,2.2094,2.1992,2.2054,2.1437,2.0664,1.9773,1.9253,1.9255,1.98,2.0332,2.1669,2.3833,2.5407,2.6422,2.6922,2.7093,2.7298,2.7449,2.6508,2.5284,2.3823,2.2993,0.0,0.0,0.0,0.0,0.0,0.0,0.0,0.0,0.0,0.0,0.0,0.0,0.0,0.0,0.0,0.0,0.0,0.0,0.0,0.0,0.0,0.0,0.0,0.0,0.0,0.0,0.0,0.0,0.0,0.0,0.0,0.0,0.0,0.0,0.0,0.0,0.0,0.0,0.0,2.1674,2.2506,2.2315,2.2342,2.2028,0.0,0.0,0.0,0.0,0.0,0.0,0.0,0.0,0.0,2.417,2.4757,2.5322,2.5868,2.7126,2.7545,2.7182,2.9081,2.9851,2.9525,2.9743,2.9822,2.9806,2.9272,2.878,2.8091,2.4927,2.3289,2.2704,0.0,0.0,0.0,0.0,2.107,2.0997,0.0,0.0,0.0,0.0,0.0,0.0,0.0,0.0,0.0,0.0,0.0,0.0,2.0913,2.13,2.2081,2.3526,2.3671,2.368,2.3697,2.2813,2.1821,2.0759,2.0113,2.0069,2.0598,2.2047,2.3878,2.6014,2.7495,2.8477,2.8976,2.9429,2.9653,2.9682,2.9557,2.8109,2.5655,2.4822,2.3872,0.0,0.0,0.0,0.0,0.0,0.0,0.0,0.0,0.0,0.0,0.0,0.0,0.0,0.0,0.0,0.0,0.0,0.0,0.0,0.0,0.0,0.0,0.0,0.0,0.0,0.0,0.0,0.0,0.0,0.0,0.0,0.0,0.0,0.0,0.0,0.0,0.0,0.0,2.2767,2.3705,2.349,2.3629,2.3437,0.0,0.0,0.0,0.0,0.0,0.0,2.4513,2.5162,2.577,2.631,2.7142,2.7812,2.8226,2.9414,2.9992,3.0031,3.0858,3.1366,3.1516,3.1516,3.1516,3.1516,3.1516,3.1516,3.1208,2.755,2.5815,2.5403,2.4759,2.4595,2.4651,2.4166,2.4035,2.4035,0.0,0.0,0.0,0.0,0.0,0.0,0.0,0.0,0.0,0.0,0.0,2.0834,2.0898,2.2286,2.3516,2.4288,2.5037,2.542,2.5382,2.4422,2.3186,2.1625,2.1321,2.1612,2.2524,2.5586,2.7514,2.8243,2.9038,2.9682,3.0221,3.1021,3.0985,3.0261,3.0708,2.9705,2.7613,2.6919,2.5823,2.4339,0.0,0.0,0.0,0.0,0.0,0.0,0.0,0.0,0.0,0.0,0.0,0.0,0.0,0.0,0.0,0.0,0.0,0.0,0.0,0.0,0.0,0.0,0.0,0.0,0.0,0.0,0.0,0.0,0.0,0.0,0.0,0.0,0.0,0.0,0.0,0.0,0.0,0.0,0.0,2.5086,2.5605,0.0,0.0,0.0,0.0,2.5766,2.5867,2.6294,2.7233,2.7578,2.8241,2.9334,2.9435,2.9895,3.0823,3.0766,3.0866,3.1099,3.1377,3.1499,3.1516,3.1516,3.1516,3.1516,3.1516,3.1516,3.1354,2.9408,2.8591,2.8375,2.6395,2.5709,2.5886,2.6496,2.6642,2.662,0.0,0.0,0.0,0.0,0.0,0.0,1.9657,1.9652,1.9678,1.9707,2.0392,2.1307,2.2391,2.3368,2.4686,2.6551,2.6895,2.7012,2.699,2.5695,2.4598,2.3959,2.289,2.3426,2.5812,2.7175,2.8523,2.9803,3.0876,3.1552,3.2006,3.3066,3.3499,3.3443,3.3449,3.2731,3.1385,2.9204,2.7411,2.5926,2.4893,2.3388,0.0,0.0,0.0,0.0,0.0,0.0,0.0,0.0,0.0,0.0,0.0,0.0,0.0,0.0,0.0,0.0,0.0,0.0,0.0,0.0,0.0,0.0,0.0,0.0,0.0,0.0,0.0,0.0,0.0,0.0,0.0,0.0,0.0,0.0,0.0,0.0,0.0,2.5665,2.6293,0.0,2.5895,2.6041,2.65,2.7221,2.7647,2.8248,2.9125,2.9915,3.0498,3.0812,3.1033,3.126,3.1432,3.1577,3.1736,3.196,3.218,3.2409,3.2634,3.2531,3.2548,3.2662,3.2662,3.2662,3.2606,3.1969,3.1232,3.0448,2.9711,2.9464,2.9476,2.924,2.911,2.9054,0.0,0.0,0.0,0.0,0.0,0.0,1.9696,1.9694,1.9826,2.0101,2.1069,2.2227,2.3589,2.4791,2.6152,2.7785,2.8099,2.8185,2.8168,2.6916,2.6046,2.568,2.4969,2.5659,2.7983,2.9057,3.0265,3.165,3.2675,3.3422,3.3951,3.498,3.5453,3.5421,3.527,3.4756,3.3873,3.165,2.9721,2.8108,2.7017,2.5545,2.3935,0.0,0.0,0.0,0.0,0.0,0.0,0.0,0.0,0.0,0.0,0.0,0.0,0.0,0.0,0.0,0.0,0.0,0.0,0.0,0.0,0.0,0.0,0.0,0.0,0.0,0.0,0.0,0.0,0.0,0.0,0.0,0.0,0.0,0.0,0.0,2.6075,2.6619,2.7482,2.7921,2.7607,2.7987,2.8526,2.9198,2.9722,3.0236,3.0717,3.1517,3.1945,3.192,3.2164,3.2314,3.2358,3.2528,3.2638,3.269,3.2838,3.3051,3.3308,3.3157,3.3174,3.3308,3.3308,3.3385,3.351,3.351,3.3111,3.2472,3.2139,3.2005,3.1954,3.1385,3.123,3.1202,0.0,0.0,0.0,0.0,0.0,1.9623,1.9701,1.9713,2.0026,2.0881,2.2338,2.359,2.4362,2.6512,2.789,2.7835,2.8552,2.8964,2.8911,2.8131,2.7374,2.6716,2.7526,2.8323,2.9015,3.1326,3.2937,3.3764,3.4433,3.5204,3.5996,3.6717,3.6717,3.6038,3.6132,3.5757,3.4987,3.4219,3.2821,3.0924,2.911,2.8126,2.7524,0.0,0.0,0.0,0.0,0.0,0.0,0.0,0.0,0.0,0.0,0.0,0.0,0.0,0.0,0.0,0.0,0.0,0.0,0.0,0.0,0.0,0.0,0.0,0.0,0.0,0.0,0.0,0.0,0.0,0.0,0.0,0.0,0.0,2.595,2.6853,2.761,2.805,2.9323,2.9909,2.9261,3.0395,3.1322,3.1711,3.2135,3.2262,3.2065,3.2394,3.2618,3.2749,3.2839,3.3152,3.3616,3.3616,3.3529,3.3364,3.3347,3.3347,3.3364,3.3347,3.3347,3.3364,3.3364,3.3577,3.3926,3.3926,3.4178,3.4397,3.3427,3.3043,3.3026,3.283,3.2884,3.3033,0.0,0.0,0.0,0.0,0.0,1.9691,1.9767,1.9757,2.0082,2.0963,2.232,2.3768,2.5197,2.6841,2.8035,2.8626,2.8877,2.8975,2.8964,2.8236,2.7931,2.8258,2.9564,3.0922,3.2265,3.2958,3.3987,3.5374,3.6132,3.6919,3.7728,3.8534,3.9048,3.9369,3.9459,3.9019,3.8173,3.693,3.576,3.4428,3.1771,2.993,2.8662,0.0,0.0,0.0,0.0,0.0,0.0,0.0,0.0,0.0,0.0,0.0,0.0,0.0,0.0,0.0,0.0,0.0,0.0,0.0,0.0,0.0,0.0,0.0,0.0,0.0,0.0,0.0,0.0,0.0,0.0,0.0,2.6084,2.7059,2.7009,2.7862,2.8954,3.0243,3.1014,3.1558,3.1761,3.2206,3.2456,3.2414,3.3103,3.3504,3.3456,3.3727,3.383,3.3716,3.3522,3.3599,3.4026,3.4054,3.4233,3.4683,3.4537,3.4537,3.4664,3.4537,3.4537,3.4683,3.4683,3.4759,3.4844,3.4844,3.4919,3.4957,3.4316,3.4094,3.4067,3.4038,3.3845,3.3648,0.0,0.0,0.0,0.0,0.0,1.9767,1.9779,1.9801,2.0223,2.1416,2.2551,2.4004,2.5945,2.7158,2.814,2.8913,2.8981,2.8981,2.8981,2.8888,2.9116,2.9856,3.143,3.274,3.3641,3.4708,3.5703,3.6618,3.7742,3.853,3.9005,3.9738,4.037,4.0827,4.0687,4.038,3.9856,3.8859,3.8107,3.7324,3.4729,3.2568,3.077,2.9736,2.8848,2.8133,2.7671,2.7242,2.685,2.6718,0.0,0.0,0.0,0.0,0.0,0.0,0.0,0.0,0.0,0.0,0.0,0.0,0.0,0.0,0.0,0.0,0.0,0.0,0.0,0.0,0.0,0.0,0.0,0.0,2.7822,2.8843,2.9158,2.96,3.0439,3.1841,3.2536,3.2989,3.315,3.3542,3.3689,3.3443,3.4022,3.4277,3.4063,3.4593,3.472,3.4288,3.4335,3.4433,3.4618,3.4509,3.464,3.5022,3.491,3.4892,3.491,3.4873,3.4929,3.5041,3.5152,3.5302,3.5433,3.5433,3.5563,0.0,0.0,0.0,0.0,0.0,3.465,3.4435,0.0,0.0,0.0,0.0,0.0,1.9782,1.9782,1.9782,2.0376,2.2003,2.2831,2.4185,2.658,2.7464,2.8209,2.8956,2.8981,2.9023,2.9133,2.9873,3.0699,3.1552,3.3076,3.4027,3.4211,3.6354,3.7603,3.7786,3.9124,3.989,4.0109,4.0701,4.1075,4.1264,4.0888,4.0709,4.0645,4.0252,3.9903,3.9473,3.7551,3.548,3.333,3.1747,3.0972,3.0576,2.9337,2.8453,2.7924,2.805,0.0,0.0,0.0,0.0,0.0,0.0,0.0,0.0,0.0,0.0,0.0,0.0,0.0,0.0,0.0,0.0,0.0,0.0,0.0,0.0,0.0,0.0,0.0,0.0,2.9637,3.0616,3.18,3.1736,3.196,3.3005,3.3794,3.4131,3.3853,3.4466,3.4798,3.4532,3.4836,3.4848,3.4398,0.0,0.0,0.0,0.0,3.5318,3.5283,3.5003,3.4919,3.4974,3.4993,3.4899,3.4748,3.4955,3.5049,3.5049,3.5293,3.5611,3.5952,3.5952,3.6142,3.6393,3.5628,3.5358,3.5358,3.5358,3.5302,3.5264,0.0,0.0,0.0,0.0,0.0,1.9782,1.9782,1.9782,2.0408,2.2129,2.2892,2.4219,2.6702,2.752,2.8209,2.8956,2.8981,2.928,2.9947,3.073,3.1825,3.3236,3.4264,3.5415,3.6758,3.7235,3.8153,3.9431,3.9745,4.0537,4.1821,4.1951,4.2357,4.2927,4.2857,4.2465,4.1818,4.1275,4.0587,3.9808,3.8419,3.6918,3.5241,3.3344,3.2462,3.2199,3.1548,3.1219,3.1039,3.0545,2.984,2.9063,2.8477,0.0,0.0,0.0,0.0,0.0,0.0,0.0,0.0,0.0,0.0,0.0,0.0,0.0,0.0,0.0,0.0,0.0,0.0,0.0,0.0,2.9607,3.0979,3.2364,3.3411,3.3349,3.3379,3.3771,3.4293,3.4576,3.4493,3.476,3.4974,3.5177,3.5514,3.5818,3.6114,3.6142,3.6023,3.5719,3.5334,3.534,3.5664,3.5435,3.5568,3.6105,0.0,0.0,3.6281,3.6487,3.6583,3.6583,3.6641,3.6697,3.6771,3.6771,3.6816,3.6842,3.6364,3.6164,3.6164,3.6164,3.5975,3.5692,0.0,0.0,0.0,0.0,0.0,1.9782,1.9782,1.9798,2.0383,2.2065,2.2565,2.3676,2.6114,2.667,2.7121,2.7838,2.8588,2.9394,3.0136,3.1347,3.2699,3.4314,3.5195,3.6229,3.7456,3.83,3.91,3.9908,4.0716,4.1515,4.2323,4.2727,4.3113,4.3437,4.3437,4.3164,4.2675,4.2377,4.188,4.117,3.9704,3.8376,3.7041,3.4802,3.366,3.3205,3.2738,3.2322,3.1951,3.1736,3.1155,3.0432,2.9735,2.9043,2.812,0.0,0.0,0.0,0.0,0.0,0.0,0.0,0.0,0.0,0.0,0.0,0.0,0.0,0.0,2.745,2.7838,0.0,3.0875,3.1533,3.2465,3.344,3.4413,3.4352,3.4233,3.4332,3.4626,3.4719,3.458,3.4978,3.53,3.538,3.584,3.6248,3.6599,3.6921,3.7025,3.6798,3.6612,3.6571,3.6711,3.6286,3.6211,3.6563,3.6662,3.6829,3.6987,3.7079,3.7366,3.7766,3.7746,3.7834,3.7954,3.7954,3.7954,3.7934,3.7713,3.727,3.6693,3.6693,3.6576,3.6403,0.0,0.0,0.0,0.0,0.0,1.9782,1.9782,1.9807,2.0342,2.1785,2.1963,2.2899,2.5327,2.5577,2.5899,2.6713,2.8265,2.9443,3.016,3.174,3.343,3.5209,3.595,3.6765,3.7713,3.9174,3.9981,4.012,4.1589,4.2396,4.2543,4.3212,4.3506,4.3506,4.3506,4.3419,4.326,4.3187,4.2939,4.2482,4.0689,3.9417,3.8342,3.6008,3.4662,3.3923,3.3295,3.2691,3.2186,3.209,3.1654,3.1079,3.0384,3.0162,2.9691,2.7371,2.7164,0.0,0.0,0.0,0.0,0.0,0.0,0.0,0.0,0.0,2.6354,2.7237,2.8397,2.9432,3.0177,3.1336,3.2537,3.345,3.3972,3.4529,3.528,3.5221,3.5146,3.5278,3.5112,3.4995,3.4995,3.5463,3.5873,3.6197,3.6541,3.6875,3.7217,3.7926,3.8084,3.7667,3.7792,3.7768,3.7603,3.7086,3.6865,3.7004,3.7016,3.7206,3.7516,3.7605,3.7956,3.8587,3.8594,3.8697,3.8902,3.8902,3.8902,3.8902,3.8902,3.8263,3.7363,3.7363,3.7363,3.7363,0.0,0.0,0.0,0.0,0.0,0.0,1.9782,1.9785,2.0139,2.1117,2.1153,2.2092,2.4552,2.4782,2.5293,2.6676,2.8358,2.9614,3.0242,3.1863,3.3811,3.6145,3.6329,3.7066,3.8542,3.9431,4.0267,4.0956,4.1874,4.2653,4.3359,4.3469,4.3506,4.3506,4.3506,4.3497,4.3454,4.3078,4.2901,4.2686,4.0591,3.9271,3.84,3.6566,3.5413,3.4596,3.3361,3.2906,3.2702,3.153,3.1179,3.12,3.1089,3.1045,3.0866,2.9897,0.0,2.9555,2.8651,2.8728,2.8716,2.7526,2.8083,2.885,0.0,0.0,2.8442,2.9157,2.9886,3.0613,3.1208,3.2859,3.414,3.4273,3.5413,3.6322,3.643,3.6507,3.6755,3.731,3.6151,3.5841,3.7034,3.659,3.7074,3.9057,3.8671,3.8692,3.9488,3.9614,3.9122,3.7898,3.772,3.763,3.7594,3.736,3.7495,3.8048,3.8227,3.8309,3.8372,3.8606,3.8784,3.8861,3.8861,3.8861,3.8902,3.8902,3.8902,3.8902,3.8902,3.8797,3.8705,3.8705,3.8705,3.8705,0.0,0.0,0.0,0.0,0.0,0.0,0.0,1.9801,2.0135,2.1057,2.1117,2.1642,2.3256,2.3697,2.4331,2.5425,2.7816,2.9359,2.9522,3.2041,3.4132,3.56,3.6115,3.6918,3.8029,3.927,4.0047,4.0414,4.1213,4.2029,4.28,4.28,4.3065,4.3506,4.3506,4.3445,4.3322,4.3013,4.2572,4.1893,4.0329,3.8996,3.7723,3.5996,3.4883,3.4144,3.3239,3.2939,0.0,0.0,3.1062,3.1181,3.1112,3.0827,3.0581,3.0717,3.0446,0.0,3.0702,3.0921,3.0826,0.0,3.001,3.0463,3.0527,3.0216,3.0407,3.2099,3.2631,3.3,3.3652,3.4758,3.5598,0.0,3.6199,3.6737,3.7114,3.7247,3.7669,3.8624,3.8189,3.7916,3.8224,3.8269,3.8706,3.9785,3.9908,4.0146,4.0625,4.0291,3.9965,3.9767,3.8914,3.8609,3.8882,3.8447,3.8363,3.8615,3.8697,3.8927,3.9242,3.9208,3.9383,3.9788,3.9915,3.995,3.995,3.995,3.995,3.995,3.995,3.995,3.9866,3.9163,3.8902,3.8902,0.0,0.0,0.0,0.0,0.0,0.0,0.0,0.0,2.004,2.0727,2.0791,2.1228,2.2306,2.3051,2.3765,2.4484,2.7189,2.8936,2.9072,3.1776,3.3906,3.5132,3.5581,3.6231,3.7264,3.8787,3.9593,3.9578,4.0589,4.1397,4.1984,4.1984,4.2286,4.2837,4.2837,4.2734,4.2513,4.2323,4.1793,4.0977,3.9621,3.8259,3.692,3.5225,3.4021,3.3105,3.2475,3.2317,0.0,0.0,3.0561,3.0833,3.0552,3.0278,3.02,3.0751,3.0649,3.0649,3.1708,3.2283,0.0,3.1979,3.2264,3.2681,3.2758,3.2484,3.2687,3.4409,3.4714,3.4895,3.5554,3.6214,3.6707,3.6798,3.701,3.7387,3.8081,3.8246,3.8752,3.998,4.0118,4.0082,3.9929,3.9899,4.013,4.0767,4.1014,4.1325,4.168,4.1256,4.1049,4.117,4.039,3.9964,3.986,3.9617,3.9466,3.9388,3.9388,3.9641,4.0041,3.9851,4.0017,4.0507,4.0651,4.0688,4.0688,4.0688,4.0688,4.0688,4.0688,4.0688,4.0603,3.9788,3.945,3.9388,0.0,0.0,0.0,0.0,0.0,0.0,0.0,0.0,0.0,1.9837,0.0,2.0622,2.2129,2.3095,2.3809,2.4372,2.6698,2.8452,2.9228,3.0857,3.2852,3.5277,3.4604,3.4879,3.6417,3.8022,3.8787,3.8726,4.0333,4.1103,4.114,4.114,4.1132,4.1177,4.1177,4.1049,4.0853,4.0644,4.0492,4.0153,3.8234,3.7027,3.6159,3.4466,3.2917,3.1581,3.0831,0.0,0.0,2.9231,2.9373,2.9997,2.9305,2.9533,0.0,3.0132,3.0606,3.12,3.1234,0.0,3.3419,3.3728,3.4958,3.5943,3.558,3.5482,3.5436,3.5377,3.5383,3.5584,3.6245,3.6905,3.7372,3.7387,3.8015,3.879,3.9534,3.976,4.0326,4.1596,4.1731,4.2009,0.0,4.1314,4.1047,4.2696,4.2174,4.2122,4.2988,4.302,4.2479,4.1318,4.19,4.1507,4.0115,4.0723,4.0908,4.0659,4.0659,4.0659,4.0659,4.0659,4.0688,4.0688,4.0688,4.0688,4.0688,4.0688,4.0688,4.0688,4.0688,4.0688,4.0709,4.0887,4.0795,4.0659,0.0,0.0,0.0,0.0,0.0,0.0,0.0,0.0,0.0,0.0,0.0,0.0,0.0,0.0,0.0,0.0,2.6092,2.7474,2.8253,2.9924,3.1741,3.3605,3.3963,3.4628,3.5699,3.6759,3.7277,3.7256,3.7764,3.8317,3.884,3.884,3.9127,3.9636,3.9636,3.9605,3.9535,3.9219,3.8617,3.772,3.6496,3.5442,3.4429,3.3001,3.1875,3.0895,0.0,0.0,2.9837,2.8375,2.8557,2.933,2.8976,0.0,0.0,2.9194,3.092,3.278,3.3264,0.0,3.5104,3.6061,3.6525,3.6828,3.6938,3.6497,3.6327,3.7202,3.7023,3.6924,3.7589,3.79,3.8091,3.8191,3.8403,3.8879,3.9595,4.0127,4.0717,4.1558,4.2047,0.0,0.0,0.0,0.0,4.2975,4.3243,4.3506,4.3814,4.3846,4.3803,4.3693,4.2804,4.2387,4.2614,4.2144,4.205,4.2356,4.1811,4.1254,4.0688,4.0688,4.0688,4.0688,4.0688,4.0688,4.0688,4.0688,4.0773,4.0894,4.0894,4.0894,4.0894,4.0979,4.0852,4.073,0.0,0.0,0.0,0.0,0.0,0.0,0.0,0.0,0.0,0.0,0.0,0.0,0.0,0.0,0.0,0.0,0.0,2.6611,2.7505,2.8582,3.0033,3.191,3.2004,3.2535,3.3593,3.4116,3.4503,3.4735,3.5031,3.5739,3.681,3.681,3.7253,3.805,3.805,3.7985,3.7912,3.7656,3.7068,3.6187,3.5106,3.4019,3.2921,3.1645,3.0486,0.0,0.0,0.0,2.8455,2.7517,2.7801,2.8509,2.8167,2.8117,2.8374,2.9161,3.1292,3.3626,3.4641,3.5442,3.632,3.7501,3.7669,3.7627,3.7937,3.7533,3.7352,3.8208,3.7869,3.7569,3.8272,3.7987,3.7853,3.8423,3.8307,3.8567,3.9816,4.0354,4.0974,4.1856,4.2343,4.2586,0.0,0.0,0.0,4.3305,4.3744,4.4233,4.4723,4.4769,4.4878,4.5179,4.4222,4.3765,4.3905,4.3358,4.2981,4.2761,4.1914,4.1376,4.1025,4.1025,4.1137,4.1362,4.1362,4.1362,4.1362,4.1362,4.1471,4.1544,4.1297,4.1212,4.1205,4.1064,4.0916,4.0837,0.0,0.0,0.0,0.0,0.0,0.0,0.0,0.0,0.0,0.0,0.0,0.0,0.0,0.0,0.0,0.0,0.0,0.0,2.6947,2.6912,2.79,3.0281,2.9036,2.8947,3.034,3.0417,3.0775,3.1481,3.2305,3.3487,3.4964,3.5,3.5487,3.6269,3.6269,3.6143,3.5973,3.582,3.561,3.5311,3.3878,3.2686,3.1607,3.0394,0.0,0.0,0.0,0.0,0.0,2.6623,0.0,0.0,0.0,0.0,2.9314,3.004,3.1789,3.3852,3.534,3.6299,3.713,3.8137,3.8356,3.84,3.8561,3.8604,3.853,3.8371,3.7778,3.7487,0.0,0.0,3.6775,3.8116,3.7811,3.8135,4.0189,4.0528,4.1063,0.0,0.0,0.0,0.0,0.0,0.0,4.38,0.0,4.4382,4.5726,4.5856,4.5822,4.5755,4.607,4.5546,4.4021,4.4408,4.3791,4.2178,4.1382,4.1254,4.1709,4.1752,4.2068,4.2593,4.2637,4.2637,4.2593,4.2593,4.2593,4.2559,4.1896,4.1671,4.1609,4.1227,4.1086,4.1043,0.0,0.0,0.0,0.0,0.0,0.0,0.0,0.0,0.0,0.0,0.0,0.0,0.0,0.0,0.0,0.0,0.0,0.0,2.5819,2.5865,2.6752,2.8762,2.8393,2.8654,2.9795,2.981,2.9856,2.9975,3.0879,3.1469,3.1793,3.2386,3.2794,3.3017,3.2963,3.2914,3.2828,3.2593,3.2162,3.1563,0.0,3.0275,2.9548,0.0,0.0,0.0,0.0,0.0,0.0,0.0,0.0,0.0,0.0,3.031,3.1606,0.0,0.0,3.5363,3.6896,3.7855,3.8572,3.918,3.9168,3.8937,3.8769,3.8586,3.8288,3.7695,3.7422,3.7196,0.0,0.0,0.0,3.7519,3.8343,0.0,4.0366,4.0981,0.0,4.2489,0.0,4.2813,4.3379,4.3573,0.0,0.0,4.5273,4.5435,4.5791,4.6309,4.6629,4.66,4.5981,4.5674,4.5692,4.6063,4.5701,4.4695,4.4981,4.4487,4.3351,4.4027,4.3696,4.2637,4.3283,4.3202,4.2593,4.2593,4.2682,4.281,4.264,4.2556,4.2556,4.2452,4.2307,4.2181,0.0,0.0,0.0,0.0,0.0,0.0,0.0,0.0,0.0,0.0,0.0,0.0,0.0,0.0,0.0,0.0,0.0,0.0,0.0,2.5069,2.5694,2.7042,2.6781,2.7018,2.7825,2.7909,2.7891,2.7833,2.8702,2.9257,2.9576,3.0023,3.0421,3.0734,3.0696,3.068,3.07,3.0778,0.0,0.0,0.0,0.0,0.0,0.0,0.0,0.0,0.0,0.0,0.0,0.0,0.0,2.9696,3.0406,3.1419,3.2496,3.3558,0.0,3.6468,3.799,3.8903,3.9471,3.9479,3.9342,3.9016,3.83,3.8033,3.7617,3.6594,3.6367,0.0,3.5461,3.5914,0.0,0.0,0.0,0.0,4.0351,4.1111,4.1856,0.0,4.2893,0.0,4.3638,4.4269,4.4982,0.0,4.5941,4.6038,4.6294,4.6837,4.7115,4.703,4.6495,4.639,4.6795,4.681,4.6589,4.6046,4.6009,4.5653,4.4979,4.5487,4.5327,4.4602,0.0,4.444,4.3963,4.3539,4.3476,4.3534,4.328,4.3167,4.3139,4.2879,4.2705,4.2615,0.0,0.0,0.0,0.0,0.0,0.0,0.0,0.0,0.0,0.0,1.9865,0.0,0.0,0.0,0.0,0.0,0.0,0.0,0.0,0.0,0.0,2.5453,2.4954,2.4929,2.5453,2.5585,2.5662,2.564,2.645,2.7228,2.7871,2.7983,2.841,2.9077,0.0,0.0,0.0,0.0,0.0,0.0,0.0,0.0,0.0,0.0,0.0,0.0,0.0,0.0,0.0,0.0,3.0419,3.0666,3.1409,3.2158,3.3028,3.4516,3.5904,3.7257,3.8746,3.9592,3.9973,3.9368,3.9149,3.8784,3.756,3.7191,3.6699,3.5312,0.0,3.4729,3.4081,3.4567,3.5344,3.6173,0.0,3.9005,4.0348,4.1238,4.2016,4.2698,4.3346,4.38,4.3962,4.5095,4.5957,4.6222,4.6305,4.6515,4.6963,4.7318,4.7435,4.7312,4.7312,4.7361,4.7481,4.7296,4.7119,4.6914,4.6224,4.6158,4.6605,4.6731,4.6927,4.7146,4.6469,4.6114,4.5913,4.511,4.47,4.4527,4.4014,4.3725,4.3554,4.3042,4.2846,4.2868,0.0,0.0,0.0,0.0,0.0,0.0,0.0,0.0,0.0,0.0,2.046,1.9833,0.0,0.0,0.0,0.0,0.0,0.0,0.0,0.0,0.0,2.4824,2.463,2.4626,2.4869,2.4879,2.484,2.4745,2.5705,2.6201,2.6243,2.6911,2.7261,0.0,0.0,0.0,0.0,0.0,0.0,0.0,0.0,0.0,0.0,0.0,0.0,0.0,0.0,0.0,0.0,0.0,3.1531,3.2397,3.3682,3.4526,3.534,3.6862,3.7516,3.8024,3.9491,4.0011,3.9973,3.9368,3.8962,3.8458,3.7517,3.6573,0.0,0.0,3.3854,3.3433,3.3303,3.3822,3.4716,3.6076,3.7987,3.9632,0.0,0.0,4.2918,0.0,0.0,0.0,0.0,0.0,0.0,0.0,4.729,4.7406,4.7403,4.7453,4.7629,4.7852,4.7867,4.7924,4.8081,4.8561,4.8718,4.8505,4.8914,4.8786,4.8223,4.8951,4.8512,4.7233,4.7852,0.0,4.6951,4.6777,4.6248,4.5553,4.5438,4.4938,4.4228,4.4144,4.4088,4.4088,0.0,0.0,0.0,0.0,0.0,0.0,0.0,2.0967,2.1166,2.1894,2.1685,2.1424,2.1322,2.1345,2.188,0.0,0.0,0.0,0.0,0.0,0.0,0.0,2.4526,2.4522,2.458,2.5028,0.0,0.0,0.0,0.0,0.0,0.0,0.0,0.0,0.0,0.0,0.0,0.0,0.0,0.0,0.0,0.0,0.0,0.0,0.0,0.0,0.0,0.0,0.0,0.0,3.1162,3.2849,3.4603,3.5374,3.5904,3.7437,3.791,3.8227,3.9694,4.0011,3.976,3.9329,3.8784,3.7976,3.6527,0.0,0.0,0.0,3.2481,3.2287,3.1565,3.2914,0.0,3.504,3.7612,3.9808,0.0,0.0,0.0,0.0,0.0,0.0,0.0,0.0,4.6893,4.7404,4.7605,4.7621,4.7504,4.7847,4.8269,4.8828,4.899,4.9056,4.904,4.9502,4.964,4.9426,4.9754,4.9681,4.93,4.9701,4.9441,4.8584,4.8615,4.8335,4.7852,4.6886,4.6203,4.5756,4.5264,4.4787,4.4401,4.4401,4.4401,4.4425,0.0,0.0,0.0,0.0,0.0,0.0,2.1195,2.1182,2.1481,2.2596,2.3178,2.3297,2.2744,2.2613,2.2794,0.0,0.0,0.0,0.0,0.0,0.0,0.0,0.0,2.4492,2.45,0.0,0.0,0.0,0.0,0.0,0.0,0.0,0.0,0.0,0.0,0.0,0.0,0.0,0.0,0.0,0.0,0.0,0.0,0.0,0.0,0.0,0.0,0.0,0.0,0.0,3.0344,3.234,3.429,3.5103,3.5678,3.7212,3.7652,3.8024,3.9673,3.991,3.9605,3.9169,3.8492,3.7456,3.5485,3.4562,0.0,0.0,3.1239,3.1262,3.029,0.0,3.3809,0.0,3.6996,3.9451,4.0681,0.0,0.0,0.0,0.0,0.0,0.0,0.0,0.0,4.7671,4.7869,4.7868,4.7784,4.8423,4.911,4.9793,5.0044,5.0122,5.004,5.0205,5.0168,4.9912,4.9912,4.9912,4.9912,4.9912,4.9912,4.9872,4.9168,4.8882,4.878,4.7289,4.655,4.6337,4.5582,4.5064,4.47,4.47,4.456,4.4448,0.0,0.0,0.0,0.0,0.0,0.0,2.1888,2.2032,2.2747,2.4889,2.4694,2.4622,2.5185,2.4679,2.4309,0.0,0.0,0.0,0.0,0.0,0.0,0.0,0.0,0.0,0.0,0.0,0.0,0.0,0.0,0.0,0.0,0.0,0.0,0.0,0.0,0.0,0.0,0.0,0.0,0.0,0.0,0.0,0.0,0.0,0.0,0.0,0.0,0.0,0.0,0.0,0.0,3.0591,3.2114,3.3535,3.4912,3.6445,0.0,0.0,3.9537,3.991,3.9523,3.8848,3.8054,3.6949,3.5009,0.0,0.0,3.1169,3.0474,3.0237,3.0721,3.1563,3.2838,0.0,0.0,3.8311,4.0631,0.0,0.0,0.0,0.0,0.0,0.0,4.7336,4.7537,4.7688,4.833,4.8676,4.8659,4.935,5.0037,5.06,5.0464,5.0529,5.08,5.048,5.0168,4.9912,4.9912,4.9912,4.9912,4.9912,4.9912,4.9912,4.9832,4.9761,0.0,4.9602,4.9066,4.8314,4.8231,4.7189,4.5666,4.5666,4.5127,4.4401,0.0,0.0,0.0,0.0,0.0,0.0,2.1896,2.2066,2.2724,2.4607,2.5486,2.5861,2.5685,2.582,2.5536,2.4574,0.0,0.0,0.0,0.0,0.0,0.0,0.0,0.0,0.0,0.0,0.0,2.4488,0.0,0.0,0.0,0.0,0.0,0.0,0.0,0.0,0.0,0.0,0.0,0.0,0.0,0.0,0.0,0.0,0.0,0.0,0.0,0.0,0.0,0.0,0.0,0.0,2.9567,3.0954,0.0,0.0,3.6411,3.7202,3.8949,3.9412,3.9268,3.8735,3.7866,3.6589,3.4352,0.0,3.2254,3.0618,3.0075,3.0107,3.0775,3.1498,3.257,3.4376,3.5825,0.0,3.9527,4.0818,0.0,0.0,0.0,0.0,0.0,0.0,4.7751,4.8313,4.9226,4.9758,4.9758,5.0052,5.0507,5.1171,5.1002,5.1001,5.1256,5.0711,5.0351,5.0253,5.003,4.9912,4.9912,4.9912,4.9912,4.9912,4.9912,4.9912,0.0,4.934,4.8903,4.8511,4.7362,4.644,4.5734,4.515,4.4723,4.4401,0.0,0.0,0.0,0.0,0.0,2.0301,2.1857,2.2057,2.265,2.4514,2.5606,2.6168,2.6056,2.5912,2.5582,2.4908,2.4648,0.0,0.0,0.0,0.0,0.0,0.0,0.0,0.0,0.0,2.4469,2.437,2.437,2.4366,0.0,0.0,0.0,0.0,0.0,0.0,0.0,0.0,0.0,0.0,0.0,0.0,0.0,0.0,0.0,0.0,0.0,0.0,0.0,0.0,0.0,0.0,0.0,0.0,0.0,0.0,3.5656,3.6784,3.8261,3.8941,3.9003,3.8263,3.754,3.6332,0.0,0.0,3.2155,3.0282,2.9891,3.0107,3.0775,3.1533,3.2553,3.401,3.5454,3.709,3.8997,4.0339,4.192,0.0,0.0,4.5618,0.0,4.7619,4.8211,4.8985,4.9868,5.0485,5.0625,5.0713,5.0996,5.1559,5.1462,5.1355,5.1373,5.0794,5.0448,5.0312,5.005,4.9912,4.9912,4.9912,4.9912,4.9912,4.9912,4.9912,0.0,4.9259,4.8984,4.8862,4.7524,4.6856,4.6557,4.5898,4.5287,4.481,0.0,0.0,0.0,0.0,0.0,0.0,2.1849,2.2032,2.2852,2.5259,2.498,2.5132,2.6725,2.4777,2.3963,2.554,2.4946,0.0,0.0,0.0,0.0,0.0,0.0,0.0,0.0,0.0,2.4361,2.4111,2.4111,2.4087,2.4117,2.3883,0.0,0.0,0.0,0.0,0.0,0.0,0.0,0.0,0.0,0.0,2.4677,0.0,0.0,0.0,0.0,0.0,0.0,0.0,0.0,0.0,0.0,2.8349,2.961,0.0,3.4461,3.5938,3.7505,3.8526,3.8823,3.7229,3.6908,3.6249,0.0,3.2707,3.2155,3.0282,2.9891,3.0107,3.0775,3.1602,3.2636,3.3899,3.5389,3.7212,3.9561,4.0539,0.0,0.0,0.0,4.4989,4.6469,4.7935,4.8985,4.9549,5.0073,0.0,5.1153,5.1387,5.1592,5.1794,5.1813,5.1577,5.1102,5.0717,5.0292,4.9912,4.9912,4.9912,4.9912,4.9912,4.9912,4.9912,4.9912,4.9912,0.0,4.9892,4.9892,4.9892,4.9872,4.934,4.8573,4.8573,4.7405,4.5779,0.0,0.0,0.0,0.0,0.0,0.0,2.1068,2.118,2.164,2.2963,2.3425,2.3805,2.4325,2.3727,2.3744,2.4797,2.414,0.0,0.0,0.0,0.0,0.0,0.0,0.0,0.0,0.0,2.4397,2.4936,2.4704,2.4876,2.5391,2.4813,2.4449,2.42,0.0,0.0,0.0,0.0,0.0,0.0,0.0,2.4034,2.4609,0.0,0.0,0.0,0.0,0.0,0.0,0.0,0.0,0.0,0.0,0.0,0.0,3.0572,3.2533,3.4292,3.5318,3.6274,3.6721,3.5543,3.5012,3.4329,3.2376,3.1956,3.1561,3.0185,2.9891,3.0129,3.0899,3.119,3.2027,3.4178,3.5278,3.6705,0.0,0.0,0.0,4.4027,4.5601,4.6897,0.0,0.0,4.9582,5.0123,5.0639,5.1071,5.1406,5.161,5.1739,5.1813,5.1941,5.1868,5.1577,5.1135,5.0717,5.0312,5.0018,4.9912,4.9912,4.9912,4.9912,4.9912,4.9912,4.9912,4.9912,4.9912,4.9912,4.9852,4.9228,4.8841,4.8439,4.7138,4.6314,4.5711,0.0,0.0,0.0,0.0,0.0,0.0,2.0641,2.0786,2.1087,2.1891,2.2456,2.2868,2.3165,2.2735,2.2941,2.4392,2.3495,0.0,0.0,0.0,0.0,0.0,0.0,0.0,2.4484,2.4201,2.4446,2.5215,2.4904,2.5171,2.593,2.532,2.4775,2.4273,2.3711,2.3145,0.0,0.0,0.0,0.0,2.3105,2.3823,2.4575,0.0,0.0,0.0,0.0,0.0,0.0,0.0,0.0,0.0,0.0,0.0,0.0,0.0,3.0852,3.2442,0.0,3.4834,3.5333,3.423,3.3874,3.3379,3.1847,3.1538,3.1274,3.0163,2.9913,3.0151,3.0955,3.1029,3.1681,3.3788,3.4947,3.6467,0.0,0.0,0.0,4.4151,0.0,0.0,0.0,4.906,4.9803,5.0359,5.0964,5.1368,5.148,5.1758,5.1904,5.1904,5.1959,5.1849,5.154,5.1097,5.0679,5.0273,4.9998,4.9912,4.9912,4.9912,4.9912,4.9912,4.9912,4.9912,0.0,4.9912,4.9912,4.9852,4.932,4.9242,4.9285,4.7508,4.6793,4.6548,0.0,0.0,0.0,0.0,0.0,0.0,0.0,2.0667,2.0975,2.1731,2.1817,2.2126,2.2868,2.1682,2.1745,2.4025,2.2923,0.0,0.0,0.0,0.0,0.0,0.0,0.0,2.4513,2.4224,2.4448,2.517,2.4865,2.5135,2.5935,2.5536,2.4953,2.4165,2.3833,2.3212,0.0,0.0,0.0,0.0,2.3038,2.3789,0.0,0.0,0.0,0.0,0.0,0.0,0.0,0.0,0.0,0.0,0.0,0.0,0.0,0.0,0.0,0.0,0.0,3.3952,3.4389,3.3238,3.3273,3.3135,3.1594,3.1374,0.0,3.0217,2.9957,3.0162,3.0977,3.1119,3.1608,3.3098,3.4677,3.652,0.0,4.0531,0.0,0.0,4.5922,0.0,4.7754,4.8915,4.9836,5.0406,5.109,5.1499,5.1517,5.1886,5.2119,5.2137,5.1886,5.1559,5.1083,5.0717,5.0292,4.9912,4.9912,4.9912,4.9912,4.9912,4.9912,0.0,4.9912,4.9912,4.9912,4.9912,4.9912,4.9912,4.9975,5.0405,5.0799,4.9316,4.8508,4.7991,0.0,0.0,0.0,0.0,0.0,0.0,0.0,0.0,0.0,0.0,2.0158,2.0236,2.0422,2.0162,2.0454,0.0,0.0,0.0,0.0,0.0,0.0,0.0,0.0,0.0,2.4512,2.4044,2.4489,2.5873,2.539,2.5867,2.724,2.6443,2.563,2.476,2.3961,2.3134,0.0,0.0,0.0,0.0,2.2489,2.3342,0.0,0.0,0.0,0.0,2.67,2.6775,0.0,0.0,0.0,0.0,0.0,0.0,0.0,0.0,2.9111,2.961,3.1268,0.0,3.2242,3.1773,3.1341,3.0969,0.0,3.0606,3.0434,3.0087,0.0,3.0283,3.1232,3.1319,3.1975,3.4166,3.5671,3.7398,3.9778,0.0,0.0,4.6006,4.6897,4.7901,4.9062,4.9418,4.9978,5.0937,5.1308,5.1573,5.1721,5.1959,5.2158,5.232,5.1651,5.121,5.1083,5.0717,5.0292,4.9912,4.9912,4.9912,4.9912,4.9912,4.9912,4.9912,4.9912,4.9912,4.9912,4.9912,4.9912,4.9975,5.0532,5.0836,5.0925,5.0339,4.9321,4.8051,0.0,0.0,0.0,0.0,0.0,0.0,0.0,0.0,0.0,0.0,1.9561,1.9605,1.9605,1.9626,1.9968,0.0,0.0,0.0,0.0,0.0,0.0,0.0,0.0,2.4196,2.4352,2.3888,2.4407,2.6063,2.5609,2.6163,2.7634,2.7066,2.6138,2.4849,2.3579,2.2736,0.0,0.0,0.0,2.2313,2.2313,0.0,0.0,0.0,0.0,0.0,2.6775,2.68,0.0,2.7207,2.7403,2.7479,0.0,0.0,0.0,0.0,2.901,2.9314,3.0794,3.1149,3.1157,3.1499,3.0869,3.0314,3.0771,0.0,0.0,0.0,0.0,3.0369,3.1331,3.1681,3.2447,3.4478,3.6282,0.0,0.0,0.0,4.5283,4.6057,4.7045,4.8213,0.0,4.9597,5.0061,5.1238,5.1517,5.1721,5.1922,5.2122,5.2194,5.214,5.1452,5.1083,5.1083,5.0525,5.0097,4.9912,4.9912,4.9912,4.9912,4.9912,4.9912,4.9912,4.9912,4.9912,4.9912,4.9912,5.0101,5.0437,5.0836,5.1405,5.1851,5.0929,4.98,4.8521,0.0,0.0,0.0,0.0,0.0,0.0,0.0,0.0,0.0,0.0,0.0,0.0,0.0,0.0,0.0,0.0,0.0,0.0,0.0,0.0,0.0,0.0,2.4085,2.4097,2.4309,2.3789,2.4305,2.5978,2.5631,2.6142,2.7442,2.7373,2.6446,2.4694,2.3178,2.2422,0.0,0.0,2.2313,2.2313,2.2313,0.0,0.0,0.0,0.0,0.0,0.0,0.0,0.0,2.7623,2.7598,2.7326,2.7675,0.0,0.0,0.0,0.0,0.0,3.0929,3.1069,3.0902,3.1675,3.1038,3.0401,3.1068,0.0,0.0,0.0,0.0,0.0,0.0,3.2285,0.0,0.0,0.0,0.0,4.2221,4.3769,4.4937,4.5809,4.7078,0.0,4.9484,4.966,5.021,5.1401,5.1684,5.1886,5.2068,5.2284,5.2212,5.1831,5.1341,5.1065,5.0989,5.0273,4.9912,4.9912,4.9912,4.9912,4.9912,4.9912,4.9912,4.9912,0.0,0.0,4.9912,4.9912,5.0342,5.0994,5.1121,5.1954,5.2923,5.1332,5.0135,4.9022,0.0,0.0,0.0,0.0,0.0,0.0,0.0,0.0,0.0,0.0,0.0,0.0,0.0,0.0,0.0,0.0,0.0,0.0,0.0,0.0,0.0,2.3806,2.3944,2.4271,2.4865,2.395,2.4259,2.583,2.5432,2.5771,2.6752,2.703,2.6257,2.4603,2.3657,2.2861,2.2313,2.2313,2.2313,2.2313,2.2313,0.0,0.0,0.0,0.0,0.0,0.0,0.0,0.0,2.6911,2.7777,2.8612,2.7309,0.0,0.0,0.0,0.0,0.0,3.1549,3.1964,3.1685,3.1395,3.0754,3.029,3.0717,0.0,0.0,0.0,0.0,0.0,0.0,3.3622,3.5,0.0,0.0,4.1607,0.0,0.0,4.6018,4.7226,0.0,4.8904,4.9549,5.0011,5.0638,5.1434,5.1684,5.1886,5.2068,5.2284,5.2212,5.1831,5.1341,5.0946,5.0602,5.0116,4.9912,4.9912,4.9912,4.9912,4.9912,4.9912,4.9912,4.9912,0.0,4.9912,4.9912,4.9912,5.0342,5.1058,5.1606,5.2365,5.2986,5.1912,5.0584,4.885,0.0,0.0,0.0,0.0,0.0,0.0,0.0,0.0,0.0,0.0,0.0,0.0,0.0,0.0,0.0,0.0,0.0,0.0,0.0,0.0,2.3252,2.3524,2.4091,2.4523,2.4896,2.4295,2.4738,2.6311,2.6366,2.6581,2.6894,2.6505,2.5684,2.4493,2.3737,2.3004,2.2313,2.2313,2.2313,2.2313,0.0,0.0,0.0,0.0,0.0,0.0,0.0,0.0,0.0,0.0,2.7359,2.7879,2.7046,0.0,0.0,0.0,0.0,0.0,3.12,3.1638,3.1668,3.2171,3.2185,3.2319,3.3247,0.0,0.0,0.0,0.0,0.0,0.0,0.0,3.697,3.9606,0.0,4.2492,4.4212,4.5131,4.6021,0.0,0.0,4.9002,4.9549,5.0198,5.0881,5.16,5.1849,5.205,5.223,5.2338,5.2122,5.1434,5.121,5.0813,5.0175,4.9979,4.9912,4.9912,4.9912,4.9912,4.9912,4.9912,4.9912,4.9912,0.0,4.9912,4.9943,5.0342,5.0911,5.1606,5.2333,5.3028,5.3428,5.1726,5.034,4.8918,0.0,0.0,0.0,0.0,0.0,0.0,0.0,0.0,0.0,0.0,0.0,0.0,0.0,0.0,0.0,0.0,0.0,0.0,0.0,2.2071,2.2875,2.3389,2.42,2.476,2.4962,2.4759,2.5374,2.6858,2.7183,2.7379,2.7366,2.6169,2.5242,2.4535,2.3744,2.3004,2.2313,2.2313,2.2388,2.2624,0.0,0.0,0.0,0.0,0.0,0.0,0.0,0.0,0.0,0.0,0.0,0.0,0.0,0.0,0.0,2.8883,2.9281,2.9576,3.1065,3.1471,3.1759,3.3055,3.3184,3.3467,3.5217,0.0,0.0,0.0,0.0,0.0,0.0,3.6903,0.0,4.2024,4.2683,4.3317,4.4619,4.5395,4.6121,4.6896,4.8232,4.9217,4.9619,5.0436,5.1208,5.1802,5.1995,5.2176,5.2373,5.2302,5.1908,5.1102,5.0989,5.0621,4.9912,4.9912,4.9912,4.9912,4.9912,4.9912,4.9912,4.9912,4.9912,4.9912,4.9912,5.0006,5.0216,5.0773,5.15,5.2312,5.2902,5.3186,5.3055,5.1267,4.97,4.8201,0.0,0.0,0.0,0.0,0.0,0.0,0.0,0.0,0.0,0.0,0.0,0.0,0.0,0.0,0.0,0.0,0.0,0.0,0.0,2.1933,2.2693,2.3383,2.4129,2.4811,2.5447,2.5361,2.6002,2.7361,2.726,2.7514,2.7989,2.6441,2.5386,2.4735,2.3822,2.3004,2.2313,2.2313,2.2692,2.3349,2.3376,0.0,0.0,0.0,0.0,0.0,0.0,0.0,0.0,0.0,0.0,0.0,0.0,0.0,2.9019,2.9803,3.0031,3.0335,3.1809,3.2226,3.2472,3.3573,3.2385,0.0,3.4482,3.3796,0.0,0.0,0.0,0.0,0.0,3.9209,4.1394,4.2355,4.3646,4.4821,4.5616,0.0,4.7057,4.7819,4.9058,4.9846,4.9877,5.0985,5.182,5.205,5.2068,5.2176,5.2373,5.205,5.1614,5.1135,5.0755,5.0331,4.9912,4.9912,4.9912,4.9912,4.9912,4.9912,4.9912,4.9912,4.9912,4.9912,4.9912,5.0311,5.0931,5.0963,5.1816,5.3028,5.3092,5.2165,5.0817,5.066,4.8657,4.603,0.0,0.0,0.0,0.0,0.0,0.0,0.0,0.0,0.0,0.0,0.0,1.9387,1.9109,0.0,0.0,0.0,0.0,0.0,0.0,2.1447,2.2171,2.3347,2.4465,2.4965,2.4827,2.5699,2.6793,2.8137,2.7872,2.7827,2.7895,2.6335,2.5266,2.4566,2.3751,2.3241,2.297,2.297,2.341,2.4128,2.4594,2.5125,0.0,0.0,0.0,0.0,0.0,0.0,0.0,0.0,2.7352,2.7913,2.73,2.7985,2.9044,2.9339,2.9736,3.0301,3.1336,3.2222,3.3051,3.3829,0.0,0.0,0.0,0.0,0.0,0.0,0.0,0.0,0.0,0.0,4.2444,4.3515,4.452,4.5459,4.6186,4.6945,4.7539,4.7951,4.9124,4.9912,4.9912,5.1158,5.2013,5.2068,5.2227,5.232,5.2391,5.2032,5.1577,5.1102,5.0717,5.0312,4.9912,4.9912,4.9912,4.9912,4.9912,4.9912,4.9912,4.9912,4.9912,4.9943,5.0374,5.0742,5.1058,5.1922,5.2618,5.3155,5.3566,5.3342,5.275,5.2322,5.0367,4.7911,0.0,0.0,0.0,0.0,0.0,0.0,0.0,0.0,1.9435,0.0,0.0,0.0,0.0,1.903,0.0,0.0,0.0,0.0,2.0667,2.0998,2.1716,2.2957,2.4382,2.4888,2.4411,2.5812,2.7195,2.8508,2.8425,2.8218,2.7842,2.6327,2.5346,2.4843,2.4075,2.3755,2.3755,2.3755,2.4162,2.4872,2.5406,2.5784,0.0,0.0,0.0,0.0,0.0,0.0,0.0,0.0,2.7224,2.7564,2.747,2.8163,2.9077,2.9551,3.004,3.0528,3.0986,3.1803,3.2685,0.0,0.0,0.0,0.0,0.0,0.0,0.0,0.0,0.0,0.0,0.0,0.0,0.0,4.5249,4.604,4.6616,4.7325,4.7853,4.7984,4.9175,4.9998,4.9998,5.1318,5.2176,5.2176,5.232,5.2391,5.2391,5.1871,5.1415,5.1102,5.0602,5.0175,4.9912,4.9912,4.9912,4.9912,4.9912,4.9912,4.9912,4.9912,4.9912,4.9943,5.0678,5.1121,5.1405,5.2618,5.3197,5.3471,5.3913,5.3818,5.3376,5.2934,5.1017,4.8565,0.0,0.0,0.0,0.0,0.0,0.0,0.0,0.0,1.9409,1.9413,1.9275,0.0,0.0,0.0,0.0,0.0,0.0,0.0,1.9953,2.0672,2.143,2.2156,2.3691,2.4444,2.4382,2.5687,2.7006,2.8285,2.8755,2.8648,2.7964,2.636,2.5641,2.5671,2.4877,2.4515,2.4508,2.4508,2.494,2.5601,2.5601,2.6139,2.6901,0.0,0.0,0.0,0.0,0.0,0.0,0.0,2.6809,2.697,2.8502,2.901,2.9314,3.076,3.119,3.1151,3.0952,3.0952,3.1311,0.0,0.0,0.0,0.0,0.0,0.0,0.0,0.0,4.252,4.252,0.0,0.0,4.4673,4.5772,4.6666,4.6876,4.7537,4.8001,4.8001,4.9293,5.0203,5.0203,5.1512,5.2391,5.2391,5.2391,5.2391,5.2391,5.1563,5.1083,5.1083,5.0312,4.9912,4.9912,4.9912,4.9912,4.9912,4.9912,4.9912,4.9912,4.9912,4.9912,4.9943,5.071,5.1405,5.208,5.2807,5.3502,5.4103,5.4103,5.325,5.1997,5.1997,4.9954,4.7219,0.0,0.0,0.0,0.0,0.0,0.0,0.0,0.0,1.9193,1.906,1.9063,0.0,0.0,0.0,0.0,0.0,0.0,0.0,1.9953,2.0693,2.1414,2.2156,2.3541,2.4072,2.3581,2.4739,2.601,2.7381,2.8464,2.8351,2.7046,2.6057,2.5609,2.5599,2.4854,2.4778,2.527,2.527,2.571,2.6353,2.6353,2.658,2.6901,0.0,0.0,0.0,0.0,0.0,0.0,0.0,0.0,0.0,2.8002,2.8881,2.9871,3.0311,3.0784,3.1151,3.0952,3.2389,0.0,3.356,0.0,0.0,0.0,0.0,0.0,0.0,0.0,4.2653,4.3183,0.0,0.0,4.518,4.6118,4.6977,4.7391,4.7753,4.8001,4.8001,4.8845,4.964,5.0137,5.1048,5.1828,5.2358,5.2391,5.2266,5.1995,5.1415,5.0951,5.0698,5.0156,4.9912,4.9912,4.9912,4.9912,4.9912,4.9912,4.9912,4.9912,4.9912,5.0164,5.071,5.1385,5.2112,5.2839,5.3534,5.3913,5.404,5.3597,5.3155,5.2629,5.1474,4.969,4.7804,0.0,0.0,0.0,0.0,0.0,0.0,1.9138,1.9081,1.9002,1.8869,1.8874,1.8834,0.0,0.0,0.0,1.8838,1.8865,0.0,1.9484,2.0484,2.126,2.1686,2.3052,2.3715,2.3476,2.4619,2.5487,2.6007,2.7123,2.7165,2.6251,2.5812,2.5905,2.6438,2.6015,2.6048,2.6471,2.6471,2.6547,2.67,2.67,2.6784,2.6893,0.0,0.0,0.0,0.0,0.0,0.0,0.0,0.0,0.0,2.7792,2.8732,2.973,2.995,3.0577,3.1256,3.1481,3.2895,0.0,3.4928,3.6746,3.8679,3.9729,0.0,0.0,0.0,0.0,4.3153,4.3806,4.4515,0.0,4.5842,4.6665,4.7357,4.7737,4.7935,4.8001,4.8001,4.8663,4.9392,5.0137,5.0867,5.1614,5.2325,5.2391,5.223,5.1831,5.1341,5.0927,5.0525,5.0097,4.9912,4.9912,4.9912,4.9912,4.9912,4.9912,4.9912,4.9912,5.0216,5.0563,5.1058,5.2017,5.2839,5.3534,5.3913,5.4103,5.404,5.3376,5.2934,5.2523,5.1215,4.95,4.7714,0.0,0.0,1.9138,1.9138,0.0,0.0,1.9006,1.8877,1.8784,1.878,1.8748,1.8701,0.0,0.0,0.0,1.8878,1.8878,1.8887,1.8899,2.022,2.1018,2.1089,2.2488,2.347,2.3943,2.4974,2.5146,2.4398,2.5195,2.5601,2.5601,2.5668,2.6438,2.779,2.779,2.779,2.779,2.7722,2.7325,2.67,2.67,2.6775,2.6884,2.6775,0.0,0.0,0.0,0.0,0.0,0.0,0.0,0.0,2.776,2.8465,2.9125,2.9714,3.0542,3.1466,3.2277,3.2918,0.0,3.6299,3.7178,0.0,4.0798,4.1927,4.2583,4.3287,0.0,4.3836,4.4344,4.5053,4.5826,4.6534,4.7259,4.7787,4.7968,4.8001,4.8001,4.8001,4.8597,4.9309,5.0104,5.0834,5.153,5.2325,5.2391,5.2212,5.1743,5.1322,5.0876,5.0467,5.0077,4.9912,4.9912,4.9912,4.9912,4.9912,4.9912,4.9912,4.9943,5.0658,5.1058,5.1279,5.2618,5.3534,5.4103,5.4103,5.4103,5.404,5.3281,5.2586,5.1902,5.1103,4.9264,4.7189,0.0,0.0,1.9262,1.9262,0.0,0.0,1.893,1.8829,1.8715,1.8669,1.8645,1.8659,1.8774,1.8843,0.0,1.882,1.8815,1.9078,1.9631,2.0447,2.1165,2.1771,2.3054,2.3909,2.4279,2.4082,2.3834,2.3564,2.4934,2.5601,2.5601,2.6184,2.6953,2.779,2.779,2.779,2.7747,2.719,2.6869,2.67,2.67,2.6708,2.6767,2.6817,2.6893,0.0,0.0,0.0,0.0,0.0,0.0,0.0,2.776,2.8134,2.8534,2.9598,3.0884,3.2055,3.2398,3.4352,0.0,0.0,3.8605,4.0512,4.1234,4.2319,4.3236,4.3505,4.3893,4.4324,4.4579,4.5576,4.6468,4.6761,4.7439,4.7952,4.7984,4.8001,4.8001,4.8001,4.8133,4.8763,5.0071,5.0336,5.0982,5.2292,5.2391,5.2053,5.1303,5.114,5.0761,5.0038,4.9951,4.9912,4.9912,4.9912,4.9912,4.9912,4.9912,4.9912,4.9943,5.0658,5.1595,5.2681,5.3534,5.3976,5.4103,5.4103,5.4103,5.3976,5.2712,5.2144,5.1777,4.9832,4.829,4.7081,0.0,0.0,0.0,0.0,0.0,0.0,0.0,0.0,1.8657,1.8612,1.8641,1.8674,1.8729,1.8811,0.0,0.0,1.8779,1.9062,1.9815,2.0516,2.1351,2.2387,2.3265,2.3636,2.349,2.3439,2.3192,2.2803,2.3962,2.4698,2.503,2.5465,2.6404,2.7737,2.7806,2.779,2.7756,2.7393,2.7021,2.67,2.67,2.67,2.6708,2.6784,2.68,2.68,2.68,0.0,0.0,0.0,0.0,0.0,0.0,0.0,2.9213,2.9667,3.0656,3.1902,3.3203,0.0,0.0,3.7739,0.0,4.1328,4.138,4.2495,4.3524,4.3598,4.4101,4.465,4.5028,4.5986,4.6878,4.7209,4.7687,4.8001,4.8001,4.8001,4.8001,4.8001,4.8001,4.8431,4.9541,4.9971,5.0684,5.1795,5.2032,5.1817,5.1153,5.0914,5.0544,4.9931,4.9912,4.9912,4.9912,4.9912,4.9912,4.9912,4.9912,5.0259,5.0922,5.129,5.2238,5.3597,5.3945,5.4103,5.4103,5.4103,5.4103,5.4008,5.2934,5.2523,5.2334,5.0798,4.9144,4.7595,0.0,0.0,0.0,0.0,0.0,0.0,0.0,0.0,0.0,1.8608,1.8669,1.8706,1.8706,1.8734,1.8783,0.0,0.0,0.0,1.9724,2.0569,2.1634,2.2951,2.3308,2.3296,2.2793,2.3117,2.3025,2.2468,2.3098,2.3737,2.4427,2.4732,2.588,2.7727,2.7797,2.779,2.779,2.7655,2.7258,2.67,2.67,2.67,2.67,2.67,2.67,2.67,2.67,2.67,2.6793,2.7553,0.0,0.0,0.0,0.0,2.9918,2.9738,3.0336,3.1577,3.3695,0.0,3.6031,3.8632,4.0348,0.0,4.1394,4.2553,4.3598,4.3598,4.426,4.4991,4.5461,4.635,4.7191,4.7671,4.7902,4.8001,4.8001,4.8001,4.8001,4.8001,4.8001,4.8299,4.9028,4.9773,5.0518,5.1231,5.1604,5.1596,5.1135,5.0736,5.0312,4.9931,4.9912,4.9912,4.9912,4.9912,4.9912,4.9912,4.9912,5.0638,5.2017,5.2017,5.2776,5.4103,5.4103,5.4103,5.4103,5.4103,5.4103,5.404,5.3376,5.3123,5.3007,5.2249,5.0399,4.8183,0.0,0.0,0.0,0.0,0.0,0.0,0.0,0.0,0.0,0.0,1.8669,1.8706,1.8706,1.8711,1.8692,1.8636,1.8624,1.8943,1.9679,0.0,0.0,2.3374,2.348,2.3661,2.3987,2.3537,2.3272,2.3179,2.3313,0.0,0.0,0.0,0.0,2.7806,2.7815,2.779,2.7756,2.7122,2.6793,2.67,2.67,2.67,2.67,2.67,2.67,2.67,2.67,2.67,2.6793,2.7553,2.7902,0.0,0.0,0.0,2.9145,2.9435,3.047,3.167,3.2335,0.0,3.7079,0.0,4.0348,4.1394,0.0,0.0,4.3598,0.0,4.4566,4.5477,4.5701,4.6763,4.7671,4.7902,4.7984,4.8001,4.8001,4.8001,4.8001,4.8001,4.8001,4.8299,4.9028,4.9773,5.0518,5.1231,5.1604,5.1596,5.1135,5.0736,5.0312,4.9931,4.9912,4.9912,4.9912,4.9912,4.9912,4.9912,4.9912,5.0638,5.2017,5.2017,5.2776,5.4103,5.4103,5.4103,5.4103,5.4103,5.4103,5.404,5.3376,5.3123,5.3007,5.2249,5.0399,4.8183,0.0,0.0,0.0,0.0,0.0,0.0,0.0,0.0,0.0,0.0,0.0,1.9194,1.8742,1.8674,1.8631,1.8609,1.8874,1.9488,2.0576,2.1616,2.2397,2.2847,2.2865,2.2922,2.3115,2.29,2.2996,2.3365,2.3405,0.0,0.0,2.6201,2.6869,0.0,0.0,2.719,2.7165,2.6826,2.67,2.67,2.67,2.7207,2.7884,2.7038,2.7241,0.0,0.0,0.0,2.686,2.8078,2.852,2.8759,2.9903,0.0,0.0,0.0,3.0634,3.1373,3.3127,3.5284,3.7382,0.0,4.0348,4.1394,4.1394,4.2553,4.3598,4.3598,4.4711,4.5703,4.5781,4.6943,4.7902,4.7984,4.8001,4.8001,4.8001,4.8001,4.8001,4.8001,4.8001,4.8133,4.8465,4.9508,5.0336,5.0651,5.1124,5.1322,5.1102,5.0506,5.0077,4.9912,4.9912,4.9912,4.9912,4.9912,4.9912,4.9912,5.0311,5.1037,5.1997,5.2428,5.3155,5.4103,5.4103,5.4103,5.4103,5.4103,5.4103,5.4071,5.3787,5.366,5.3629,5.3313,5.1348,4.8827,0.0,0.0,0.0,0.0,0.0,0.0,0.0,0.0,0.0,0.0,0.0,1.9338,1.8735,0.0,0.0,0.0,1.9096,1.9941,2.1242,2.1873,2.2221,2.2342,2.2313,2.2306,2.2307,2.2349,2.2621,2.3134,2.3544,0.0,2.533,2.6454,2.6953,0.0,2.6962,0.0,0.0,0.0,0.0,2.6996,2.7207,2.7952,2.8874,0.0,0.0,2.9068,2.7537,0.0,0.0,0.0,0.0,2.9508,3.0755,3.1052,0.0,0.0,0.0,0.0,0.0,0.0,3.6596,3.8295,3.9951,4.121,0.0,0.0,4.3598,0.0,4.4607,4.5598,4.5764,4.7007,4.8001,4.8001,4.8001,4.8001,4.8001,4.8001,4.8001,4.8001,4.8001,4.8001,4.8001,4.9143,4.997,5.005,5.0529,5.0884,5.0932,5.0273,4.9912,4.9912,4.9912,4.9912,4.9912,4.9912,4.9912,4.9912,5.0627,5.1342,5.2049,5.2755,5.3471,5.4103,5.4103,5.4103,5.4103,5.4103,5.4008,5.385,5.385,5.3724,5.3544,5.33,5.1431,4.8984,0.0,0.0,0.0,0.0,0.0,0.0,0.0,0.0,0.0,0.0,0.0,1.8633,1.8621,1.8611,1.8556,1.8517,1.904,1.9935,2.1134,2.1243,2.1563,2.2187,2.2214,0.0,2.2384,2.2355,2.2355,2.2459,2.3793,2.4481,2.4609,2.675,2.7747,2.7747,2.7747,2.7756,2.7689,0.0,0.0,2.7824,2.8561,2.8942,2.9077,0.0,0.0,0.0,0.0,0.0,0.0,0.0,0.0,0.0,0.0,0.0,0.0,0.0,0.0,0.0,0.0,3.309,0.0,3.6609,3.8871,0.0,0.0,0.0,4.3598,4.3598,4.4224,4.4968,4.5664,4.7007,4.8001,4.8001,4.8001,4.8001,4.8001,4.8001,4.8001,4.8001,4.8001,4.8001,4.8001,4.868,4.9273,4.9619,4.9928,5.0255,5.0531,5.0116,4.9912,4.9912,4.9912,4.9912,4.9912,4.9912,4.9912,4.9912,5.0627,5.1342,5.2049,5.2755,5.3471,5.4103,5.4103,5.4103,5.4103,5.4103,5.3724,5.3134,5.3134,5.2723,5.2009,5.1095,4.97,4.8111,0.0,0.0,0.0,0.0,0.0,0.0,0.0,0.0,0.0,0.0,0.0,0.0,0.0,1.8606,1.8728,1.9046,2.0016,2.0911,2.1689,2.1819,2.1947,2.2082,2.2244,2.2314,2.2355,2.2391,2.2629,2.3047,2.3578,2.4309,2.5236,2.648,2.7359,2.779,2.779,2.779,2.7756,2.6996,0.0,0.0,2.8991,2.9982,0.0,0.0,0.0,0.0,0.0,0.0,0.0,0.0,0.0,0.0,0.0,0.0,0.0,0.0,0.0,0.0,0.0,0.0,0.0,3.5819,3.7698,3.9288,4.0495,4.1858,4.3035,4.3499,4.4191,4.4935,4.5664,4.6609,4.7438,4.7934,4.8001,4.8001,4.8001,4.8001,4.8001,4.8001,4.8001,4.8001,4.8001,4.8413,4.8951,4.9551,4.9677,4.9941,5.0474,5.0116,4.9912,4.9912,4.9912,4.9912,4.9912,4.9912,4.9912,4.9912,5.1069,5.1764,5.2049,5.3218,5.3882,5.4103,5.4103,5.4103,5.4071,5.3629,5.3313,5.3039,5.2586,5.2218,5.1882,5.096,4.9565,4.8051,0.0,0.0,0.0,2.0195,0.0,1.9628,2.0087,1.9931,1.985,2.004,0.0,0.0,0.0,0.0,1.948,1.9964,2.0791,2.1481,2.1953,2.2187,2.2202,2.2075,2.2244,2.2321,2.2321,2.2391,2.2636,2.3074,2.334,2.4071,0.0,2.6218,2.7054,2.779,2.7797,2.7932,0.0,0.0,0.0,2.7586,0.0,0.0,3.1857,0.0,0.0,0.0,0.0,0.0,0.0,0.0,0.0,0.0,0.0,0.0,0.0,0.0,0.0,0.0,3.1451,0.0,0.0,0.0,3.6373,3.7731,4.0196,4.1276,4.2123,4.3333,4.3977,4.4556,4.53,4.6013,4.6841,4.7835,4.8001,4.8001,4.8001,4.8001,4.8001,4.8001,4.8001,4.8001,4.8001,4.8065,4.8499,4.9307,4.9231,4.9476,5.028,5.0038,4.9912,4.9912,4.9912,4.9912,4.9912,4.9912,4.9912,4.9912,5.1333,5.2017,5.2049,5.3471,5.4103,5.4103,5.4103,5.4103,5.404,5.3376,5.2965,5.266,5.2207,5.1516,5.0757,5.0048,4.8774,4.7266,2.27,2.2458,2.2103,2.1019,2.0812,2.0771,2.0807,2.0198,1.9988,2.0696,0.0,0.0,0.0,0.0,0.0,2.1202,2.1237,2.1461,2.1953,2.213,2.22,2.22,2.2207,2.2271,2.2425,2.2355,2.2355,2.2425,2.3108,2.3789,0.0,0.0,2.7028,2.7815,2.7744,2.8167,2.9001,0.0,2.8792,2.9003,0.0,3.2496,3.3092,0.0,0.0,0.0,3.3674,3.348,0.0,3.4336,0.0,0.0,0.0,0.0,0.0,0.0,0.0,0.0,0.0,0.0,0.0,0.0,0.0,0.0,4.0268,4.0746,4.0926,4.3083,4.3532,4.3779,4.4571,4.53,4.6294,4.7736,4.8001,4.8001,4.8001,4.8001,4.8001,4.8001,4.8001,4.8001,4.7984,4.7621,4.7839,4.8882,4.8611,4.8808,4.9837,4.9912,4.9912,4.9912,4.9912,4.9912,4.9912,4.9912,4.9912,4.9912,5.1333,5.2017,5.2049,5.3471,5.4103,5.4103,5.4103,5.4071,5.4008,5.3344,5.2649,5.2017,5.1986,5.0621,4.8583,4.8322,4.7178,4.5666,2.2643,2.1604,2.1022,2.1809,2.0925,2.0248,2.078,2.0704,2.0617,0.0,0.0,0.0,2.0547,2.1371,2.1939,2.2051,2.2484,2.2524,2.2013,2.202,2.2068,2.2068,2.2202,2.2543,2.31,2.2621,2.2621,2.3134,2.3838,2.4305,2.4541,2.5998,2.7071,0.0,2.7744,2.8122,2.8814,2.8248,0.0,0.0,3.2307,3.3166,0.0,0.0,0.0,0.0,0.0,3.5385,3.5904,0.0,3.5172,3.3634,0.0,0.0,0.0,0.0,0.0,0.0,3.0375,0.0,0.0,0.0,0.0,0.0,3.687,3.7765,3.8791,4.1461,4.2024,4.2553,4.4372,4.53,4.6113,4.704,4.7636,4.8001,4.8001,4.8001,4.8001,4.8001,4.8001,4.7902,4.7605,4.7268,4.7458,0.0,4.8254,4.8574,4.9817,4.9912,4.9912,4.9912,4.9912,4.9912,4.9912,4.9912,4.9912,4.9912,5.1333,5.2017,5.2049,5.3471,5.4103,5.4103,5.4103,5.3818,5.3313,5.2618,5.2175,5.1954,5.1469,5.0496,4.9228,4.8503,4.7178,4.5666,2.2426,2.1601,2.1115,2.1633,2.1171,2.0861,2.1292,2.1362,2.1434,0.0,0.0,0.0,2.1751,2.2596,2.3136,2.3166,2.3205,2.3037,2.2559,2.2279,2.2132,2.2132,2.2514,2.297,2.3383,2.3318,2.3454,2.3857,2.4305,2.4643,2.4974,2.5813,2.6624,2.735,2.7264,2.7799,0.0,0.0,0.0,0.0,3.2512,0.0,0.0,3.5812,3.6836,0.0,0.0,0.0,3.7359,3.798,3.641,0.0,0.0,0.0,0.0,0.0,0.0,0.0,0.0,0.0,0.0,0.0,0.0,0.0,3.6518,3.7235,3.8083,4.1593,4.2322,4.2719,4.3992,4.4821,4.5598,4.6311,4.7073,4.7636,4.7968,4.8001,4.8001,4.8001,4.8001,4.782,4.7438,4.7115,4.7188,4.7933,4.7926,4.8509,4.9817,4.9912,4.9912,4.9912,4.9912,4.9912,4.9912,4.9912,4.9912,4.9912,5.1333,5.2017,5.2049,5.3471,5.4103,5.4103,5.4103,5.3724,5.3071,5.2649,5.2302,5.1986,5.1891,5.0704,4.9013,4.8763,4.719,4.5127,0.0,2.2212,2.1944,2.1314,2.172,2.2189,2.2312,2.2341,2.2531,0.0,2.2557,2.2568,2.3617,2.4068,2.4286,2.4334,2.3732,2.3335,2.3276,2.2736,2.24,2.2407,2.3023,2.347,2.3646,2.4203,2.4541,2.4609,2.4609,2.4974,2.5601,2.5629,2.6016,2.6691,2.6623,2.736,2.8609,0.0,0.0,3.0185,3.2367,3.3963,0.0,0.0,3.7378,3.7935,3.8731,3.8633,3.8328,3.9445,3.7998,0.0,0.0,0.0,0.0,0.0,3.0487,0.0,0.0,0.0,0.0,0.0,0.0,0.0,3.7392,3.7678,3.7983,4.2057,4.2885,4.2951,4.3083,4.3794,4.4538,4.5101,4.6095,4.7073,4.7901,4.8001,4.8001,4.8001,4.7968,4.777,4.7371,4.7015,4.6974,4.7321,4.7749,4.8573,4.9817,4.9912,4.9912,4.9912,4.9912,4.9912,4.9912,4.9912,4.9912,4.9912,5.1333,5.2017,5.2049,5.3471,5.4103,5.4103,5.4103,5.3724,5.3123,5.3165,5.2755,5.2175,5.2755,5.1124,4.8539,4.9132,4.7304,4.456,2.3609,2.2905,2.2586,2.3661,2.3264,2.32,2.439,2.451,2.4504,2.4522,2.4433,2.4567,2.5122,2.5302,2.5364,2.5269,2.5069,2.4425,2.3219,2.3081,2.3052,2.3111,2.3253,2.389,2.5127,2.4745,2.4804,2.5406,2.5406,2.5465,2.5601,2.6201,2.6547,2.6691,2.6623,2.7404,2.8755,0.0,0.0,3.2512,3.3561,0.0,3.488,3.7429,3.8557,3.8777,3.8937,3.9288,3.9512,3.8514,3.7757,3.6821,0.0,0.0,0.0,0.0,0.0,0.0,0.0,0.0,0.0,0.0,0.0,0.0,3.3867,3.4696,3.5909,3.795,3.8381,3.8725,3.9931,4.1177,4.1905,4.1522,4.4007,4.6477,4.7802,4.8001,4.8001,4.8001,4.7704,4.7371,4.7047,4.6652,4.6554,4.6887,4.8029,4.9047,4.9848,4.9912,4.9912,4.9912,4.9912,4.9912,4.9912,4.9912,4.9912,4.9912,5.1333,5.2017,5.2049,5.3471,5.4103,5.4103,5.4103,5.3724,5.3155,5.3692,5.3502,5.2839,5.2396,5.1361,5.0073,4.9684,4.7826,4.5537,2.3728,2.3246,2.3045,2.3862,2.4081,2.4381,2.515,2.5498,2.5662,2.5616,2.546,0.0,0.0,0.0,0.0,2.6,2.5606,2.5078,2.4394,2.4039,2.3868,2.3906,2.4236,2.4825,2.5567,2.5617,2.5786,2.615,2.615,2.615,2.615,2.6522,2.6903,2.7258,2.7206,2.8005,0.0,0.0,3.0517,3.3256,3.3995,0.0,3.6297,3.8198,3.9158,3.9559,3.9559,3.9795,3.9965,3.9171,3.8166,0.0,0.0,3.4862,3.4126,0.0,3.2186,3.2835,0.0,0.0,0.0,3.2418,0.0,0.0,0.0,3.5181,3.5976,3.7811,3.8208,3.8407,3.9149,3.9865,4.0481,4.0845,4.2734,4.454,4.5633,4.7073,4.8001,4.8001,4.7654,4.727,4.6944,4.653,4.6588,4.7314,4.8004,4.8857,4.9848,4.9912,4.9912,4.9912,4.9912,4.9912,4.9912,4.9912,5.007,5.0469,5.1512,5.2207,5.2586,5.3629,5.4103,5.4103,5.4103,5.3913,5.3597,5.3597,5.3408,5.306,5.2712,5.156,4.9999,4.9182,4.7597,4.5734,2.3464,2.3519,2.3566,2.3815,2.4792,2.5617,2.5778,2.6268,2.6606,2.6672,2.6225,0.0,0.0,0.0,0.0,0.0,2.6529,2.6185,2.6114,2.5489,2.4984,2.4687,2.5262,2.566,2.5779,2.6378,2.67,2.67,2.6826,2.6894,2.6894,2.6894,2.7291,0.0,0.0,0.0,0.0,0.0,0.0,3.3726,0.0,3.5834,3.7848,3.8845,3.9592,4.0113,4.0113,4.0113,4.0079,3.9943,3.8667,3.7187,3.7071,3.6045,0.0,0.0,0.0,0.0,0.0,0.0,0.0,0.0,0.0,3.4031,0.0,0.0,0.0,3.8109,3.8453,3.8453,0.0,0.0,0.0,3.9818,0.0,0.0,0.0,4.4841,0.0,4.7139,4.7226,4.7087,4.6538,4.6092,4.6343,4.7637,4.758,4.8181,4.9686,4.9837,4.9912,4.9912,4.9912,4.9912,4.9912,4.9912,5.0279,5.0994,5.167,5.2396,5.3102,5.3787,5.4103,5.4103,5.4103,5.404,5.3882,5.3344,5.2934,5.2712,5.2712,5.1539,4.9748,4.865,4.7324,4.5936,2.3441,2.3788,2.4468,2.5283,2.6043,2.6788,2.7578,2.7649,2.771,0.0,0.0,0.0,0.0,0.0,0.0,0.0,0.0,0.0,2.7997,2.7546,2.6749,2.5436,2.5534,2.5864,2.6455,2.6615,2.67,2.67,2.7359,2.7689,2.7689,2.7689,2.8103,0.0,2.9421,0.0,0.0,0.0,3.2914,0.0,3.5147,3.6259,0.0,3.9457,4.0045,4.0113,4.0113,4.0113,4.0011,0.0,3.8876,3.8201,0.0,3.6552,3.7319,3.426,0.0,0.0,0.0,0.0,0.0,0.0,3.5494,0.0,0.0,0.0,3.5876,3.5479,0.0,3.5379,0.0,0.0,0.0,0.0,0.0,0.0,3.7682,4.0196,4.262,4.3929,4.5783,4.6408,4.5094,4.436,4.489,4.7029,4.6484,4.7003,4.9139,4.9662,4.9912,4.9912,4.9912,4.9912,4.9912,4.9912,5.0279,5.0994,5.167,5.2396,5.3102,5.3787,5.4103,5.4103,5.4103,5.3755,5.3218,5.3123,5.2365,5.1247,5.1247,5.1092,5.0657,4.912,4.7913,4.6907,2.3837,2.4321,2.4878,2.5283,2.6245,2.6979,2.7098,2.7793,2.8246,0.0,0.0,0.0,0.0,0.0,0.0,0.0,0.0,2.9867,0.0,0.0,0.0,2.616,2.6152,2.6312,2.6581,2.7071,2.7359,2.7359,2.8112,2.8272,2.7815,2.8272,2.8696,0.0,3.0513,0.0,3.1853,0.0,3.3628,0.0,0.0,0.0,0.0,3.9324,3.9871,3.9884,3.9961,3.9986,3.9994,0.0,3.9391,0.0,0.0,0.0,0.0,0.0,0.0,0.0,0.0,0.0,0.0,0.0,0.0,0.0,3.527,0.0,3.528,0.0,0.0,0.0,0.0,0.0,0.0,0.0,3.6738,0.0,0.0,0.0,4.1115,4.2565,0.0,0.0,4.3515,4.3625,4.4647,4.692,4.628,4.6782,4.9082,4.965,4.9912,4.9912,4.9912,4.9912,4.9912,4.9912,5.0449,5.1575,5.1859,5.2586,5.3692,5.3976,5.4103,5.4071,5.3692,5.3376,5.306,5.2207,5.1532,5.0963,5.0532,5.0061,4.947,4.8248,4.7189,4.6248,2.4777,2.5095,2.5297,2.5049,2.6411,2.7424,2.7123,2.7873,2.8486,0.0,0.0,0.0,2.9409,2.996,0.0,0.0,3.2211,3.2085,0.0,0.0,2.973,2.8089,2.7501,0.0,2.7638,2.7968,2.8027,2.779,2.8822,2.889,2.8137,2.8933,2.9407,2.9677,0.0,3.2662,3.3189,0.0,3.4835,3.6094,3.64,3.7216,3.8465,3.9535,4.0062,4.0256,4.0522,4.0733,4.0909,4.0939,4.0267,0.0,4.0505,0.0,0.0,0.0,0.0,0.0,3.7285,0.0,0.0,0.0,0.0,0.0,0.0,0.0,0.0,0.0,0.0,0.0,0.0,0.0,0.0,0.0,0.0,3.6437,0.0,3.7248,0.0,0.0,0.0,0.0,0.0,4.2505,4.3602,4.6152,4.5651,4.6312,4.884,4.9575,4.9912,4.9912,4.9912,4.9912,4.9912,4.9912,5.0607,5.2017,5.2017,5.2744,5.4103,5.4103,5.4008,5.3787,5.3313,5.287,5.246,5.1437,5.0868,5.0647,5.0101,4.9188,4.8126,4.7448,4.6601,4.5666,2.6287,2.619,2.5715,2.495,2.6868,2.8551,2.8538,2.8197,2.8441,0.0,0.0,0.0,0.0,0.0,0.0,0.0,0.0,3.7285,3.5975,0.0,3.2985,0.0,0.0,2.9204,0.0,2.9408,2.8595,2.779,2.9311,2.9702,2.8976,2.9736,3.0446,3.119,3.2544,3.31,3.3182,3.5701,3.7148,3.7733,3.7745,3.8635,3.999,0.0,4.0984,4.1635,4.2218,0.0,0.0,4.1972,4.1523,4.1239,3.9727,0.0,0.0,0.0,0.0,0.0,0.0,0.0,0.0,3.7581,0.0,0.0,0.0,0.0,3.6686,0.0,0.0,0.0,0.0,0.0,0.0,0.0,0.0,0.0,0.0,0.0,0.0,0.0,0.0,0.0,0.0,4.0419,4.0959,0.0,4.4011,4.5147,4.8275,4.9348,4.9912,4.9912,4.9912,4.9912,4.9912,4.9912,5.0607,5.2017,5.2017,5.2744,5.4103,5.4103,5.3755,5.3123,5.3102,5.2333,5.1058,5.1026,5.0563,4.9943,4.9912,4.8821,4.7233,4.7211,4.6601,4.5666,2.6512,2.6913,2.7107,2.6835,0.0,2.8845,2.9049,2.9268,0.0,0.0,0.0,0.0,0.0,3.5117,3.6267,0.0,0.0,3.7782,3.6811,3.5735,0.0,0.0,0.0,3.0714,0.0,0.0,2.9912,2.9311,3.021,3.0321,2.9736,3.0403,3.0722,3.0826,0.0,3.4202,0.0,0.0,0.0,0.0,0.0,3.9525,4.1151,0.0,4.1795,4.1972,4.276,4.3192,4.3362,4.332,4.294,4.2551,4.2979,4.2602,4.2014,4.2246,4.2145,4.1869,4.1222,4.1366,4.1144,3.8983,0.0,0.0,0.0,0.0,0.0,0.0,0.0,0.0,0.0,0.0,0.0,0.0,0.0,0.0,0.0,0.0,0.0,0.0,0.0,0.0,0.0,0.0,0.0,0.0,4.4446,0.0,4.8089,4.929,4.9912,4.9912,4.9912,4.9912,4.9912,4.9912,5.0607,5.2017,5.2017,5.2744,5.4103,5.4103,5.3724,5.3071,5.2586,5.1859,5.0963,5.0469,5.0153,4.9912,4.9912,4.88,4.7189,4.7189,4.6203,4.4787,2.7424,2.8281,2.8612,2.7368,0.0,0.0,2.9325,0.0,0.0,0.0,3.4411,0.0,3.6404,0.0,3.8357,0.0,3.9489,3.9216,3.8174,3.7482,0.0,3.5881,3.4154,0.0,0.0,0.0,0.0,0.0,3.125,3.0921,3.0132,3.0847,3.1088,3.0983,0.0,3.4624,3.644,3.6893,3.8126,0.0,0.0,4.0951,0.0,0.0,4.2964,4.2833,4.3921,4.4472,4.4717,4.493,4.4642,4.4212,4.4631,4.4075,4.3267,4.325,4.2978,4.2543,4.1887,4.2113,4.2042,4.0067,3.9585,0.0,3.712,0.0,3.7349,0.0,0.0,0.0,0.0,0.0,0.0,0.0,0.0,0.0,0.0,3.3801,0.0,0.0,0.0,0.0,0.0,0.0,0.0,0.0,0.0,0.0,0.0,4.8948,4.9738,4.988,4.9912,4.9912,4.9912,4.9912,5.0607,5.2017,5.2017,5.2744,5.4103,5.4103,5.3597,5.266,5.2207,5.148,5.0563,5.0121,4.9912,4.9872,4.9562,4.8532,4.7189,4.7189,4.601,4.435,2.9021,3.019,3.0136,2.6844,2.7293,0.0,0.0,0.0,3.3275,0.0,3.5614,3.7184,3.8745,3.9565,4.0315,4.1109,4.1869,4.1655,4.0136,3.9686,0.0,0.0,3.7526,3.7251,3.8349,0.0,0.0,0.0,0.0,3.1429,3.0253,3.1177,3.1626,3.1688,3.2771,0.0,3.6557,3.7817,3.9655,4.1796,4.2399,4.2761,4.3101,4.4378,4.4525,4.4212,4.5691,4.6668,4.7122,4.6695,4.6483,4.6156,4.4777,4.4353,4.4222,4.3265,4.3237,4.3314,4.2583,4.2455,4.2255,4.0931,4.045,3.9965,3.8672,0.0,3.9932,0.0,0.0,0.0,0.0,0.0,0.0,0.0,0.0,0.0,0.0,0.0,0.0,0.0,0.0,0.0,0.0,0.0,0.0,0.0,0.0,0.0,0.0,4.8383,4.9335,4.988,4.9912,4.9912,4.9912,4.9912,5.0607,5.2017,5.2017,5.2744,5.4103,5.4071,5.3313,5.2017,5.1954,5.1175,4.9912,4.9912,4.9912,4.9801,4.8944,4.8,4.7125,4.7081,4.5943,4.4401,3.0641,3.0717,3.0742,0.0,3.0169,3.0478,0.0,0.0,0.0,0.0,3.8041,3.9387,4.0396,4.1217,4.1762,4.1976,4.219,0.0,0.0,0.0,0.0,4.1395,3.9646,3.8848,3.9181,3.6581,0.0,3.437,0.0,0.0,3.1881,3.182,3.1984,3.2301,0.0,0.0,3.751,3.847,4.0226,4.2445,4.3089,4.3438,4.3744,4.5258,4.5753,4.5716,4.6627,4.6977,4.7043,4.6905,4.6672,4.6339,4.6059,4.591,4.5679,4.4674,4.4507,4.4505,4.389,4.3535,4.3307,4.3232,4.2491,4.1646,4.1136,4.1391,4.1675,0.0,0.0,0.0,0.0,0.0,0.0,0.0,0.0,0.0,0.0,0.0,0.0,3.5549,0.0,0.0,0.0,0.0,0.0,0.0,0.0,0.0,4.751,4.751,4.8187,4.9848,4.9912,4.9912,4.9912,4.9912,5.0607,5.2017,5.2017,5.2744,5.4071,5.3597,5.287,5.1986,5.1448,5.0753,4.9912,4.9912,4.9912,4.9801,4.8944,4.7619,4.607,4.5378,4.4787,4.4401,3.1309,3.1511,0.0,3.3144,0.0,0.0,3.3887,3.4926,0.0,3.7898,3.9468,0.0,4.1038,4.1864,4.2394,4.2394,4.2409,0.0,4.1878,0.0,0.0,4.1878,4.1176,4.0805,4.0861,3.8778,0.0,3.5943,0.0,0.0,3.2261,3.2238,3.2318,3.2551,0.0,3.5228,3.7416,3.9751,4.1622,4.3114,4.3904,4.4494,0.0,4.566,4.6255,4.6712,4.6932,4.7054,4.7077,4.702,4.6766,4.6506,4.6666,4.6598,4.6299,4.5515,4.5404,4.5356,4.471,4.4453,4.4396,4.462,4.4127,4.3484,4.305,4.3091,4.3128,4.2832,4.3229,4.3448,4.2932,0.0,0.0,0.0,0.0,0.0,0.0,0.0,0.0,0.0,3.5071,0.0,0.0,0.0,0.0,0.0,0.0,0.0,0.0,4.6294,4.7592,4.8964,4.9331,4.9596,4.9912,4.9596,5.0311,5.2017,5.2017,5.2744,5.4071,5.3408,5.2712,5.1954,5.1279,5.0563,4.9912,4.9912,4.9912,4.9761,4.8511,4.6842,4.5104,4.4607,4.4401,4.4401,3.1793,3.256,0.0,0.0,0.0,0.0,0.0,3.7059,0.0,3.9023,0.0,4.1348,4.1415,4.2174,4.269,4.2798,0.0,4.2576,4.1809,4.2478,4.255,4.1818,4.2436,4.2763,4.2753,4.1451,3.9649,0.0,0.0,0.0,3.2204,3.2507,3.2677,0.0,0.0,0.0,0.0,4.122,4.3182,4.3883,4.4792,4.5621,4.6243,4.5925,4.6422,4.722,4.6882,4.6905,4.7135,4.7105,4.6932,4.6753,4.7009,4.6964,4.6687,4.6204,4.6131,4.6118,4.5437,4.5341,4.5485,4.557,4.5521,4.5308,4.4752,4.4747,4.466,4.4083,4.4088,4.4309,4.477,4.2301,0.0,0.0,0.0,0.0,0.0,0.0,0.0,0.0,0.0,0.0,0.0,0.0,0.0,0.0,0.0,0.0,0.0,4.4894,4.7019,4.813,4.8731,4.9268,4.9754,4.9268,4.9995,5.1891,5.1954,5.2744,5.4071,5.3313,5.2618,5.1954,5.1184,5.05,4.9912,4.9912,4.9741,4.9401,4.781,4.6054,4.4401,4.4401,4.4401,4.4401,3.3873,0.0,0.0,0.0,0.0,3.8025,3.9211,3.9606,4.0,4.0766,4.1835,4.2655,4.311,4.3325,4.3657,4.4338,4.431,0.0,0.0,0.0,0.0,4.434,4.3985,4.3706,4.358,4.1559,3.968,0.0,0.0,0.0,3.3133,3.2939,3.3218,0.0,0.0,0.0,4.0722,4.2195,0.0,4.4998,4.5755,4.6057,4.6122,4.6754,4.7035,4.7032,4.6731,4.6661,4.6802,4.7441,4.7472,4.739,4.8013,4.8242,4.812,4.7541,4.7464,4.7461,4.6866,4.6506,4.6434,4.698,4.6733,4.647,4.6848,4.7013,4.7095,4.6979,4.711,4.6908,4.5814,4.3469,0.0,0.0,0.0,0.0,0.0,0.0,0.0,0.0,0.0,3.6645,0.0,0.0,0.0,0.0,0.0,0.0,4.3864,4.3709,4.5322,4.9406,4.9659,4.9521,4.9078,4.9521,5.0216,5.1184,5.1733,5.2744,5.4071,5.2776,5.2123,5.1954,5.0658,5.0006,4.9912,4.9912,4.9025,4.764,4.7319,4.6054,4.4401,4.4401,4.4401,4.4401,0.0,0.0,0.0,0.0,0.0,0.0,0.0,4.1702,4.2176,4.1985,4.2364,4.2893,4.3535,4.4042,4.4525,4.4982,4.4982,4.5014,4.5101,4.5076,4.5076,4.5112,4.4817,4.463,4.458,4.3076,4.1345,3.9332,0.0,0.0,3.3765,3.3223,0.0,3.3601,0.0,3.8447,0.0,0.0,4.4728,4.5823,4.65,4.6737,4.6707,4.6772,4.7073,4.7382,4.713,4.728,4.762,4.7585,4.7744,4.8099,4.8872,4.9153,4.9131,4.891,4.8661,4.8309,4.7686,4.7106,4.6782,4.7122,4.6974,4.6878,4.7254,4.7487,4.7637,4.7688,4.7869,4.7521,4.589,4.4004,4.2505,4.1965,0.0,0.0,0.0,0.0,0.0,0.0,0.0,0.0,0.0,0.0,0.0,0.0,0.0,0.0,4.2347,4.2979,4.4952,4.8762,4.9205,4.9394,4.9426,4.9722,5.0449,5.1512,5.2238,5.3123,5.404,5.2649,5.2017,5.1922,5.0512,4.9912,4.9912,4.9912,4.8841,4.7189,4.7189,4.6054,4.4401,4.4401,4.4401,4.4401,0.0,3.7471,0.0,0.0,4.0391,4.1279,4.1914,4.3355,4.4019,4.3028,4.3021,4.3366,4.4078,4.4818,4.5379,4.5653,4.5694,4.5704,4.573,4.5724,4.5724,4.573,4.5631,4.5562,4.5562,4.4765,4.3213,0.0,0.0,0.0,3.4646,3.392,0.0,0.0,0.0,0.0,4.2334,4.4433,4.5771,4.6563,4.7038,4.7176,4.712,4.6814,4.7106,4.7719,4.7648,4.8135,4.8731,4.8112,4.8275,4.8894,4.9693,4.9973,4.9937,4.9886,4.9536,4.8944,4.816,4.7572,4.7134,4.7064,4.703,4.7064,4.725,4.7419,4.7571,4.7671,4.7869,4.7472,4.5794,4.4661,4.3732,4.2932,0.0,0.0,0.0,0.0,0.0,0.0,0.0,0.0,3.8792,0.0,0.0,0.0,0.0,0.0,4.0672,4.2646,4.4984,4.7814,4.8415,4.8857,4.9248,4.9817,5.067,5.1796,5.2681,5.3471,5.404,5.2649,5.2017,5.1922,5.0512,4.9912,4.9912,4.9912,4.8841,4.7189,4.7189,4.6054,4.4401,4.4401,4.4401,4.4373,0.0,0.0,0.0,0.0,0.0,4.2959,4.3032,4.4315,4.4933,4.393,4.4522,4.526,4.5892,4.6074,4.6462,4.723,4.7129,4.714,4.744,4.7234,4.7212,4.745,4.6783,4.6395,4.6395,4.5599,4.4328,0.0,0.0,3.8905,3.6425,3.5586,3.6305,3.8411,3.9635,4.1918,4.4853,4.516,4.6055,4.7223,4.7273,4.7053,4.6732,4.7416,4.7564,4.7505,4.817,4.8907,4.9587,4.9517,4.9517,4.9728,5.0535,5.0781,5.0659,5.0074,4.9844,4.9566,4.8464,4.8146,4.7983,4.7554,4.7436,4.7436,4.747,4.7587,4.7688,4.7688,4.7869,4.7521,4.6048,4.6213,4.5821,4.3517,0.0,0.0,0.0,0.0,4.4685,4.2726,0.0,0.0,3.9471,3.6437,0.0,0.0,3.7891,0.0,4.1384,4.2899,4.4984,4.7814,4.7972,4.7688,4.7087,4.9635,5.0963,5.1121,5.246,5.3471,5.404,5.2649,5.2017,5.1922,5.0512,4.9912,4.9912,4.9912,4.8841,4.7189,4.7189,4.6054,4.4401,4.4401,4.4401,4.4326,0.0,0.0,0.0,4.2199,0.0,4.4299,4.4838,4.5613,4.5992,4.5692,4.5694,4.5989,4.6729,4.6823,4.6985,4.7338,4.7298,4.7331,4.7572,4.7472,4.7493,4.7678,4.7399,4.7218,4.7218,4.6432,4.545,0.0,0.0,0.0,0.0,3.7174,3.8053,4.041,4.1859,4.3507,4.527,4.6282,4.6947,4.7298,4.7165,4.719,4.7357,4.7516,4.8061,4.8815,4.9118,4.9763,5.043,5.043,5.043,5.0465,5.0816,5.0887,5.0764,5.0094,4.9625,4.9097,4.8257,4.7721,4.7371,4.7184,4.7132,4.7184,4.7436,4.7537,4.7654,4.7853,4.7952,4.7835,4.7239,4.6483,4.5878,4.5749,4.5209,0.0,0.0,0.0,0.0,4.4053,0.0,0.0,0.0,3.7859,3.6437,0.0,0.0,3.6848,4.0166,4.1683,4.3516,4.5918,4.8004,4.8553,4.7466,5.0216,5.1606,5.1606,5.3028,5.3629,5.3471,5.246,5.1523,5.0701,5.0133,4.9912,4.9872,4.9361,4.8356,4.7146,4.6579,4.556,4.4401,4.4401,4.4401,4.4303,4.1764,4.2461,4.3286,4.4128,4.491,4.5635,4.6232,4.671,4.6957,4.6993,4.6642,4.6599,4.7207,4.7323,4.7367,4.7407,4.7385,4.7407,4.7561,4.754,4.7572,4.7689,4.7657,0.0,4.7636,4.7036,4.6442,4.5812,4.3097,0.0,4.0331,3.9309,4.0125,4.2448,4.3736,4.4919,4.6024,4.7197,4.7561,4.7287,4.7303,4.7524,4.7828,4.8003,4.8744,4.9728,4.9973,5.043,5.0887,5.0887,5.0887,5.0887,5.0887,5.0887,5.0764,5.0094,4.9447,4.8744,4.8063,4.7405,4.691,4.691,4.691,4.6978,4.7267,4.7369,4.7504,4.7853,4.7968,4.8001,4.8001,4.6864,4.6061,4.6551,4.5607,0.0,0.0,4.5687,0.0,0.0,4.2602,4.1859,4.3137,3.9502,0.0,0.0,3.7733,3.7196,4.0577,4.1683,4.3263,4.557,4.8016,4.8952,4.8193,5.0721,5.2112,5.2344,5.3534,5.3755,5.3071,5.2144,5.1069,4.9912,4.9912,4.9912,4.9821,4.8964,4.8042,4.7103,4.6181,4.5218,4.4401,4.4401,4.4303,4.4092,4.3322,4.4121,4.4956,4.5908,4.6636,4.7038,4.6907,4.7378,4.7721,4.7525,4.7385,4.7352,4.7472,4.7615,4.7689,4.7689,4.7583,4.7561,4.7678,4.7583,4.7572,0.0,0.0,4.7482,4.7482,4.7374,4.7284,4.7284,0.0,0.0,4.3719,4.2255,4.276,4.4957,4.5172,4.6168,4.7652,4.7689,4.7561,4.7359,4.7852,4.7962,4.7934,4.9186,4.9693,4.9798,5.0606,5.0887,5.0887,5.0887,5.0887,5.0887,5.0887,5.0887,5.0764,5.0094,4.9447,4.8744,4.8063,4.7405,4.691,4.691,4.691,4.691,4.691,4.7047,4.7285,4.7621,4.7836,4.8001,4.8001,4.7671,4.6813,4.5097,4.5632,4.5666,0.0,4.4938,0.0,4.3878,4.1989,4.1831,4.4433,4.1039,0.0,0.0,4.2695,4.2126,4.3562,4.3657,4.4952,4.7782,4.7909,4.8225,4.8876,5.0974,5.2365,5.3071,5.3787,5.3755,5.306,5.1658,5.0595,4.9912,4.9912,4.9912,4.9821,4.8964,4.8042,4.7103,4.6181,4.5218,4.4401,4.4401,4.404,4.3543,4.5775,4.6277,4.6778,4.7063,4.7555,4.792,4.7845,4.7899,4.7921,4.785,4.807,4.8268,4.8312,4.7775,4.7612,4.8064,4.8066,4.8088,4.8246,4.8213,4.8027,4.7714,4.7657,4.7636,4.7636,4.7604,4.7583,4.7583,4.5941,4.4967,4.4612,4.414,4.4901,4.6718,4.6782,4.7155,4.7725,4.8304,4.8257,4.7899,4.8651,4.9002,4.9142,4.9556,5.0044,5.057,5.0816,5.0887,5.0887,5.0887,5.0887,5.0887,5.0887,5.0887,5.0764,5.0094,4.9447,4.8744,4.8063,4.7405,4.691,4.691,4.691,4.6944,4.7064,4.7319,4.7571,4.7671,4.7869,4.8001,4.8001,4.7671,4.7156,4.6362,4.6275,4.6018,4.5245,0.0,4.4699,4.3815,4.2317,4.2239,4.4496,4.1859,4.11,4.3815,4.1193,4.0514,4.2884,4.4352,4.53,4.5728,4.8016,4.9141,4.8908,5.0974,5.2365,5.3102,5.3787,5.3502,5.2281,5.0911,5.0101,4.9912,4.9912,4.9912,4.9761,4.8252,4.7469,4.7038,4.5446,4.4676,4.4401,4.4401,4.4068,4.3543,4.7184,4.7644,4.8047,4.7943,4.8071,4.818,4.8131,4.8207,4.8213,4.8129,4.8692,4.9075,4.9075,4.854,4.8365,4.8799,4.8824,4.8858,4.8962,4.8938,4.8789,4.8453,4.8409,4.8388,4.8388,4.8074,4.793,4.793,4.6621,4.5966,4.5845,4.5924,4.6661,4.7951,4.7995,4.824,4.8641,4.9148,4.9097,4.8756,4.9484,4.9795,4.9859,5.0084,5.0465,5.0887,5.0887,5.0887,5.0887,5.0887,5.0887,5.0887,5.0887,5.0887,5.0819,5.0411,4.9625,4.8806,4.8383,4.7605,4.691,4.691,4.691,4.6961,4.715,4.7404,4.7621,4.7688,4.7869,4.8001,4.8001,4.7671,4.7368,4.7301,4.6966,4.6592,4.6226,4.557,4.4857,0.0,4.3125,4.3269,4.5286,4.4011,4.3853,4.5868,4.4004,4.3562,4.5317,4.4907,4.5254,4.6595,4.9047,5.0247,5.0058,5.1638,5.2776,5.3471,5.3376,5.2712,5.1575,5.0417,4.9912,4.9912,4.9912,4.9912,4.9741,4.7937,4.7189,4.6994,4.5132,4.4401,4.4401,4.4401,4.395,4.3307,4.7863,4.8335,4.8764,4.8569,4.8238,4.7962,4.7886,4.8366,4.8632,4.8442,4.9193,4.9765,4.9765,4.9825,4.9861,4.9861,4.9789,4.9789,4.9789,4.9789,4.9753,4.9693,4.9565,4.9531,4.9531,4.879,4.8408,4.8419,4.7779,4.7474,4.7485,4.763,4.8081,4.8803,4.8938,4.9401,5.0101,5.0162,5.0006,4.979,5.0354,5.0403,5.0208,5.0699,5.0887,5.0887,5.0887,5.0887,5.0887,5.0887,5.0887,5.0887,5.0887,5.0887,5.0887,5.0887,4.993,4.8898,4.8898,4.7901,4.691,4.691,4.691,4.6961,4.7132,4.7352,4.757,4.772,4.7935,4.81,4.8133,4.7836,4.7662,4.7914,4.7623,4.718,4.6795,4.6139,4.5457,4.4762,4.4302,4.4781,4.6695,4.7046,4.7857,4.9552,4.969,4.969,4.969,4.5412,4.5096,4.9754,5.0627,5.1342,5.1986,5.266,5.3344,5.3945,5.2586,5.1606,5.0963,5.0247,4.9912,4.9912,4.9912,4.9872,4.9661,4.7916,4.7146,4.6907,4.511,4.4401,4.4401,4.4378,4.3764,4.3009,4.9683,4.9421,4.9169,4.9105,4.8495,4.818,4.8629,4.8706,4.8881,4.931,5.0113,5.0628,5.0628,5.1072,5.137,5.137,5.0832,5.0462,5.0462,5.0462,5.0223,4.9729,4.9658,4.9635,4.9635,4.9467,4.9405,4.9532,4.9375,4.9334,4.9444,4.9466,4.9586,4.9767,4.98,4.9919,5.0126,5.0549,5.0569,5.0341,5.0901,5.095,5.0721,5.083,5.0887,5.0887,5.0887,5.0887,5.0887,5.0887,5.0887,5.0887,5.0887,5.0887,5.0887,5.0887,4.993,4.8898,4.8898,4.7901,4.691,4.691,4.691,4.6927,4.6961,4.7267,4.7667,4.8209,4.8611,4.9028,4.9574,4.935,4.9019,4.8774,4.7512,4.6432,4.6099,4.5426,4.4907,4.4731,4.5083,4.5954,4.7498,4.7694,4.7662,4.753,4.753,4.753,4.753,4.6455,4.7087,4.9817,5.0627,5.1342,5.1986,5.2154,5.2344,5.2491,5.1638,5.1153,5.0963,5.0247,4.9912,4.9912,4.9912,4.9521,4.8821,4.7661,4.6777,4.6025,4.4833,4.4401,4.435,4.3922,4.3678,4.3478,5.0094,4.979,4.9483,4.934,4.8917,4.8713,4.908,4.935,4.966,5.0032,5.0773,5.1286,5.1286,5.1571,5.182,5.182,5.1415,5.1164,5.1164,5.1164,5.0986,5.0629,5.0593,5.0593,5.0593,5.0318,5.0077,4.99,4.99,4.9967,5.0101,5.0101,5.0282,5.0644,5.0644,5.0861,5.1201,5.1381,5.1311,5.1076,5.1238,5.1141,5.0887,5.0887,5.0887,5.0887,5.0887,5.0887,5.0887,5.0887,5.0887,5.0887,5.0887,5.0887,5.0887,5.0887,4.993,4.8898,4.8898,4.7901,4.691,4.691,4.7169,4.7428,4.7467,4.8002,4.8585,4.9048,4.9387,4.9655,4.9898,4.9739,4.9521,4.925,4.7868,4.6893,4.7175,4.6044,4.557,4.6518,4.6708,4.7308,4.868,4.8806,4.8667,4.8256,4.8225,4.8225,4.8225,4.8541,4.9236,5.0374,5.0805,5.1342,5.1986,5.2017,5.1859,5.1543,5.1184,5.0836,5.0469,5.007,4.9912,4.9912,4.9912,4.9421,4.8532,4.7576,4.6645,4.5711,4.4764,4.4401,4.435,4.4068,4.3856,4.3695,4.9916,4.9837,4.9766,4.9589,4.9441,4.9395,4.9625,5.0137,5.0518,5.0673,5.1292,5.1746,5.1746,5.1746,5.1746,5.1746,5.1721,5.1721,5.1721,5.1721,5.1721,5.1721,5.1721,5.1721,5.1721,5.1153,5.0677,5.0238,5.0249,5.0329,5.0463,5.0463,5.0825,5.1477,5.1477,5.1853,5.241,5.2162,5.1859,5.1632,5.1363,5.1101,5.0887,5.0887,5.0887,5.0887,5.0887,5.0887,5.0887,5.0887,5.0887,5.0887,5.0887,5.0887,5.0887,5.0887,5.0034,4.9034,4.8932,4.8,4.7072,4.7072,4.7605,4.8191,4.8284,4.8983,4.9685,4.9974,5.0163,5.0196,4.9965,4.9838,4.9664,4.9371,4.8134,4.7476,4.8314,4.6929,4.655,4.8509,4.8415,4.8667,4.9785,4.9912,4.9912,4.9912,4.9912,4.9912,4.9912,5.05,5.0868,5.0994,5.1089,5.1374,5.1859,5.1859,5.1512,5.0836,5.0836,5.05,4.9912,4.9912,4.9912,4.9912,4.9912,4.934,4.8345,4.7533,4.6557,4.5514,4.4723,4.4401,4.4401,4.4303,4.408,4.3882,5.023,5.0006,5.0024,5.0702,4.9987,4.9771,5.1206,5.0893,5.0744,5.1422,5.1736,5.187,5.187,5.187,5.187,5.187,5.1771,5.1721,5.1721,5.1721,5.1721,5.1721,5.1721,5.1721,5.1721,5.1725,5.1717,5.1778,5.1873,5.199,5.2129,5.2129,5.219,5.2299,5.2299,5.2267,5.215,5.1895,5.162,5.135,5.1061,5.0962,5.0887,5.0887,5.0887,5.0887,5.0887,5.0887,5.0887,5.0887,5.0887,5.0887,5.0887,5.0887,5.0887,5.0887,5.0399,4.9695,4.9068,4.8382,4.7831,4.7831,4.8332,4.885,4.8886,4.9236,4.9781,5.0421,5.0588,5.0785,5.1372,5.0848,4.9986,4.8834,4.718,4.6099,4.6266,4.6013,4.636,4.7877,4.8983,4.9659,4.988,4.9912,4.9912,4.9912,4.9912,4.9912,4.9912,5.0006,5.0374,5.0963,5.1543,5.1606,5.1153,5.1153,5.0785,5.007,5.007,5.0006,4.9912,4.9912,4.9912,4.9912,4.9912,4.8964,4.7405,4.7254,4.6188,4.4607,4.4443,4.4401,4.4354,4.3875,4.4041,4.4403,5.0283,5.0569,5.0901,5.1281,5.1128,5.1191,5.1939,5.1522,5.128,5.1637,5.1758,5.1796,5.1796,5.1796,5.1796,5.1796,5.1746,5.1721,5.1721,5.1721,5.1746,5.1808,5.182,5.1845,5.1932,5.198,5.2078,5.2198,5.2257,5.2388,5.248,5.248,5.248,5.248,5.248,5.234,5.209,5.1797,5.1556,5.1285,5.0994,5.0887,5.0887,5.0887,5.0887,5.0887,5.0887,5.0887,5.0887,5.0887,5.0887,5.0887,5.0887,5.1154,5.1505,5.1505,5.0764,4.9859,4.9128,4.8761,4.8526,4.8526,4.9076,4.9631,4.9708,5.0123,5.0605,5.1023,5.1033,5.095,5.1102,5.0774,5.0128,4.8898,4.7725,4.7056,4.7403,4.715,4.7435,4.8806,4.9533,4.9912,4.9912,4.9912,4.9912,4.9912,4.9912,4.9912,4.9912,5.0279,5.0469,5.0405,5.1101,5.1101,5.0405,5.0405,5.0247,4.9912,4.9912,4.9912,4.9912,4.9912,4.9912,4.9892,4.9401,4.8449,4.7146,4.6645,4.565,4.4401,4.4401,4.4401,4.4378,4.4139,4.4266,4.4563,5.0583,5.127,5.192,5.2149,5.2325,5.2456,5.2559,5.2182,5.1822,5.1697,5.1721,5.1721,5.1721,5.1721,5.1721,5.1721,5.1721,5.1733,5.1758,5.1758,5.1796,5.1895,5.1919,5.1993,5.2102,5.2138,5.2186,5.2317,5.2317,5.2387,5.248,5.248,5.248,5.248,5.248,5.2317,5.2005,5.1808,5.1518,5.1193,5.0967,5.0887,5.0887,5.0887,5.0887,5.0887,5.0887,5.0887,5.0887,5.0887,5.1027,5.1154,5.1154,5.1681,5.225,5.206,5.118,5.0058,4.9239,4.9141,4.9271,4.9271,4.9789,5.0413,5.0615,5.102,5.1406,5.1592,5.1355,5.0989,5.0717,5.0486,4.9986,4.8852,4.8225,4.8067,4.8604,4.8225,4.8415,4.9754,4.9912,4.9912,4.9912,4.9912,4.9912,4.9912,4.9912,4.9912,4.9912,5.0437,5.0469,4.9912,5.0437,5.0469,4.9912,4.9912,4.9912,4.9912,4.9912,4.9912,4.9912,4.9912,4.9912,4.9872,4.8984,4.8063,4.7125,4.6181,4.5241,4.4401,4.4401,4.4401,4.4401,4.4401,4.4488,4.4614,5.1499,5.2155,5.2964,5.376,5.3316,5.2983,5.3358,5.2804,5.2185,5.1747,5.1721,5.1721,5.1721,5.1721,5.1721,5.1721,5.1721,5.1758,5.187,5.1882,5.1882,5.1895,5.2017,5.209,5.2102,5.221,5.2305,5.2317,5.241,5.248,5.248,5.248,5.248,5.248,5.248,5.221,5.1746,5.1721,5.1415,5.0914,5.0887,5.0887,5.0887,5.0887,5.0887,5.0887,5.0887,5.0887,5.0887,5.0887,5.1365,5.1912,5.1912,5.2453,5.2986,5.229,5.1586,5.0726,4.9357,4.9497,5.0034,5.0034,5.0552,5.1159,5.1364,5.1596,5.1813,5.1995,5.1559,5.1083,5.1046,5.0448,4.9509,4.8193,4.794,4.7909,4.7972,4.794,4.8415,4.9754,4.9912,4.9912,4.9912,4.9912,4.9912,4.9912,4.9912,4.9912,4.9912,4.9943,4.9975,4.9912,4.9943,4.9943,4.9912,4.9912,4.9912,4.9912,4.9912,4.9912,4.9912,4.9912,4.9912,4.9872,4.8984,4.8063,4.7125,4.6181,4.5241,4.4401,4.4401,4.4401,4.4401,4.4401,4.4488,4.4614,5.217,5.3003,5.3722,5.4027,5.3875,5.3757,5.3927,5.3286,5.2707,5.2529,5.2278,5.2114,5.2114,5.1871,5.1721,5.1721,5.1721,5.1771,5.1882,5.198,5.2054,5.2126,5.2269,5.234,5.234,5.2387,5.241,5.241,5.2493,5.248,5.248,5.248,5.248,5.248,5.2328,5.2054,5.1708,5.1531,5.1246,5.0887,5.0887,5.0887,5.0887,5.0887,5.0887,5.0957,5.1435,5.1575,5.1645,5.2151,5.2502,5.2734,5.2734,5.326,5.367,5.2545,5.1732,5.0858,4.939,4.9853,5.0797,5.0797,5.0991,5.1293,5.161,5.1555,5.1429,5.1485,5.1078,5.066,5.0409,5.0097,4.9596,4.8667,4.8857,4.9015,4.8573,4.8889,4.9311,4.9848,4.9912,4.9912,4.9912,4.9912,4.9912,4.9912,4.9912,4.9912,4.9912,4.9912,4.9912,4.9912,4.9912,4.9912,4.9912,4.9912,4.9912,4.9912,4.9912,4.9912,4.9912,4.9912,4.9602,4.9046,4.8126,4.7211,4.627,4.531,4.4723,4.4401,4.4401,4.4401,4.4406,4.4467,4.4526,4.4617,5.3048,5.3881,5.4473,5.4428,5.4427,5.4376,5.417,5.3626,5.316,5.3015,5.2762,5.2531,5.2408,5.209,5.1859,5.1733,5.1721,5.1783,5.1956,5.2126,5.2257,5.2376,5.2434,5.248,5.248,5.248,5.248,5.248,5.248,5.248,5.248,5.248,5.248,5.2468,5.2222,5.1956,5.1695,5.1428,5.1141,5.0887,5.0887,5.0887,5.0922,5.1154,5.1259,5.1329,5.2102,5.2383,5.2453,5.2994,5.3345,5.3556,5.3556,5.3597,5.3487,5.2592,5.1429,5.028,4.9253,4.9724,5.0519,5.0519,5.0681,5.0955,5.1361,5.1414,5.1373,5.1322,5.0984,5.0583,5.0156,5.001,4.9754,4.9299,4.9596,4.9722,4.9268,4.9596,4.9912,4.9912,4.9912,4.9912,4.9912,4.9912,4.9912,4.9912,4.9912,4.9912,4.9912,4.9912,4.9912,4.9912,4.9912,4.9912,4.9912,4.9912,4.9912,4.9912,4.9912,4.9912,4.9912,4.9912,4.9582,4.8944,4.7725,4.682,4.6137,4.4903,4.4401,4.4401,4.4401,4.4401,4.4411,4.4477,4.4546,4.4619,5.4091,5.4785,5.5357,5.514,5.4985,5.4714,5.4114,5.3851,5.3528,5.3067,5.3004,5.286,5.2454,5.2396,5.2197,5.1722,5.1721,5.1797,5.209,5.234,5.248,5.248,5.248,5.248,5.248,5.248,5.248,5.248,5.248,5.248,5.248,5.248,5.248,5.2468,5.2222,5.1956,5.1695,5.1415,5.1141,5.0887,5.0922,5.0922,5.0992,5.1737,5.2018,5.2123,5.2923,5.3204,5.3204,5.3204,5.3696,5.4299,5.4299,5.338,5.2315,5.2265,5.0737,4.8979,4.8979,4.8979,4.8979,4.9012,4.953,5.0209,5.0609,5.1237,5.1813,5.1813,5.1415,5.0951,5.0583,5.0156,4.9912,4.9912,4.9912,4.9912,4.9912,4.9912,4.9912,4.9912,4.9912,4.9912,4.9912,4.9912,4.9912,4.9912,4.9912,4.9912,4.9912,4.9912,4.9912,4.9912,4.9912,4.9912,4.9912,4.9912,4.9912,4.9912,4.9912,4.9912,4.9912,4.9912,4.9892,4.9761,4.7979,4.7189,4.7016,4.5178,4.4401,4.4401,4.4401,4.4401,4.4411,4.4477,4.4546,4.4619,5.4686,5.5031,5.5208,5.5064,5.4949,5.4791,5.4455,5.4291,5.4125,5.4008,5.342,5.2952,5.2849,5.2267,5.1846,5.1733,5.1721,5.1797,5.209,5.234,5.248,5.248,5.248,5.248,5.248,5.248,5.248,5.248,5.248,5.248,5.248,5.248,5.2387,5.221,5.1956,5.1683,5.1415,5.1127,5.0954,5.0957,5.147,5.1667,5.1751,5.2523,5.2853,5.2959,5.3682,5.3963,5.4068,5.463,5.4981,5.4978,5.3918,5.2988,5.2014,5.0492,4.9218,4.817,4.767,4.754,4.7767,4.8753,4.9174,4.9574,5.051,5.0536,5.0533,5.0986,5.0742,5.037,4.9939,4.9892,4.9912,4.9912,4.9912,4.9912,4.9912,4.9912,4.9912,4.9912,4.9912,4.9912,4.9912,4.9912,4.9912,4.9912,4.9912,4.9912,4.9912,4.9912,4.9912,4.9912,4.9912,4.9912,4.9912,4.9912,4.9912,4.9912,4.9912,4.9912,4.9912,4.9912,4.9188,4.7979,4.7426,4.6447,4.523,4.5082,4.4766,4.4429,4.4879,4.4766,4.442,4.4532,4.4577,4.4597,5.5012,5.5095,5.5092,5.4934,5.4837,5.473,5.4563,5.4447,5.4409,5.4409,5.3758,5.3191,5.3015,5.2394,5.1908,5.1733,5.1758,5.1882,5.209,5.2293,5.2422,5.2516,5.248,5.248,5.248,5.248,5.248,5.248,5.248,5.248,5.248,5.248,5.2352,5.209,5.1833,5.1699,5.1732,5.1452,5.1519,5.1835,5.2312,5.2488,5.2558,5.3331,5.3661,5.3731,5.4489,5.4756,5.484,5.5352,5.5099,5.446,5.356,5.2261,5.0793,4.9477,4.8357,4.7475,4.7039,4.691,4.7104,4.7961,4.8397,4.8893,5.002,5.0105,5.0126,5.0784,5.0589,5.0195,4.9781,4.9832,4.9912,4.9912,4.9912,4.9912,4.9912,4.9912,4.9912,4.9912,4.9912,4.9912,4.9912,4.9912,4.9912,4.9912,4.9912,4.9912,4.9912,4.9912,4.9912,4.9912,4.9912,4.9912,4.9912,4.9912,4.9912,4.9912,4.9912,4.9912,4.9912,4.9912,4.9107,4.7755,4.761,4.6696,4.5301,4.5298,4.5103,4.4766,4.4879,4.471,4.4424,4.4526,4.4614,4.4599,5.5106,5.5042,5.4941,5.4814,5.4691,5.4541,5.4434,5.4409,5.4409,5.4409,5.3972,5.3469,5.3046,5.2585,5.215,5.1722,5.1833,5.1956,5.2102,5.2222,5.2376,5.248,5.248,5.248,5.248,5.248,5.248,5.248,5.248,5.248,5.248,5.248,5.2376,5.2161,5.1928,5.2029,5.2457,5.2198,5.2523,5.3204,5.3275,5.331,5.338,5.4138,5.4419,5.451,5.5247,5.5493,5.5493,5.5493,5.451,5.3264,5.3134,5.1278,4.9061,4.8928,4.7963,4.691,4.691,4.691,4.691,4.691,4.7425,4.8223,4.9277,4.9697,5.0117,5.0822,5.0647,5.0273,4.99,4.9892,4.9912,4.9912,4.9912,4.9912,4.9912,4.9912,4.9912,4.9912,4.9912,4.9912,4.9912,4.9912,4.9912,4.9912,4.9912,4.9912,4.9912,4.9912,4.9912,4.9912,4.9912,4.9912,4.9912,4.9912,4.9912,4.9912,4.9912,4.9912,4.9912,4.9912,4.9412,4.8551,4.8235,4.7561,4.6593,4.5737,4.5356,4.5244,4.4682,4.4429,4.4424,4.4526,4.4614,4.4599,5.5028,5.4963,5.4898,5.4736,5.4659,5.4541,5.4434,5.4409,5.4409,5.4409,5.3654,5.3109,5.3015,5.2325,5.1797,5.1721,5.1833,5.1956,5.2102,5.2222,5.2376,5.248,5.248,5.248,5.248,5.248,5.248,5.248,5.248,5.248,5.248,5.248,5.2558,5.2664,5.26,5.2728,5.3007,5.2952,5.3029,5.3239,5.3822,5.4068,5.4138,5.4931,5.5247,5.5247,5.5422,5.5493,5.5493,5.5493,5.451,5.3118,5.1986,5.047,4.8862,4.7713,4.7144,4.691,4.691,4.691,4.691,4.691,4.7183,4.7712,4.8673,4.8578,4.8606,4.9706,4.9721,4.9521,4.9472,4.9713,4.9912,4.9912,4.9912,4.9912,4.9912,4.9912,4.9912,4.9912,4.9912,4.9912,4.9912,4.9912,4.9912,4.9912,4.9912,4.9912,4.9912,4.9912,4.9912,4.9912,4.9912,4.9912,4.9912,4.9912,4.9912,4.9912,4.9912,4.9912,4.9912,4.9912,4.9264,4.8208,4.8139,4.744,4.6369,4.618,4.5749,4.53,4.516,4.4823,4.4424,4.4526,4.4614,4.4599,5.4949,5.4852,5.4783,5.4705,5.4579,5.448,5.4426,5.4409,5.4409,5.4409,5.3577,5.3004,5.3004,5.2232,5.1721,5.1721,5.1771,5.187,5.1993,5.2066,5.2342,5.287,5.2942,5.3158,5.3496,5.3603,5.3277,5.248,5.2878,5.3059,5.3096,5.3291,5.3384,5.3372,5.3228,5.3395,5.3717,5.3717,5.3928,5.4314,5.4735,5.4861,5.4931,5.5352,5.5493,5.5493,5.5493,5.5493,5.5378,5.4675,5.3479,5.2036,5.0652,4.9211,4.7896,4.7127,4.691,4.691,4.691,4.691,4.6923,4.7054,4.7195,4.7535,4.8491,4.8407,4.8442,4.9532,4.9562,4.9421,4.9421,4.9713,4.9912,4.9912,5.0216,5.0311,4.9943,5.0216,5.0311,4.9943,4.9912,4.9912,4.9912,4.9912,4.9912,4.9912,4.9912,4.9912,4.9912,4.9912,4.9912,4.9912,4.9912,4.9912,4.9912,4.9912,5.007,5.0405,5.007,4.985,4.9707,4.9707,4.9014,4.789,4.8214,4.7728,4.6701,4.642,4.6083,4.5717,4.5103,4.4709,4.4458,4.4561,4.4634,4.4651,5.489,5.4791,5.4689,5.4689,5.4535,5.4409,5.4409,5.4409,5.4409,5.4409,5.3577,5.3004,5.3004,5.2232,5.1721,5.1721,5.1828,5.1949,5.2109,5.2217,5.2637,5.3468,5.3603,5.3989,5.4578,5.4785,5.4255,5.2915,5.3566,5.3929,5.3917,5.424,5.4335,5.4206,5.3899,5.4056,5.4524,5.4524,5.4896,5.5493,5.5493,5.5493,5.5493,5.5493,5.5493,5.5493,5.5493,5.5493,5.5263,5.3805,5.2364,5.0966,4.9526,4.8096,4.691,4.691,4.691,4.691,4.691,4.691,4.6968,4.7237,4.733,4.76,4.8445,4.8542,4.8686,4.9516,4.9613,4.9584,4.971,4.991,5.0133,5.0228,5.0753,5.0931,5.0196,5.0595,5.0742,4.9975,4.9912,4.9912,4.9912,4.9912,4.9912,4.9912,4.9912,4.9912,4.9912,4.9912,4.9912,4.9912,4.9912,4.9975,5.007,5.007,5.0437,5.1153,5.0371,4.9883,4.9679,4.9478,4.8789,4.7798,4.8349,4.8084,4.715,4.656,4.6223,4.6026,4.4846,4.4435,4.4514,4.4581,4.465,4.4695,5.4882,5.4791,5.4689,5.4689,5.4535,5.4409,5.4409,5.4409,5.4409,5.4409,5.3577,5.3004,5.3004,5.2232,5.1721,5.1721,5.2327,5.2771,5.2933,5.3542,5.3987,5.4257,5.4395,5.4506,5.4614,5.4785,5.4786,5.4581,5.4677,5.4762,5.4713,5.4528,5.4645,5.5013,5.4701,5.4853,5.5352,5.5352,5.5387,5.5493,5.5493,5.5493,5.5493,5.5493,5.5493,5.5493,5.5493,5.5493,5.5263,5.3805,5.2364,5.0966,4.9526,4.8096,4.691,4.691,4.691,4.691,4.691,4.691,4.6968,4.7237,4.7511,4.7839,4.8204,4.8247,4.8349,4.8707,4.9077,4.9508,5.008,5.0553,5.1058,5.1638,5.1796,5.1638,5.0963,5.0931,5.0742,4.9975,4.9912,4.9912,4.9912,4.9912,4.9912,4.9912,4.9912,4.9912,4.9912,4.9912,4.9912,4.9912,4.9912,5.0216,5.0836,5.0868,5.1184,5.1839,5.0869,5.0402,5.0343,4.946,4.885,4.8465,4.8552,4.8084,4.715,4.656,4.597,4.5356,4.4654,4.4435,4.452,4.4634,4.4679,4.4695,5.486,5.476,5.4673,5.4616,5.4501,5.4409,5.4409,5.4409,5.4294,5.4044,5.343,5.2898,5.2674,5.209,5.1899,5.2327,5.2697,5.3103,5.357,5.3927,5.4311,5.4828,5.4971,5.5302,5.5811,5.5987,5.61,5.6174,5.574,5.5522,5.551,5.5528,5.5647,5.587,5.5349,5.5273,5.5493,5.5493,5.5493,5.5493,5.5493,5.5493,5.5493,5.5493,5.5493,5.5493,5.5493,5.5493,5.5149,5.2907,5.1707,5.08,4.8579,4.7412,4.691,4.691,4.691,4.691,4.691,4.6995,4.7212,4.7498,4.7801,4.8087,4.8365,4.8439,4.847,4.8563,4.9264,4.9946,5.0258,5.1004,5.1638,5.1954,5.2017,5.1764,5.1089,5.0994,5.0742,4.9975,4.9912,4.9912,4.9912,4.9912,4.9912,4.9912,4.9912,4.9912,4.9912,4.9912,5.007,5.05,5.05,5.0848,5.1543,5.0996,5.1088,5.1742,5.02,4.9748,5.0245,4.9245,4.8618,4.8304,4.8304,4.7886,4.715,4.656,4.5914,4.5244,4.4626,4.4462,4.457,4.4651,4.4701,4.4695]}]]